     2.10           OBSERVATION DATA    G (GPS)             RINEX VERSION / TYPE
teqc 2005May6 SOPAC 20050707 00:38:34UTC                    PGM / RUN BY / DATE
Linux 2.4.20-8|Pentium IV|gcc|Linux|486/DX+                 COMMENT
BIT 2 OF LLI FLAGS DATA COLLECTED UNDER A/S CONDITION       COMMENT
HPGN D CA 01 CF                                             MARKER NAME
01CF                                                        MARKER NUMBER
Dave McLennan                                               OBSERVER / AGENCY
0220223924 TRIMBLE 4700 1.30                                REC # / TYPE / VERS
0220078888 TRM22020.00+GP NONE                              ANT # / TYPE
 -2729255.0000 -4145864.0000  3992189.0000                  APPROX POSITION XYZ
        2.0000        0.0000        0.0000                  ANTENNA: DELTA H/E/N
     1     1                                                WAVELENGTH FACT L1/2
     6    L1    L2    C1    P2    P1    D1                  # / TYPES OF OBSERV
    15.0000                                                 INTERVAL
Northern California Height Modernization 2004               COMMENT
                                                            COMMENT
SOPAC - Scripps Orbit and Permanent Array Center            COMMENT
IGPP - Institute of Geophysics and Planetary Physics        COMMENT
SIO - Scripps Institution of Oceanography                   COMMENT
UCSD - University of California, San Diego                  COMMENT
                                                            COMMENT
email: archive@gpsmail.ucsd.edu                             COMMENT
ftp://garner.ucsd.edu                                       COMMENT
http://sopac.ucsd.edu                                       COMMENT
                                                            COMMENT
                                                            COMMENT
Approximate Lat, Lon : 38.998, -123.357                     COMMENT
                                                            COMMENT
SNR is mapped to RINEX snr flag value [0-9]                 COMMENT
L1 & L2: 2-19 dBHz = 1, 20-27 dBHz = 2, 28-31 dBHz = 3      COMMENT
32-35 dBHz = 4, 36-38 dBHz = 5, 39-41 dBHz = 6              COMMENT
42-44 dBHz = 7, 45-48 dBHz = 8, >= 49 dBHz = 9              COMMENT
  2004     9    14    15     0    0.0000000     GPS         TIME OF FIRST OBS
                                                            END OF HEADER
 04  9 14 15  0  0.0000000  0  5G 1G11G14G22G25
   -149901.13059    -98533.58656  21712757.8204   21712756.3404
      3108.8754
   -123653.32259    -82316.17757  21641964.0314   21641961.3634
      2567.0784
     56472.56359     31639.45357  21418284.4384   21418282.3284
     -1213.1564
     63177.78058     36070.50054  23240442.3674   23240439.7504
     -1351.6254
   -153786.07859   -104328.19457  21560139.3914   21560137.6724
      3215.1884
 04  9 14 15  0 15.0000000  0  5G 1G11G14G22G25
   -196376.88049   -134748.43846  21703913.5234   21703912.5164
      3087.3594
   -161983.71749   -112184.01747  21634670.1644   21634667.2814
      2543.1414
     74816.43249     45933.36647  21421775.2034   21421772.7734
     -1233.2344
     83586.43948     51973.33544  23244325.6884   23244322.8324
     -1370.0474
   -201845.36549   -141776.97947  21550994.0164   21550992.2704
      3192.1884
 04  9 14 15  0 30.0000000  0  7G 1G11G14G15G19G22G25
   -242512.98049   -170698.64846  21695134.0394   21695133.0164
      3063.7344
   -199937.41749   -141758.34047  21627447.4694   21627444.7664
      2517.0004
     93477.25749     60474.25947  21425326.2194   21425324.2584
     -1255.2504
    111713.63557     70859.89952  23771256.9064   23771257.3484
     -2876.0474
     68483.79857     41809.22154  23749980.6564   23749977.7344
     -1773.4374
    104287.96148     68104.34944  23248265.3754   23248262.5514
     -1390.5474
   -249542.10649   -178943.27147  21541917.3674   21541916.2274
      3166.9844
 04  9 14 15  0 45.0000000  0  7G 1G11G14G15G19G22G25
   -288281.39149   -206362.34746  21686424.8134   21686423.5944
      3038.4534
   -237486.22949   -171017.16747  21620302.3134   21620299.5784
      2489.2814
    112482.77949     75283.73647  21428942.5314   21428940.6024
     -1279.0164
    155017.93247    104603.45543  23779498.1484   23779497.7074
     -2898.1874
     95252.71347     62668.07544  23755074.5864   23755071.8914
     -1795.9224
    125310.39848     84485.44444  23252265.5634   23252262.7274
     -1412.7034
   -296847.98349   -215804.98547  21532915.2974   21532914.0394
      3140.2034
 04  9 14 15  1  0.0000000  0  7G 1G11G14G15G19G22G25
   -333670.66049   -241730.62547  21677787.7814   21677786.2974
      3013.0784
   -274618.52249   -199951.43147  21613236.5004   21613233.7274
      2461.4224
    131844.17849     90370.52347  21432627.3834   21432625.6374
     -1302.8124
    198655.95546    138607.07142  23787800.9454   23787802.1884
     -2920.5164
    122360.79747     83791.21844  23760232.8834   23760230.3984
     -1818.6254
    146665.09348    101125.41544  23256329.0164   23256326.9224
     -1434.9844
   -343751.42849   -252353.12147  21523990.2814   21523988.7664
      3113.2814
 04  9 14 15  1 15.0000000  0  7G 1G11G14G15G19G22G25
   -378672.22849   -276796.77547  21669224.2194   21669222.8754
      2987.2814
   -311325.62649   -228554.36947  21606251.1484   21606248.2664
      2433.0784
    151569.74049    105741.07347  21436380.9774   21436379.0634
     -1327.0474
    242635.97446    172877.11942  23796170.2584   23796171.3364
     -2943.4064
    149816.01847    105184.87243  23765457.7034   23765454.0274
     -1841.7344
    168360.52448    118030.90844  23260457.8674   23260455.4694
     -1457.5944
   -390243.52849   -288580.71947  21515143.1094   21515141.2074
      3085.8594
 04  9 14 15  1 30.0000000  0  8G 1G11G14G15G19G22G25G20
   -423284.13249   -311559.30547  21660734.4454   21660733.8284
      2961.2664
   -347605.22349   -256824.20547  21599347.4844   21599344.5124
      2404.5004
    171661.19049    121396.73347  21440204.2114   21440201.9414
     -1351.5314
    286959.59046    207414.93742  23804605.1024   23804606.2074
     -2966.2974
    177619.91047    126850.20543  23770748.6174   23770745.1954
     -1865.0944
    190398.65048    135203.43444  23264651.3594   23264649.3284
     -1480.6254
   -436322.10449   -324486.09747  21506374.5084   21506373.4344
      3058.2504
   -145846.15157   -104900.82752  24141359.0474   24141355.9104
      3751.8914
 04  9 14 15  1 45.0000000  0  8G 1G11G14G15G19G22G25G20
   -467513.23149   -346023.54047  21652318.0784   21652316.9534
      2936.2034
   -383464.25849   -284766.31147  21592523.5474   21592521.0744
      2376.9844
    192111.25249    137331.82847  21444095.7584   21444093.9344
     -1374.9844
    331619.62846    242214.92443  23813103.5394   23813104.5634
     -2988.1564
    205765.22147    148781.58243  23776104.9774   23776101.1454
     -1887.3914
    212772.42448    152637.51544  23268908.8204   23268907.2194
     -1502.3594
   -481993.86049   -360074.47647  21497683.4224   21497682.0354
      3031.5474
   -201974.36847   -148637.12142  24130678.9924   24130675.8404
      3732.1724
 04  9 14 15  2  0.0000000  0  8G 1G11G14G15G19G22G25G20
   -511370.94549   -380198.37647  21643972.5474   21643971.4804
      2911.5784
   -418913.89149   -312389.41447  21585778.1024   21585775.1024
      2349.8134
    212908.18249    153537.21447  21448053.3444   21448051.6804
     -1397.9064
    376604.31346    277267.86443  23821664.3364   23821665.0394
     -3009.7344
    234240.10847    170969.75344  23781523.1954   23781519.7704
     -1909.1874
    235470.48448    170324.28244  23273228.3204   23273225.4734
     -1523.8754
   -527269.94849   -395354.52847  21489067.8134   21489066.4264
      3005.3444
   -257810.82247   -192146.01443  24120053.4924   24120051.0704
      3712.7664
 04  9 14 15  2 15.0000000  0  8G 1G11G14G15G19G22G25G20
   -554867.18449   -414091.55547  21635695.3364   21635694.2504
      2888.2034
   -453963.88049   -339701.10547  21579107.9144   21579105.3364
      2323.8134
    234041.88649    170005.01647  21452075.1254   21452072.7114
     -1419.6564
    421903.42946    312565.84142  23830283.8054   23830285.0514
     -3029.8594
    263034.21947    193406.68144  23787002.1644   23786998.8404
     -1929.7814
    258482.81848    188255.92344  23277607.4384   23277605.3594
     -1544.1094
   -572160.18249   -430333.92047  21480525.5394   21480523.4924
      2980.3284
   -313365.39647   -235435.31842  24109482.0704   24109480.0354
      3694.7194
 04  9 14 15  2 30.0000000  0  8G 1G11G14G15G19G22G25G20
   -598016.53249   -447714.42547  21627484.3834   21627483.5234
      2865.3594
   -488628.67549   -366712.64047  21572511.4774   21572508.8834
      2298.4064
    255497.57649    186723.71947  21456157.7194   21456155.8364
     -1440.8914
    467502.03546    348097.12142  23838961.8834   23838961.9844
     -3049.5944
    292132.55547    216080.69444  23792539.7034   23792536.6804
     -1949.7194
    281794.83748    206421.10044  23282043.5314   23282041.5164
     -1563.8914
   -616678.78149   -465023.73047  21472053.9384   21472052.4844
      2955.7344
   -368652.60047   -278516.25143  24098960.9614   24098959.0314
      3677.1414
 04  9 14 15  2 45.0000000  0  8G 1G11G14G15G19G22G25G20
   -640831.06449   -481076.39347  21619337.1644   21619335.9494
      2843.6564
   -522920.22849   -393433.34547  21565986.3914   21565983.2774
      2274.1414
    277262.71749    203683.55647  21460299.8364   21460297.8794
     -1460.8594
    513387.67946    383852.13142  23847693.8834   23847694.0124
     -3068.1724
    321522.52547    238981.95544  23798132.4694   23798129.9454
     -1968.5164
    305394.41648    224810.35044  23286534.8364   23286532.0514
     -1582.3444
   -660837.69149   -499433.26747  21463650.3914   21463648.8324
      2932.4224
   -423684.51747   -321398.28842  24088488.8834   24088486.3284
      3660.8284
 04  9 14 15  3  0.0000000  0  8G 1G11G14G15G19G22G25G20
   -683324.28449   -514188.00147  21611250.6174   21611249.7854
      2822.0474
   -556851.71149   -419873.46547  21559529.1024   21559526.6174
      2249.9224
    299323.76949    220873.97047  21464497.8914   21464495.9534
     -1480.7504
    559546.62746    419820.08542  23856476.8054   23856477.7664
     -3086.6414
    351190.28347    262099.64144  23803778.4614   23803775.1684
     -1987.3754
    329268.06948    243413.17444  23291078.1174   23291075.0634
     -1600.8124
   -704650.15849   -533572.84347  21455313.2114   21455311.8794
      2909.1724
   -478474.48647   -364091.76042  24078062.7664   24078060.3714
      3644.4064
 04  9 14 15  3 15.0000000  0  8G 1G11G14G15G19G22G25G20
   -725506.29949   -547057.10747  21603224.1174   21603222.6484
      2802.6094
   -590433.04349   -446040.74947  21553138.8284   21553136.1994
      2227.9064
    321670.18849    238286.75047  21468750.2274   21468747.8954
     -1498.4844
    605968.49246    455992.87042  23865310.5554   23865312.0944
     -3102.6874
    381125.37847    285425.64644  23809474.9144   23809472.4614
     -2003.7504
    353405.62348    262221.60444  23295670.4224   23295668.2034
     -1617.1414
   -748126.04549   -567450.15447  21447040.1254   21447038.5664
      2888.0164
   -533032.63447   -406604.61842  24067680.6254   24067678.2774
      3630.3134
 04  9 14 15  3 30.0000000  0  8G 1G11G14G15G19G22G25G20
   -767397.03949   -579699.24647  21595252.2584   21595251.0864
      2783.0784
   -623684.04749   -471950.63047  21546811.5164   21546808.8674
      2205.7344
    344281.79749    255906.16747  21473053.0004   21473050.7854
     -1516.2504
    652632.99346    492354.76342  23874191.1564   23874191.6024
     -3118.9224
    411307.43047    308944.09544  23815218.3834   23815215.5044
     -2020.2974
    377787.13748    281220.14644  23300310.0634   23300308.4844
     -1633.5164
   -791285.04249   -601080.53647  21438827.3834   21438825.6724
      2866.8444
   -587378.77647   -448952.27542  24057337.9454   24057336.9574
      3616.0944
 04  9 14 15  3 45.0000000  0  8G 1G11G14G15G19G22G25G20
   -809001.11349   -612117.98947  21587335.3754   21587334.1294
      2764.2974
   -656609.26249   -497606.64847  21540546.0004   21540543.1524
      2184.3134
    367153.74249    273728.45047  21477405.3524   21477403.6884
     -1533.2814
    699535.18446    528901.88742  23883116.3054   23883116.6564
     -3134.5164
    441731.40447    332651.07544  23821007.7664   23821005.5514
     -2036.1724
    402407.83048    300405.09044  23304995.5084   23304993.7304
     -1649.1094
   -834131.54849   -634467.42847  21430674.2664   21430672.3404
      2846.2034
   -641517.54547   -491138.32342  24047036.6094   24047034.6604
      3602.5784
 04  9 14 15  4  0.0000000  0  8G 1G11G14G15G19G22G25G20
   -850326.85449   -644319.86947  21579471.3674   21579469.7894
      2746.1094
   -689216.75549   -523015.09147  21534341.1254   21534338.2304
      2163.6414
    390277.44949    291746.90347  21481805.5944   21481803.5234
     -1549.6254
    746666.47846    565627.49042  23892084.9064   23892085.7774
     -3149.4064
    472388.48447    356539.66444  23826841.8754   23826839.3204
     -2051.2034
    427259.40448    319769.91344  23309724.7344   23309721.8284
     -1664.0624
   -876673.84149   -667617.25947  21422578.3594   21422577.0634
      2826.3134
   -695457.27847   -533169.33542  24036771.9224   24036770.3444
      3589.7814
 04  9 14 15  4 15.0000000  0  8G 1G11G14G15G19G22G25G20
   -891387.76049   -676315.39747  21571657.5164   21571656.2894
      2728.7974
   -721520.00349   -548186.46847  21528194.2894   21528191.3594
      2143.5944
    413639.02549    309950.70547  21486251.4064   21486249.3594
     -1565.1414
    794013.01546    602520.82642  23901094.8984   23901095.9494
     -3163.3284
    503264.68147    380599.00144  23832716.6644   23832714.9734
     -2065.4844
    452328.34648    339304.11544  23314495.2664   23314492.3404
     -1678.2974
   -918925.16449   -700540.35847  21414538.3444   21414536.8674
      2807.2814
   -749211.29347   -575055.56542  24026542.9844   24026541.1334
      3577.6094
 04  9 14 15  4 30.0000000  0  8G 1G11G14G15G19G22G25G20
   -932193.32349   -708111.93747  21563892.3594   21563890.8634
      2712.1884
   -753528.32149   -573128.02747  21522103.2664   21522100.3954
      2124.4064
    437228.66449    328332.22747  21490740.4144   21490738.3594
     -1579.8444
    841564.92946    639574.16042  23910142.5164   23910144.5044
     -3176.4374
    534350.16947    404821.42144  23838632.4384   23838630.4384
     -2078.9694
    477605.14148    359000.27344  23319305.5704   23319303.2384
     -1691.7194
   -960894.59049   -733243.80347  21406551.6884   21406550.2304
      2788.9384
   -802789.09947   -616804.49742  24016347.7424   24016345.0554
      3566.3914
 04  9 14 15  4 45.0000000  0  8G 1G11G14G15G19G22G25G20
   -972752.15949   -739716.22647  21556174.6024   21556173.0784
      2695.7034
   -785250.03449   -597846.25347  21516066.2344   21516064.1134
      2105.1564
    461037.62549    346884.65647  21495271.3984   21495269.1644
     -1594.6414
    889313.37746    676780.70142  23919230.5634   23919231.3484
     -3189.8754
    565635.92247    429199.89644  23844586.0234   23844584.3954
     -2092.4224
    503081.08448    378851.62444  23324153.4454   23324150.6374
     -1705.0784
  -1002590.55349   -765734.15547  21398617.2894   21398615.4454
      2770.5474
   -856199.31647   -658422.86543  24006183.7974   24006181.4574
      3555.0164
 04  9 14 15  5  0.0000000  0  8G 1G11G14G15G19G22G25G20
  -1013069.37049   -771132.22247  21548502.3204   21548501.1484
      2679.9844
   -816690.15849   -622345.05247  21510083.8674   21510081.1294
      2086.7814
    485060.59149    365603.84547  21499842.7034   21499840.5124
     -1608.4694
    937252.88346    714136.10643  23928352.4924   23928353.6214
     -3202.0164
    597116.44547    453730.14444  23850577.0234   23850574.4414
     -2105.0004
    528751.04348    398854.15144  23329038.7734   23329035.6024
     -1717.6254
  -1044018.04849   -798015.31947  21390733.5704   21390732.2814
      2753.0634
   -909446.89347   -699914.47943  23996051.3674   23996048.7304
      3544.5314
 04  9 14 15  5 15.0000000  0  8G 1G11G14G15G19G22G25G20
  -1053155.08649   -802367.85647  21540874.5474   21540872.8404
      2664.8444
   -847858.60849   -646632.17647  21504152.9304   21504149.9654
      2069.0474
    509287.12149    384481.63647  21504452.6334   21504450.6334
     -1621.6874
    985372.97446    751632.21142  23937509.6334   23937510.3244
     -3213.7664
    628781.18648    478403.92144  23856602.7114   23856600.3244
     -2116.8444
    554604.83248    418999.90844  23333958.4534   23333956.5044
     -1729.4694
  -1085186.98049   -830095.01847  21382899.6094   21382898.2384
      2736.1884
   -962541.97047   -741287.27943  23985947.9924   23985945.7154
      3534.7974
 04  9 14 15  5 30.0000000  0  7G 1G11G14G19G22G25G20
  -1093017.88949   -833429.77747  21533288.6644   21533287.5944
      2650.0164
   -878763.85549   -670714.18947  21498271.3754   21498268.4454
      2051.4694
    533708.28749    403511.11147  21509099.8524   21509097.9454
     -1634.6564
    660621.06347    503214.18044  23862661.3284   23862658.8404
     -2128.6094
    580633.74148    439282.16544  23338911.0634   23338908.9574
     -1741.1254
  -1126105.75449   -861979.76347  21375112.9534   21375111.0204
      2719.4844
  -1015493.21947   -782547.96643  23975871.7034   23975869.2624
      3525.0634
 04  9 14 15  5 45.0000000  0  7G 1G11G14G19G22G25G20
  -1132661.19949   -864320.67947  21525744.6954   21525743.4384
      2635.7194
   -909409.19049   -694593.68647  21492439.7274   21492437.0274
      2034.4694
    558320.38749    422689.35347  21513783.4304   21513781.5044
     -1647.0474
    692632.21147    528157.89444  23868753.0084   23868750.8874
     -2139.6874
    606834.39248    459698.20844  23343896.9304   23343894.8954
     -1752.3594
  -1166777.51949   -893672.04447  21367373.3134   21367371.8094
      2703.3594
  -1068303.86047   -823699.10743  23965822.3594   23965820.3054
      3516.0784
 04  9 14 15  6  0.0000000  0  7G 1G11G14G19G22G25G20
  -1172090.60849   -895044.88347  21518241.5314   21518240.2504
      2622.1724
   -939799.97349   -718274.80747  21486657.0864   21486654.2974
      2018.2974
    583117.63749    442011.87847  21518501.9614   21518500.4924
     -1658.6724
    724808.56347    553230.33844  23874876.2664   23874873.7974
     -2149.8444
    633201.12848    480243.70144  23348914.8134   23348912.1374
     -1762.6094
  -1207207.61749   -925176.00447  21359679.8444   21359677.6994
      2687.9844
  -1120979.45947   -864745.01743  23955798.0704   23955795.7584
      3507.8914
 04  9 14 15  6 15.0000000  0  7G 1G11G14G19G22G25G20
  -1211313.05249   -925607.84647  21510777.7344   21510776.6884
      2607.9694
   -969942.96049   -741762.87047  21480920.8204   21480918.0864
      2001.3444
    608092.72149    461472.95647  21523254.6884   21523253.2154
     -1670.8124
    757142.85347    578425.85544  23881029.3364   23881026.8524
     -2160.6874
    659726.94948    500913.10144  23353961.5164   23353959.4804
     -1773.5474
  -1247402.90449   -956497.00647  21352030.9774   21352029.5084
      2671.9224
  -1173526.95847   -905691.12443  23945799.0394   23945796.4774
      3498.9694
 04  9 14 15  6 30.0000000  0  7G 1G11G14G19G22G25G20
  -1250332.73949   -956012.78647  21503352.6884   21503351.6914
      2594.6414
   -999842.44049   -765061.17447  21475231.2344   21475228.5124
      1985.3134
    633241.15049    481069.12747  21528040.5704   21528038.5394
     -1682.2344
    789630.48247    603740.86144  23887211.2584   23887208.7114
     -2170.8444
    686407.60248    521703.22044  23359039.6954   23359036.5234
     -1783.7974
  -1287367.34749   -987638.11947  21344426.0084   21344424.2234
      2656.7344
  -1225950.49547   -946540.64243  23935822.6414   23935821.0634
      3490.9534
 04  9 14 15  6 45.0000000  0  7G 1G11G14G19G22G25G20
  -1289155.37149   -986264.19247  21495964.8054   21495963.8244
      2581.5004
  -1029503.80349   -788173.93847  21469586.6954   21469583.6564
      1969.3594
    658557.05649    500795.78247  21532858.1254   21532855.8714
     -1693.4224
    822265.27347    629170.52744  23893421.3914   23893418.9064
     -2180.6874
    713237.47048    542609.52944  23364144.5084   23364142.6724
     -1793.7814
  -1327106.33649  -1018603.57347  21336863.7734   21336862.0164
      2641.6564
  -1278255.83747   -987298.05343  23925869.2344   23925867.3874
      3482.9694
 04  9 14 15  7  0.0000000  0  7G 1G11G14G19G22G25G20
  -1327786.20149  -1016366.14147  21488613.7114   21488612.4734
      2569.2664
  -1058932.18749   -811105.14747  21463986.8204   21463983.6174
      1954.3914
    684034.91549    520648.65147  21537706.1884   21537704.3794
     -1703.5474
    855041.56447    654710.48243  23899657.8444   23899655.5164
     -2189.5624
    740211.11747    563627.92844  23369276.9614   23369275.6914
     -1802.6724
  -1366624.89349  -1049397.24947  21329343.6174   21329341.9964
      2627.5474
  -1330448.05647  -1027967.34142  23915937.0004   23915935.0634
      3476.0314
 04  9 14 15  7 15.0000000  0  7G 1G11G14G19G22G25G20
  -1366233.46849  -1046325.04647  21481297.5394   21481296.1214
      2557.1884
  -1088135.74149   -833861.17247  21458429.5164   21458426.7464
      1939.5944
    709666.15249    540621.04347  21542583.8834   21542582.0944
     -1713.6254
    887950.73147    680353.89743  23905921.1954   23905918.5944
     -2198.1414
    767320.32248    584751.95244  23374436.8054   23374434.1334
     -1811.6254
  -1405931.20649  -1080025.54147  21321863.9694   21321862.2274
      2613.5004
  -1382535.24747  -1068554.71142  23906025.3594   23906023.2074
      3469.2504
 04  9 14 15  7 30.0000000  0  7G 1G11G14G19G22G25G20
  -1404496.35449  -1076140.28947  21474016.5314   21474015.3094
      2544.7814
  -1117113.30349   -856441.10047  21452915.0944   21452912.4774
      1924.3284
    735451.34749    560713.37847  21547490.4694   21547488.3444
     -1724.1094
    920993.09947    706101.16143  23912209.4844   23912206.4614
     -2207.2194
    794565.83748    605982.17744  23379620.4224   23379620.2734
     -1820.8124
  -1445024.12149  -1110487.55247  21314425.1334   21314423.8554
      2599.0634
  -1434516.66846  -1109059.72943  23896133.0864   23896131.9104
      3462.0004
 04  9 14 15  7 45.0000000  0  7G 1G11G14G19G22G25G20
  -1442582.43949  -1105817.76047  21466768.9534   21466768.1454
      2533.2974
  -1145872.30549   -878850.72047  21447442.7814   21447440.1334
      1910.1724
    761382.71349    580919.62247  21552424.8984   21552423.0004
     -1733.4844
    954160.75447    731946.06743  23918520.5864   23918517.8954
     -2215.2344
    821940.07948    627312.73444  23384830.9224   23384829.0704
     -1829.1414
  -1483911.04049  -1140789.04147  21307024.9454   21307023.6844
      2585.7344
  -1486399.70847  -1149488.06243  23886260.8284   23886258.9224
      3455.6884
 04  9 14 15  8  0.0000000  0  7G 1G11G14G19G22G25G20
  -1480494.09049  -1135359.31047  21459554.6484   21459553.4494
      2521.6724
  -1174415.06049   -901091.83447  21442011.0084   21442008.6604
      1895.7194
    787457.70449    601237.79247  21557386.7734   21557385.0084
     -1743.0004
    987450.96947    757886.46143  23924854.8914   23924852.4924
     -2223.4064
    849440.61748    648741.67644  23390064.0004   23390061.6564
     -1837.5164
  -1522594.01449  -1170931.61347  21299663.7034   21299662.4184
      2572.1254
  -1538186.74947  -1189841.61743  23876406.7344   23876403.8794
      3449.4384
 04  9 14 15  8 15.0000000  0  7G 1G11G14G19G22G25G20
  -1518232.37049  -1164765.76047  21452373.3914   21452371.6214
      2510.2664
  -1202742.49949   -923165.17047  21436620.6884   21436618.2194
      1881.4694
    813674.79849    621666.68747  21562375.8134   21562374.1764
     -1752.4374
   1020862.22547    783921.14343  23931213.6484   23931210.8634
     -2231.3594
    877066.37048    670268.19944  23395321.9454   23395318.8364
     -1845.7504
  -1561074.01349  -1200916.01647  21292341.4144   21292339.8594
      2558.7194
  -1589878.89247  -1230121.19743  23866569.5084   23866567.6604
      3443.1414
 04  9 14 15  8 30.0000000  0  7G 1G11G14G19G22G25G20
  -1555801.48849  -1194040.41747  21445223.9144   21445222.0434
      2499.1254
  -1230858.69049   -945073.89947  21431270.2894   21431267.8324
      1867.5314
    840029.59249    642202.86947  21567390.8914   21567389.1414
     -1761.4534
   1054389.80748    810046.50143  23937593.1644   23937590.7114
     -2238.8594
    904813.10048    691888.97444  23400600.6724   23400598.3634
     -1853.6874
  -1599355.02049  -1230745.35847  21285056.7424   21285054.8164
      2545.5944
  -1641480.26346  -1270330.05443  23856749.8364   23856748.6604
      3437.1564
 04  9 14 15  8 45.0000000  0  7G 1G11G14G19G22G25G20
  -1593204.07549  -1223185.28747  21438106.3834   21438104.9654
      2487.9224
  -1258766.08649   -966819.92447  21425959.7814   21425957.3484
      1853.5004
    866519.11849    662844.04847  21572431.8054   21572429.8204
     -1770.5164
   1088030.74147    836260.19243  23943995.6414   23943992.0514
     -2246.5314
    932678.12448    713601.94444  23405903.2814   23405900.7974
     -1861.6414
  -1637439.41449  -1260421.51247  21277809.4224   21277808.0864
      2532.4224
  -1692993.39247  -1310470.15843  23846947.4694   23846945.0744
      3431.3284
 04  9 14 15  9  0.0000000  0  7G 1G11G14G19G22G25G20
  -1630441.94349  -1252201.79747  21431019.9534   21431018.9264
      2477.1254
  -1286466.30149   -988404.52647  21420688.4614   21420686.0434
      1839.8284
    893141.41249    683588.68347  21577497.7664   21577495.8834
     -1779.1414
   1121782.69247    862560.37843  23950418.8524   23950415.4304
     -2253.7504
    960659.52248    735405.59444  23411228.6094   23411225.8794
     -1869.2034
  -1675328.91449  -1289945.78747  21270599.3754   21270597.7274
      2519.6254
  -1744420.08847  -1350542.91043  23837161.4224   23837158.9614
      3425.7814
 04  9 14 15  9 15.0000000  0  7G 1G11G14G19G22G25G20
  -1667519.44649  -1281093.35747  21423964.8134   21423963.7584
      2466.5944
  -1313963.57349  -1009830.97547  21415456.3054   21415453.2234
      1826.4534
    919891.74249    704433.08247  21582588.3444   21582586.3554
     -1787.5474
   1155641.05547    888943.48443  23956861.1094   23956858.1294
     -2260.7194
    988753.01148    757296.56844  23416573.2974   23416572.1054
     -1876.5624
  -1713027.61849  -1319321.39347  21263425.3914   21263424.2464
      2507.0004
  -1795764.59247  -1390551.60643  23827391.2584   23827387.9614
      3420.3754
 04  9 14 15  9 30.0000000  0  7G 1G11G14G19G22G25G20
  -1704438.83349  -1309861.71847  21416938.9304   21416937.4884
      2456.1414
  -1341260.13649  -1031101.03747  21410262.1414   21410259.0944
      1813.2194
    946767.60149    725375.29847  21587702.1724   21587700.9454
     -1795.7814
   1189603.05447    915407.35143  23963324.0944   23963321.4414
     -2267.4224
   1016956.25547    779273.07944  23421941.7974   23421939.1024
     -1883.7034
  -1750537.70249  -1348550.02947  21256287.3984   21256285.9024
      2494.5314
  -1847029.14847  -1430498.00943  23817635.2424   23817632.8674
      3415.0944
 04  9 14 15  9 45.0000000  0  7G 1G11G14G19G22G25G20
  -1741201.13249  -1338507.68047  21409943.6174   21409942.1564
      2445.2194
  -1368356.68849  -1052215.24847  21405105.3754   21405102.3914
      1799.4224
    973767.92149    746414.48447  21592840.2974   21592838.5084
     -1804.4844
   1223667.32247    941950.89443  23969806.6644   23969804.0434
     -2274.6564
   1045268.12148    801334.23344  23427327.6724   23427326.6414
     -1891.4534
  -1787859.74949  -1377632.15147  21249185.2814   21249183.9344
      2481.5314
  -1898214.61147  -1470382.76943  23807895.7274   23807892.3524
      3409.3754
 04  9 14 15 10  0.0000000  0  7G 1G11G14G19G22G25G20
  -1777806.65049  -1367031.46947  21402977.5704   21402976.6844
      2435.4384
  -1395253.35749  -1073173.70247  21399987.2814   21399984.3634
      1786.7664
   1000892.03749    767550.14247  21598002.2114   21598000.3134
     -1812.0474
   1257833.12947    968573.56043  23976307.9224   23976306.0044
     -2280.8124
   1073688.37748    823479.82644  23432736.9304   23432734.6094
     -1898.0314
  -1824993.96949  -1406567.90747  21242119.0944   21242117.2194
      2469.7034
  -1949321.20247  -1510206.09443  23798170.0394   23798167.8094
      3404.7664
 04  9 14 15 10 15.0000000  0  7G 1G11G14G19G22G25G20
  -1814260.69049  -1395437.20747  21396040.6174   21396039.6804
      2425.2814
  -1421955.37349  -1093980.46647  21394906.0634   21394903.2814
      1773.7504
   1028134.39049    788777.94347  21603186.0394   21603184.5004
     -1820.0164
   1292094.73447    995270.87743  23982828.3524   23982825.8054
     -2287.2504
   1102211.63648    845705.71044  23438164.5474   23438163.0784
     -1904.8914
  -1861945.35349  -1435361.18047  21235087.2194   21235085.9414
      2457.3754
  -2000354.25447  -1549972.10543  23788458.5864   23788456.2934
      3399.8914
 04  9 14 15 10 30.0000000  0  7G 1G11G14G19G22G25G20
  -1850564.58148  -1423725.95247  21389132.2114   21389130.7774
      2415.5164
  -1448463.87649  -1114636.44947  21389861.3364   21389858.5824
      1761.0004
   1055493.41949    810096.65547  21608392.3364   21608390.6334
     -1827.5624
   1326450.33646   1022041.43843  23989365.4694   23989362.9924
     -2293.1564
   1130836.58348    868010.81944  23443612.7194   23443609.4144
     -1911.4844
  -1898715.15048  -1464012.96047  21228089.9924   21228088.5864
      2445.5314
  -2051314.98346  -1589681.74343  23778760.7114   23778758.1804
      3395.1724
 04  9 14 15 10 45.0000000  0  7G 1G11G14G19G22G25G20
  -1886718.81548  -1451898.08947  21382252.2034   21382250.7304
      2405.2504
  -1474779.19649  -1135141.90347  21384854.0784   21384851.0514
      1747.8914
   1082968.39849    831505.71147  21613620.6094   21613618.5004
     -1835.5944
   1360899.27146   1048884.72043  23995921.1254   23995918.3524
     -2299.6254
   1159562.71848    890394.75943  23449078.7664   23449075.3984
     -1918.5944
  -1935303.61648  -1492523.44447  21221127.6884   21221126.4344
      2433.0784
  -2102203.78346  -1629335.33643  23769076.9774   23769074.8134
      3390.0474
 04  9 14 15 11  0.0000000  0  7G 1G11G14G19G22G25G20
  -1922724.95348  -1479954.82347  21375400.5314   21375398.9614
      2395.5164
  -1500902.85349  -1155497.99647  21379882.7114   21379880.2774
      1735.2814
   1110557.49349    853003.70447  21618870.7584   21618869.2734
     -1842.9534
   1395439.39746   1075799.04543  24002493.5634   24002490.8134
     -2305.6874
   1188388.38248    912856.26544  23454564.1954   23454561.5944
     -1924.9694
  -1971712.09648  -1520893.67647  21214199.1094   21214197.8914
      2421.2664
  -2153022.21646  -1668934.11143  23759406.9534   23759404.4774
      3385.7034
 04  9 14 15 11 15.0000000  0  7G 1G11G14G19G22G25G20
  -1958588.03348  -1507900.08047  21368576.0704   21368574.6644
      2386.1094
  -1526839.66149  -1175708.50747  21374947.1884   21374944.4774
      1722.8754
   1138255.30549    874586.39547  21624141.4774   21624140.1294
     -1850.1874
   1430065.34945   1102780.28143  24009082.9064   24009079.9414
     -2311.2814
   1217308.52148    935391.37643  23460066.7894   23460064.0124
     -1931.1254
  -2007945.42648  -1549127.43547  21207304.1564   21207302.6764
      2409.7034
  -2203775.14846  -1708481.88543  23749748.5084   23749746.0124
      3381.4224
 04  9 14 15 11 30.0000000  0  7G 1G11G14G19G22G25G20
  -1994308.47048  -1535734.18947  21361779.0234   21361777.8164
      2376.8594
  -1552589.86449  -1195773.60547  21370046.9534   21370044.0354
      1710.6724
   1166061.31349    896253.40247  21629433.0314   21629430.8954
     -1857.1254
   1464776.21245   1129827.64043  24015688.1094   24015685.1524
     -2316.6874
   1246322.64448    957999.73044  23465588.5554   23465586.1294
     -1937.1874
  -2044003.82148  -1577224.88347  21200442.8914   21200441.1764
      2398.2974
  -2254462.95546  -1747978.87343  23740102.7034   23740101.1914
      3377.2664
 04  9 14 15 11 45.0000000  0  7G 1G11G14G19G22G25G20
  -2029886.14049  -1563457.05047  21355008.5704   21355007.3594
      2367.0784
  -1578153.22149  -1215693.10747  21365182.3524   21365179.6564
      1698.0164
   1193975.34849    918004.58847  21634744.4924   21634742.5474
     -1864.5004
   1499571.75546   1156941.03143  24022308.5004   24022306.6524
     -2322.5314
   1275430.91448    980681.45844  23471127.6484   23471125.6684
     -1943.6564
  -2079886.94649  -1605185.75547  21193614.5234   21193613.0274
      2386.4064
  -2305085.48246  -1787424.99443  23730469.2734   23730468.0354
      3372.6724
 04  9 14 15 12  0.0000000  0  7G 1G11G14G19G22G25G20
  -2065318.95549  -1591067.03847  21348266.0004   21348264.6684
      2357.5314
  -1603527.47249  -1235465.25147  21360353.6804   21360351.6994
      1685.4844
   1221999.30349    939841.42547  21640077.6724   21640075.9574
     -1871.7664
   1534453.67946   1184121.71543  24028947.3834   24028944.7854
     -2328.2664
   1304635.37648   1003438.14443  23476685.6564   23476683.0744
     -1950.0474
  -2115592.44149  -1633008.21147  21186819.9774   21186818.6524
      2374.5634
  -2355640.56946  -1826818.56843  23720849.7584   23720847.5204
      3368.1884
 04  9 14 15 12 15.0000000  0  7G 1G11G14G19G22G25G20
  -2100611.90949  -1618568.04647  21341550.3054   21341549.4924
      2348.2664
  -1628717.53749  -1255093.88347  21355560.3914   21355557.9024
      1673.3134
   1250127.78349    961759.70447  21645430.3594   21645428.6484
     -1878.5944
   1569416.38446   1211365.33043  24035600.6334   24035598.2664
     -2333.3444
   1333930.93847   1026265.79144  23482259.5864   23482259.1024
     -1955.9694
  -2151125.22549  -1660696.09247  21180058.1334   21180056.4104
      2363.1884
  -2406133.20746  -1866163.50643  23711241.3594   23711239.3404
      3364.2194
 04  9 14 15 12 30.0000000  0  6G 1G11G14G22G25G20
  -2135765.56549  -1645960.50347  21334860.7894   21334859.5434
      2339.1094
  -1653723.66249  -1274579.17847  21350802.0234   21350799.3094
      1661.1414
   1278360.19549    983758.97247  21650802.6564   21650800.9264
     -1885.4694
   1363317.18948   1049164.13344  23487851.5864   23487850.0234
     -1961.9374
  -2186485.51049  -1688249.55447  21173329.3204   21173328.2814
      2351.7974
  -2456563.69046  -1905459.97543  23701644.9774   23701642.9264
      3360.0944
 04  9 14 15 12 45.0000000  0  6G 1G11G14G22G25G20
  -2170778.77549  -1673243.53147  21328197.8284   21328196.5864
      2329.4694
  -1678544.74549  -1293920.29347  21346078.5554   21346075.6054
      1648.4384
   1306697.35249   1005839.85847  21656195.1174   21656193.3134
     -1892.7344
   1392795.07348   1072133.83544  23493461.6174   23493459.2934
     -1968.3284
  -2221671.97649  -1715667.56847  21166633.1564   21166631.9774
      2339.8914
  -2506930.86546  -1944707.13443  23692060.1174   23692058.3284
      3355.6254
 04  9 14 15 13  0.0000000  0  6G 1G11G14G22G25G20
  -2205654.71949  -1700419.59047  21321561.3054   21321559.8444
      2320.8444
  -1703183.76649  -1313119.53347  21341389.8674   21341387.1644
      1636.8754
   1335135.83249   1027999.70347  21661606.4534   21661604.5514
     -1898.9374
   1422361.40548   1095172.49944  23499088.1644   23499085.6454
     -1973.7344
  -2256687.61449  -1742952.47347  21159970.4144   21159968.8674
      2329.0004
  -2557237.93846  -1983907.46143  23682487.3754   23682484.4224
      3352.0944
 04  9 14 15 13 15.0000000  0  6G 1G11G14G22G25G20
  -2240396.38849  -1727491.02647  21314949.9694   21314948.2584
      2311.7034
  -1727643.66149  -1332179.19747  21336735.4534   21336732.2424
      1624.6724
   1363672.39949   1050235.97947  21667037.1414   21667035.1484
     -1905.6094
   1452013.14847   1118277.71743  23504730.2814   23504727.8094
     -1979.6254
  -2291535.25849  -1770106.48547  21153339.0864   21153337.5744
      2317.5944
  -2607487.72546  -2023063.17343  23672924.7424   23672922.2584
      3348.2814
 04  9 14 15 13 30.0000000  0  6G 1G11G14G22G25G20
  -2275001.20549  -1754455.81647  21308364.6564   21308363.6804
      2302.3134
  -1751921.57849  -1351097.05947  21332115.5234   21332112.5394
      1612.3914
   1392309.41449   1072550.52347  21672486.3204   21672484.7854
     -1912.5474
   1481752.96747   1141451.56843  23510389.8984   23510387.2344
     -1985.6414
  -2326212.26349  -1797127.53147  21146740.2344   21146739.1094
      2306.0944
  -2657677.52747  -2062172.11043  23663373.9064   23663372.0434
      3343.9384
 04  9 14 15 13 45.0000000  0  6G 1G11G14G22G25G20
  -2309470.38749  -1781314.92747  21301805.3524   21301804.4654
      2293.2194
  -1776018.50849  -1369873.89847  21327530.1174   21327527.0004
      1600.2034
   1421045.43349   1094942.21647  21677954.8834   21677953.0164
     -1919.2194
   1511579.57648   1164693.03643  23516065.7504   23516062.8954
     -1991.5314
  -2360719.48749  -1824016.26647  21140173.5634   21140172.2774
      2294.5944
  -2707808.51547  -2101235.19543  23653834.4924   23653832.5044
      3339.9064
 04  9 14 15 14  0.0000000  0  6G 1G11G14G22G25G20
  -2343805.76049  -1808069.77647  21295272.3284   21295270.4534
      2284.8284
  -1799936.24649  -1388511.10247  21322978.6724   21322975.6604
      1588.9224
   1449878.29749   1117409.37547  21683441.6094   21683439.7894
     -1925.1094
   1541491.11648   1188000.66943  23521757.6254   23521755.6954
     -1996.6414
  -2395058.57149  -1850774.00147  21133638.6804   21133637.5824
      2284.0164
  -2757882.49047  -2140253.86243  23644305.4144   23644303.3874
      3336.6884
 04  9 14 15 14 15.0000000  0  6G 1G11G14G22G25G20
  -2378009.22049  -1834721.81947  21288763.5394   21288761.9574
      2275.8134
  -1823676.54949  -1407010.04947  21318460.9844   21318458.6374
      1576.6884
   1478805.94249   1139950.38047  21688946.5704   21688944.6294
     -1931.7814
   1571485.66948   1211373.00543  23527464.8444   23527462.7734
     -2002.4844
  -2429231.12449  -1877401.95247  21127136.1954   21127135.1724
      2272.4534
  -2807901.27247  -2179229.53543  23634787.1024   23634785.5944
      3332.6564
 04  9 14 15 14 30.0000000  0  6G 1G11G14G22G25G20
  -2412080.19849  -1861270.63047  21282279.5864   21282278.4734
      2266.8594
  -1847238.70749  -1425370.18147  21313977.3054   21313974.8364
      1564.7504
   1507828.60749   1162565.43347  21694468.8204   21694467.3754
     -1938.1564
   1601563.68648   1234810.38843  23533189.3914   23533187.1884
     -2008.1254
  -2463236.56849  -1903899.70947  21120665.6334   21120664.2384
      2261.2974
  -2857864.17647  -2218161.67343  23625279.5864   23625277.4104
      3328.9224
 04  9 14 15 14 45.0000000  0  6G 1G11G14G22G25G20
  -2446020.30449  -1887717.46847  21275820.8284   21275819.3284
      2258.2814
  -1870624.12849  -1443592.60147  21309527.4144   21309524.0784
      1553.0314
   1536944.54549   1185253.15147  21700009.8204   21700007.5704
     -1944.3124
   1631723.63446   1258311.59443  23538928.0554   23538926.0314
     -2013.5314
  -2497076.08449  -1930268.16147  21114225.9384   21114224.8014
      2250.2974
  -2907772.64947  -2257051.40343  23615782.3364   23615780.6024
      3325.2974
 04  9 14 15 15  0.0000000  0  6G 1G11G14G22G25G20
  -2479829.60949  -1914062.38947  21269387.4694   21269385.6024
      2249.3914
  -1893832.78249  -1461677.26347  21305110.7734   21305108.2704
      1541.2504
   1566153.41449   1208013.31047  21705568.3524   21705566.1644
     -1950.4844
   1661965.26746   1281876.44443  23544683.2814   23544681.3364
     -2018.9224
  -2530749.75049  -1956507.35747  21107817.8674   21107816.3484
      2239.2504
  -2957626.80247  -2295898.79743  23606295.4774   23606293.2664
      3321.6884
 04  9 14 15 15 15.0000000  0  6G 1G11G14G22G25G20
  -2513508.48749  -1940305.67847  21262978.6484   21262976.8014
      2241.1094
  -1916864.92749  -1479624.39547  21300727.9844   21300725.0664
      1529.8754
   1595454.63649   1230845.41547  21711144.0554   21711142.0594
     -1956.2344
   1692288.34548   1305504.78744  23550454.1094   23550452.0904
     -2023.9534
  -2564257.69449  -1982617.43647  21101441.4694   21101440.2114
      2228.6414
  -3007426.83247  -2334703.99543  23596818.2734   23596816.3244
      3318.4384
 04  9 14 15 15 30.0000000  0  6G 1G11G14G22G25G20
  -2547059.14449  -1966449.04747  21256593.9224   21256592.5984
      2232.4384
  -1939722.57549  -1497435.55947  21296378.3204   21296375.3754
      1518.0474
   1624845.83149   1253747.62747  21716736.8204   21716734.9964
     -1962.4374
   1722690.69147   1329194.87043  23556239.3674   23556236.1524
     -2029.4064
  -2597601.85449  -2008599.90147  21095096.3054   21095094.7704
      2217.5944
  -3057174.91747  -2373468.74142  23587351.7344   23587349.6994
      3314.7814
 04  9 14 15 15 45.0000000  0  6G 1G11G14G22G25G20
  -2580480.56349  -1992491.70947  21250234.2034   21250232.4264
      2223.8754
  -1962404.60349  -1515109.88047  21292061.7114   21292059.2194
      1506.3594
   1654327.72149   1276720.52047  21722346.9144   21722345.5394
     -1968.4374
   1753173.23147   1352947.42644  23562038.9064   23562038.4184
     -2034.8124
  -2630781.25549  -2034453.98447  21088782.5554   21088781.3134
      2206.5314
  -3106869.98047  -2412192.16643  23577895.2114   23577892.8444
      3311.2034
 04  9 14 15 16  0.0000000  0  6G 1G11G14G22G25G20
  -2613775.22549  -2018435.59947  21243898.2274   21243896.7704
      2215.5944
  -1984913.27449  -1532649.11247  21287778.7114   21287775.8524
      1495.0004
   1683897.63749   1299762.00046  21727974.1174   21727971.8634
     -1974.0944
   1783733.40748   1376760.50544  23567854.6484   23567852.1414
     -2039.6564
  -2663797.97449  -2060181.30247  21082499.7424   21082498.3444
      2195.9064
  -3156514.31947  -2450876.08543  23568448.3754   23568446.5594
      3308.1414
 04  9 14 15 16 15.0000000  0  6G 1G11G14G22G25G20
  -2646944.57748  -2044281.85247  21237586.5394   21237584.9304
      2206.9844
  -2007250.04749  -1550054.39147  21283527.9614   21283525.5354
      1483.2504
   1713553.85149   1322870.72546  21733617.6334   21733615.3674
     -1980.0624
   1814369.83548   1400633.00243  23573685.5164   23573684.1804
     -2045.0784
  -2696653.24949  -2085782.80847  21076247.5004   21076245.8324
      2184.9064
  -3206109.27547  -2489521.46843  23559010.8364   23559008.9304
      3304.5004
 04  9 14 15 16 30.0000000  0  6G 1G11G14G22G25G20
  -2679988.73448  -2070030.55947  21231298.3674   21231296.6254
      2198.7814
  -2029414.85249  -1567325.67347  21279310.1094   21279307.3134
      1471.9384
   1743296.06249   1346046.45947  21739276.9844   21739274.8524
     -1985.6564
   1845082.32748   1424564.76343  23579529.8594   23579526.8794
     -2050.0474
  -2729347.00548  -2111258.46047  21070026.2664   21070024.7154
      2174.2194
  -3255654.88347  -2528128.44343  23549582.9454   23549580.3754
      3301.4064
 04  9 14 15 16 45.0000000  0  6G 1G11G14G22G25G20
  -2712906.02448  -2095680.39247  21225034.4384   21225033.5124
      2189.9384
  -2051405.83949  -1584461.51847  21275125.5314   21275123.2074
      1460.0164
   1773125.75149   1369290.35246  21744953.5004   21744951.1214
     -1991.7344
   1875872.42048   1448556.98644  23585387.9614   23585387.1094
     -2055.4534
  -2761877.40248  -2136606.81447  21063835.7344   21063834.4064
      2163.0004
  -3305149.38947  -2566695.57443  23540164.3524   23540162.4804
      3297.7194
 04  9 14 15 17  0.0000000  0  6G 1G11G14G22G25G20
  -2745698.13748  -2121232.68247  21218794.6254   21218793.3484
      2181.9534
  -2073224.53949  -1601463.10647  21270973.4694   21270971.3914
      1448.8594
   1803040.91449   1392600.86347  21750645.9924   21750644.3594
     -1997.2194
   1906738.58648   1472608.52144  23591262.3594   23591260.5394
     -2060.2504
  -2794245.93448  -2161829.04447  21057676.3674   21057674.6254
      2152.4844
  -3354594.32847  -2605224.10043  23530755.3364   23530753.8094
      3294.6564
 04  9 14 15 17 15.0000000  0  6G 1G11G14G22G25G20
  -2778366.42848  -2146688.48747  21212577.7274   21212576.2624
      2173.7814
  -2094872.26349  -1618331.47547  21266854.1094   21266851.6684
      1437.5314
   1833039.95849   1415976.72747  21756354.5704   21756352.8714
     -2002.7194
   1937679.32348   1496718.12343  23597150.0554   23597147.7704
     -2065.1724
  -2826453.87248  -2186926.12847  21051547.6414   21051545.6644
      2141.7814
  -3403991.08847  -2643715.09343  23521355.4454   23521353.0434
      3291.5784
 04  9 14 15 17 30.0000000  0  6G 1G11G14G22G25G20
  -2810908.54649  -2172045.98247  21206385.2584   21206383.7344
      2165.2034
  -2116346.50449  -1635064.65647  21262767.8754   21262765.1294
      1425.7504
   1863124.99749   1439419.60147  21762080.2584   21762078.1024
     -2008.6254
   1968696.96248   1520887.65243  23603053.0004   23603051.3324
     -2070.5164
  -2858498.54749  -2211895.99147  21045449.5634   21045448.2114
      2130.7504
  -3453337.23947  -2682166.62443  23511965.1334   23511962.8634
      3287.9384
 04  9 14 15 17 45.0000000  0  6G 1G11G14G22G25G20
  -2843326.52149  -2197306.74147  21200215.7194   21200215.0204
      2157.0474
  -2137649.17349  -1651664.14647  21258713.8524   21258711.1174
      1414.4384
   1893293.75949   1462927.71947  21767821.0004   21767819.2584
     -2014.0314
   1999789.45248   1545115.51943  23608969.3984   23608966.5664
     -2075.3444
  -2890381.81549  -2236740.09547  21039382.4694   21039380.3444
      2120.2034
  -3502634.74347  -2720580.26843  23502583.7584   23502581.9304
      3284.8914
 04  9 14 15 18  0.0000000  0  6G 1G11G14G22G25G20
  -2875623.39049  -2222473.13947  21194070.2734   21194069.3484
      2149.0164
  -2158783.18249  -1668132.22047  21254692.4224   21254689.8244
      1403.2194
   1923543.11049   1486498.61947  21773577.0554   21773575.3164
     -2019.2974
   2030953.79348   1569399.37643  23614899.7734   23614898.7584
     -2080.1094
  -2922106.64549  -2261460.73848  21033345.3134   21033343.8554
      2109.5634
  -3551886.42647  -2758958.19643  23493212.0784   23493210.3404
      3281.8444
 04  9 14 15 18 15.0000000  0  6G 1G11G14G22G25G20
  -2907799.06549  -2247545.09247  21187947.4454   21187946.3244
      2140.7814
  -2179748.30349  -1684468.67547  21250702.6174   21250700.5474
      1391.8594
   1953872.88849   1510132.20646  21779348.8284   21779346.9104
     -2024.7814
   2062190.00548   1593739.24443  23620844.3444   23620840.8524
     -2084.9694
  -2953672.60449  -2286057.58347  21027338.5634   21027337.3594
      2099.0004
  -3601092.10247  -2797300.28843  23483848.1954   23483846.2194
      3278.6724
 04  9 14 15 18 30.0000000  0  6G 1G11G14G22G25G20
  -2939850.52049  -2272520.25347  21181848.1334   21181846.8484
      2132.5634
  -2200541.24149  -1700670.97347  21246745.8914   21246743.2584
      1380.3914
   1984285.75649   1533830.53047  21785136.0164   21785134.1804
     -2030.2814
   2093501.18848   1618137.53243  23626802.4224   23626800.5204
     -2089.9064
  -2985076.53349  -2310528.17647  21021362.6024   21021360.8754
      2088.1094
  -3650248.68547  -2835604.11843  23474494.4144   23474492.7894
      3275.3594
 04  9 14 15 18 45.0000000  0  6G 1G11G14G22G25G20
  -2971779.06649  -2297399.64147  21175772.1804   21175770.7384
      2124.6254
  -2221163.39349  -1716740.18747  21242821.7424   21242819.6254
      1369.2034
   2014780.28349   1557592.48646  21790939.1174   21790937.0554
     -2035.5624
   2124885.98648   1642593.17743  23632775.3984   23632772.4414
     -2094.6094
  -3016319.56149  -2334873.38348  21015417.2114   21015415.7504
      2077.6564
  -3699357.39248  -2873870.64243  23465149.1484   23465147.1804
      3272.4534
 04  9 14 15 19  0.0000000  0  6G 1G11G14G22G25G20
  -3003589.81649  -2322187.24447  21169719.4064   21169718.0234
      2116.6724
  -2241619.47149  -1732679.99147  21238929.1644   21238926.7774
      1358.0784
   2045351.19449   1581413.94947  21796756.6484   21796754.6094
     -2040.7194
   2156339.25647   1667102.12843  23638760.1174   23638758.8874
     -2099.2344
  -3047406.54449  -2359097.00547  21009501.5394   21009500.0084
      2067.2194
  -3748423.13348  -2912103.69043  23455811.9064   23455810.4144
      3269.4534
 04  9 14 15 19 15.0000000  0  6G 1G11G14G22G25G20
  -3035281.18749  -2346881.81547  21163688.4534   21163687.4224
      2108.9384
  -2261907.90649  -1748489.16747  21235068.1334   21235065.5704
      1347.0944
   2075999.79848   1605295.97346  21802588.9224   21802587.0904
     -2045.7034
   2187862.50646   1691665.68043  23644757.3674   23644756.7894
     -2103.7504
  -3078335.76249  -2383197.69348  21003615.8134   21003613.9774
      2056.8444
  -3797444.23747  -2950301.95843  23446483.7894   23446481.6954
      3266.7664
 04  9 14 15 19 30.0000000  0  6G 1G11G14G22G25G20
  -3066852.84449  -2371483.10147  21157680.6174   21157679.5004
      2101.0314
  -2282028.13549  -1764167.26747  21231239.5944   21231236.8714
      1335.9534
   2106726.18649   1629238.59747  21808435.5474   21808434.0164
     -2050.7974
   2219456.13347   1716284.02643  23650770.7894   23650769.0434
     -2108.3914
  -3109106.57249  -2407174.94948  20997760.2734   20997758.6254
      2046.3594
  -3846420.26847  -2988465.11943  23437163.2274   23437162.0704
      3263.7814
 04  9 14 15 19 45.0000000  0  6G 1G11G14G22G25G20
  -3098306.01249  -2395992.06247  21151695.4384   21151693.6294
      2092.5474
  -2301981.49749  -1779715.35647  21227442.8834   21227439.8324
      1324.3284
   2137529.03249   1653240.78847  21814297.3984   21814295.4574
     -2056.4224
   2251118.79948   1740956.17943  23656798.3284   23656795.0164
     -2113.4694
  -3139720.05149  -2431029.61347  20991934.8754   20991933.2624
      2035.2974
  -3895352.33047  -3026593.98943  23427852.1884   23427850.0984
      3260.3594
 04  9 14 15 20  0.0000000  0  6G 1G11G14G22G25G20
  -3129637.42149  -2420406.16247  21145733.0704   21145731.5944
      2084.8134
  -2321764.49849  -1795130.69847  21223678.3524   21223675.2704
      1313.3444
   2168411.34149   1677304.90746  21820173.9614   21820172.3524
     -2061.3914
   2282853.80947   1765684.69943  23662835.9224   23662834.1644
     -2117.9064
  -3170172.83049  -2454759.05648  20986139.9064   20986138.3874
      2024.8914
  -3944237.08047  -3064686.02443  23418549.7894   23418546.9884
      3257.5634
 04  9 14 15 20 15.0000000  0  6G 1G11G14G22G25G20
  -3160850.34449  -2444727.91447  21139793.4774   21139792.0004
      2076.8754
  -2341380.12149  -1810415.59947  21219944.9694   21219942.1564
      1302.1414
   2199369.69448   1701428.29446  21826065.3134   21826063.2074
     -2066.4064
   2314657.92047   1790467.07544  23668887.9144   23668886.3404
     -2122.5944
  -3200467.96549  -2478365.63748  20980374.7344   20980373.5594
      2014.4384
  -3993077.78648  -3102743.71343  23409256.0394   23409253.6024
      3254.5634
 04  9 14 15 20 30.0000000  0  6G 1G11G14G22G25G20
  -3191944.34949  -2468957.01047  21133876.4534   21133875.2854
      2068.7814
  -2360827.87449  -1825569.70747  21216244.8444   21216242.0354
      1290.7664
   2230404.25348   1725611.05646  21831971.0314   21831969.1884
     -2071.6724
   2346531.55946   1815303.64543  23674951.9924   23674950.7464
     -2127.4224
  -3230604.71449  -2501848.81848  20974639.9304   20974638.4884
      2003.6564
  -4041873.77147  -3140766.55743  23399970.3444   23399967.5904
      3251.3914
 04  9 14 15 20 45.0000000  0  6G 1G11G14G22G25G20
  -3222916.56549  -2493091.19847  21127982.7974   21127981.4614
      2061.4224
  -2380104.87749  -1840590.74747  21212576.2974   21212573.8404
      1280.1254
   2261517.63149   1749855.23246  21837891.7894   21837889.6804
     -2076.1564
   2378477.54147   1840196.56443  23681030.6644   23681029.7894
     -2131.4064
  -3260580.13549  -2525206.27948  20968936.0784   20968934.7034
      1993.6884
  -4090622.05947  -3178752.25243  23390693.8134   23390691.0864
      3248.9224
 04  9 14 15 21  0.0000000  0  6G 1G11G14G22G25G20
  -3253774.21349  -2517136.12047  21122110.8054   21122109.5314
      2053.5944
  -2399218.04749  -1855484.14247  21208939.2894   21208936.8164
      1268.9534
   2292702.47948   1774155.10046  21843826.1804   21843824.2624
     -2081.1254
   2410488.65746   1865140.27543  23687122.6174   23687121.5434
     -2136.0474
  -3290401.19049  -2548443.46148  20963261.1804   20963259.4614
      1983.1254
  -4139329.75047  -3216706.29843  23381425.4924   23381422.2194
      3246.0784
 04  9 14 15 21 15.0000000  0  6G 1G11G14G22G25G20
  -3284510.52049  -2541086.48547  21116261.6564   21116260.4694
      2045.2504
  -2418160.53649  -1870244.51747  21205334.3524   21205331.8324
      1257.4224
   2323965.32448   1798515.75046  21849775.1564   21849773.0704
     -2086.5624
   2442571.65646   1890139.91743  23693227.6884   23693227.4414
     -2141.1724
  -3320061.03449  -2571555.01947  20957616.7424   20957615.5594
      1972.2504
  -4187989.98047  -3254623.35743  23372165.8524   23372163.0084
      3242.6724
 04  9 14 15 21 30.0000000  0  6G 1G11G14G22G25G20
  -3315131.23849  -2564946.78747  21110434.8134   21110433.3164
      2037.2344
  -2436938.04649  -1884876.36647  21201760.9924   21201758.3874
      1246.0634
   2355300.06548   1822932.40946  21855738.1954   21855736.0514
     -2091.6254
   2474720.74148   1915191.11143  23699346.2274   23699345.2624
     -2145.7034
  -3349565.27349  -2594545.33048  20952002.4924   20952001.1484
      1961.4694
  -4236608.36847  -3292507.81643  23362913.9144   23362911.0704
      3239.5634
 04  9 14 15 21 45.0000000  0  6G 1G11G14G22G25G20
  -3345629.34949  -2588711.55047  21104631.2194   21104629.6914
      2029.4694
  -2455543.40849  -1899374.05647  21198221.0164   21198218.2234
      1234.9384
   2386713.60948   1847410.48946  21861715.7194   21861714.0634
     -2096.4694
   2506942.97248   1940299.27343  23705477.8914   23705476.4304
     -2150.2344
  -3378906.68549  -2617408.76048  20946419.4454   20946417.5354
      1951.0004
  -4285177.89848  -3330354.21643  23353671.5634   23353668.8134
      3236.7034
 04  9 14 15 22  0.0000000  0  6G 1G11G14G22G25G20
  -3376012.43249  -2612386.68347  21098849.6804   21098848.0704
      2021.4384
  -2473984.12549  -1913743.45047  21194711.5314   21194708.8554
      1223.5634
   2418198.12749   1871943.86746  21867707.5004   21867705.6054
     -2101.6094
   2539230.67348   1965458.49743  23711621.5554   23711620.3794
     -2154.9374
  -3408092.79949  -2640151.18748  20940864.9304   20940863.0984
      1940.2814
  -4333705.96748  -3368168.29143  23344436.9304   23344434.3094
      3233.5474
 04  9 14 15 22 15.0000000  0  6G 1G11G14G22G25G20
  -3406278.16249  -2635970.35447  21093089.8204   21093088.6524
      2013.8444
  -2492257.63249  -1927982.56347  21191234.5084   21191231.3794
      1212.6254
   2449755.85248   1896534.29546  21873712.3444   21873710.4264
     -2106.2664
   2571586.15148   1990670.50643  23717779.6564   23717776.3984
     -2159.2344
  -3437120.90449  -2662770.48047  20935341.3754   20935340.0394
      1929.9694
  -4382190.06047  -3405948.12543  23335210.6254   23335207.3674
      3230.7664
 04  9 14 15 22 30.0000000  0  6G 1G11G14G22G25G20
  -3436425.63749  -2659461.90147  21087353.1954   21087351.6134
      2006.0944
  -2510362.99849  -1942090.64047  21187788.9384   21187786.0234
      1201.6254
   2481387.52748   1921182.33646  21879731.5234   21879729.5354
     -2111.0164
   2604010.33648   2015936.05143  23723950.6954   23723948.2074
     -2163.7034
  -3465989.91949  -2685265.81448  20929847.8914   20929846.1564
      1919.5004
  -4430629.24447  -3443692.94343  23325992.7584   23325989.6724
      3228.0634
 04  9 14 15 22 45.0000000  0  6G 1G11G14G22G25G20
  -3466450.12849  -2682857.61247  21081639.6954   21081638.1214
      1997.9384
  -2528295.31049  -1956063.86947  21184376.7034   21184373.9804
      1190.1414
   2513097.59248   1945891.47846  21885765.5944   21885764.1454
     -2116.1874
   2636507.85347   2041258.77343  23730132.8834   23730130.6804
     -2168.5164
  -3494695.04249  -2707633.43548  20924385.3444   20924383.8754
      1908.6254
  -4479018.61547  -3481398.95743  23316785.1954   23316782.2234
      3224.7344
 04  9 14 15 23  0.0000000  0  6G 1G11G14G22G25G20
  -3496361.41149  -2706165.11147  21075947.7274   21075945.9534
      1989.9844
  -2546064.18549  -1969909.76447  21180995.4774   21180992.4884
      1178.8284
   2544876.15848   1970653.97746  21891813.1884   21891811.3204
     -2121.2034
   2669069.11448   2066631.10044  23736330.8364   23736329.5354
     -2173.1564
  -3523245.83049  -2729880.79848  20918952.5474   20918950.5594
      1897.9224
  -4527367.85446  -3519073.69643  23307583.7584   23307582.4104
      3221.6414
 04  9 14 15 23 15.0000000  0  6G 1G11G14G22G25G20
  -3526156.96049  -2729382.40747  21070278.0084   21070276.5514
      1982.5004
  -2563667.11349  -1983626.34647  21177645.3524   21177642.8164
      1167.9844
   2576725.43648   1995471.58346  21897873.5704   21897872.2344
     -2125.6564
   2701696.59547   2092055.06543  23742538.6174   23742536.9144
     -2177.2814
  -3551639.64749  -2752005.83748  20913549.1724   20913547.4734
      1887.6094
  -4575674.35147  -3556715.11543  23298391.5084   23298389.0434
      3219.0314
 04  9 14 15 23 29.9990000  0  6G 1G11G14G22G25G20
  -3555830.75649  -2752504.85847  21064631.1834   21064629.9564
      1974.2194
  -2581098.70549  -1997209.40347  21174328.5504   21174325.9684
      1156.2664
   2608647.16949   2020345.64446  21903948.2614   21903946.2224
     -2130.9374
   2734392.03447   2117532.00143  23748759.8624   23748759.0384
     -2182.3594
  -3579870.25249  -2774003.70448  20908176.9254   20908175.4134
      1876.5634
  -4623930.61547  -3594317.40243  23289208.7064   23289206.7104
      3215.5004
 04  9 14 15 23 44.9990000  0  6G 1G11G14G22G25G20
  -3585389.79749  -2775537.86647  21059006.3234   21059005.1324
      1966.6884
  -2598364.15549  -2010663.01447  21171042.7844   21171040.6594
      1145.4224
   2640642.39849   2045276.98846  21910036.6674   21910035.1364
     -2135.4374
   2767156.82448   2143062.96443  23754996.3314   23754993.5894
     -2186.5314
  -3607944.36149  -2795879.62348  20902834.8314   20902833.2374
      1866.3444
  -4672146.12347  -3631887.91543  23280032.7764   23280030.9764
      3212.8594
 04  9 14 15 23 59.9990000  0  6G 1G11G14G22G25G20
  -3614830.71049  -2798478.84147  21053403.7764   21053402.6874
      1958.8284
  -2615460.87449  -2023985.13947  21167789.4014   21167787.3274
      1134.2194
   2672710.16249   2070264.84246  21916138.8474   21916136.9954
     -2140.2034
   2799990.12546   2168647.24643  23761242.7844   23761242.3584
     -2191.0944
  -3635858.48249  -2817630.87548  20897522.8864   20897521.2804
      1855.6414
  -4720315.98648  -3669422.90243  23270867.5974   23270864.6634
      3209.8914
 04  9 14 15 24 14.9990000  0  6G 1G11G14G22G25G20
  -3644153.56249  -2821327.81347  21047824.0344   21047822.7964
      1951.0314
  -2632388.75049  -2037175.69547  21164568.1904   21164565.4684
      1123.0004
   2704850.26749   2095309.06746  21922255.0974   21922253.2024
     -2144.9374
   2832891.82047   2194284.97743  23767503.2144   23767501.6984
     -2195.5624
  -3663612.40949  -2839257.31048  20892241.4174   20892239.7964
      1845.0634
  -4768440.19948  -3706922.28143  23261709.2534   23261707.2184
      3206.8914
 04  9 14 15 24 29.9990000  0  6G 1G11G14G22G25G20
  -3673359.22649  -2844085.47347  21042266.1594   21042265.1554
      1943.4224
  -2649148.41949  -2050235.18347  21161379.0654   21161376.4914
      1112.0164
   2737061.55349   2120408.75846  21928384.8784   21928382.9914
     -2149.5314
   2865861.08147   2219975.20243  23773778.6674   23773777.4524
     -2199.8914
  -3691207.01849  -2860759.60348  20886990.1594   20886988.4644
      1834.6414
  -4816519.51648  -3744386.69443  23252559.9334   23252557.9724
      3204.1414
 04  9 14 15 24 44.9990000  0  6G 1G11G14G22G25G20
  -3702450.45849  -2866753.97147  21036730.4404   21036729.1444
      1935.5944
  -2665742.69049  -2063165.79847  21158221.3624   21158218.2654
      1100.7504
   2769341.05848   2145561.60446  21934527.6594   21934525.5264
     -2154.2504
   2898895.04546   2245715.95143  23780063.7454   23780062.3274
     -2204.5474
  -3718644.77849  -2882139.66448  20881769.0504   20881767.2884
      1823.8914
  -4864556.67948  -3781818.24843  23243419.0504   23243416.7104
      3201.0634
 04  9 14 15 24 59.9990000  0  6G 1G11G14G22G25G20
  -3731422.49249  -2889329.58047  21031216.9724   21031215.6124
      1927.6094
  -2682166.69749  -2075963.73947  21155096.0424   21155093.5624
      1089.3754
   2801693.36448   2170771.18146  21940684.2304   21940682.3084
     -2159.1254
   2931998.50846   2271510.78143  23786363.9254   23786362.8974
     -2209.1254
  -3745920.80149  -2903393.71348  20876578.5504   20876576.7024
      1813.1724
  -4912546.75648  -3819213.12443  23234286.6514   23234284.4404
      3197.9694
 04  9 14 15 25 14.9990000  0  6G 1G11G14G22G25G20
  -3760280.98049  -2911816.71847  21025725.4094   21025724.4334
      1920.0474
  -2698425.99749  -2088633.32947  21152001.6514   21151999.4444
      1078.3914
   2834112.70948   2196033.00146  21946852.9564   21946851.2844
     -2163.5624
   2965165.97146   2297355.49743  23792674.4874   23792674.2574
     -2213.4694
  -3773040.48549  -2924525.92548  20871417.9954   20871416.3354
      1802.6724
  -4960495.21848  -3856575.55243  23225162.5734   23225160.5734
      3195.1254
 04  9 14 15 25 29.9990000  0  6G 1G11G14G22G25G20
  -3789026.22049  -2934215.60647  21020255.2374   21020254.2614
      1912.3594
  -2714520.61949  -2101174.60047  21148939.0734   21148937.0424
      1067.2814
   2866598.54648   2221346.62246  21953035.0654   21953032.9684
     -2168.1564
   2998396.95546   2323249.77843  23798998.6054   23798997.6874
     -2217.8914
  -3800004.07449  -2945536.52048  20866286.9334   20866285.3514
      1792.1564
  -5008402.26048  -3893905.72943  23216046.6594   23216043.9524
      3192.1884
 04  9 14 15 25 44.9990000  0  6G 1G11G14G22G25G20
  -3817651.81949  -2956521.26147  21014807.9954   21014806.4404
      1904.5634
  -2730443.99949  -2113582.43447  21145909.1444   21145906.6124
      1056.0634
   2899157.04248   2246716.87146  21959230.5194   21959228.5774
     -2172.7814
   3031698.01947   2349198.59843  23805336.8004   23805334.8314
     -2222.1874
  -3826804.90249  -2966420.27648  20861186.5654   20861184.8944
      1781.5314
  -5056261.30748  -3931198.49644  23206938.7924   23206936.4334
      3189.1884
 04  9 14 15 25 59.9990000  0  6G 1G11G14G22G25G20
  -3846161.89249  -2978736.90647  21009382.9724   21009381.7064
      1896.7814
  -2746200.32749  -2125860.10347  21142910.7374   21142908.1674
      1044.8444
   2931783.88448   2272140.35746  21965439.3704   21965437.2454
     -2177.4224
   3065064.89546   2375198.71643  23811685.0504   23811684.2224
     -2226.7034
  -3853446.85449  -2987180.23248  20856116.9484   20856115.3154
      1770.7664
  -5104076.39548  -3968456.98944  23197839.9724   23197838.0854
      3186.1564
 04  9 14 15 26 14.9990000  0  6G 1G11G14G22G25G20
  -3874556.63549  -3000862.67447  21003979.7844   21003978.5384
      1889.0474
  -2761789.62549  -2138007.61047  21139944.2304   21139941.6324
      1033.6884
   2964478.86448   2297616.95946  21971660.8864   21971659.4524
     -2182.0474
   3098497.37647   2401249.95043  23818046.6204   23818045.9914
     -2231.0624
  -3879930.10249  -3007816.52348  20851077.3944   20851076.0894
      1760.1884
  -5151847.49848  -4005681.20744  23188749.8554   23188747.0224
      3183.1564
 04  9 14 15 26 29.9990000  0  6G 1G11G14G22G25G20
  -3902837.74849  -3022899.90747  20998597.8704   20998596.6594
      1881.3594
  -2777213.52549  -2150026.24647  21137009.1364   21137006.5074
      1022.5004
   2997240.04548   2323145.14546  21977895.4564   21977893.6444
     -2186.5164
   3131993.92447   2427351.08243  23824421.1054   23824420.7614
     -2235.5164
  -3906255.99549  -3028330.19648  20846067.9404   20846066.2804
      1749.5634
  -5199576.18648  -4042872.40044  23179667.0814   23179665.0734
      3180.1884
 04  9 14 15 26 44.9990000  0  6G 1G11G14G22G25G20
  -3931002.72548  -3044846.64247  20993238.0814   20993236.7264
      1874.0314
  -2792469.37349  -2161913.92847  21134106.1204   21134103.3624
      1011.6564
   3030069.64748   2348726.62546  21984142.8554   21984140.6124
     -2190.7344
   3165556.81347   2453503.97843  23830808.7844   23830807.7454
     -2239.5004
  -3932422.03249  -3048719.30848  20841088.6594   20841086.8354
      1739.2504
  -5247259.88848  -4080028.52144  23170593.3944   23170591.4524
      3177.6564
 04  9 14 15 26 59.9990000  0  6G 1G11G14G22G25G20
  -3959051.82349  -3066703.08647  20987900.5974   20987899.2494
      1866.1094
  -2807557.31149  -2173670.77447  21131234.8624   21131232.1124
      1000.3134
   3062967.20649   2374361.07446  21990402.7454   21990401.2804
     -2195.3754
   3199185.91447   2479708.37543  23837209.0504   23837208.0974
     -2244.0944
  -3958428.26249  -3068983.90448  20836139.7844   20836138.0424
      1728.4224
  -5294898.65848  -4117149.64344  23161527.5894   23161525.6754
      3174.4844
 04  9 14 15 27 14.9990000  0  6G 1G11G14G22G25G20
  -3986987.37849  -3088471.05847  20982584.6204   20982583.6124
      1858.6564
  -2822479.54849  -2185298.51447  21128395.2844   21128392.5114
       989.3914
   3095930.26948   2400046.56046  21996675.4484   21996673.2454
     -2199.6094
   3232878.84447   2505962.61543  23843620.1284   23843617.8974
     -2248.1724
  -3984276.90549  -3089125.70648  20831221.1054   20831219.1874
      1718.0944
  -5342494.69448  -4154237.47944  23152470.4094   23152468.4094
      3171.7504
 04  9 14 15 27 29.9990000  0  6G 1G11G14G22G25G20
  -4014807.95149  -3110149.41747  20977290.3554   20977289.2844
      1850.7974
  -2837234.43649  -2196795.82847  21125587.6124   21125585.2654
       977.9694
   3128960.12948   2425784.10246  22002961.2534   22002958.9834
     -2204.3444
   3266637.01247   2532267.56243  23850044.2454   23850043.1124
     -2252.7194
  -4009966.37449  -3109143.46148  20826332.1364   20826330.7924
      1707.2194
  -5390046.44748  -4191290.78444  23143421.5734   23143419.4564
      3168.5314
 04  9 14 15 27 44.9990000  0  6G 1G11G14G22G25G20
  -4042514.63549  -3131739.03747  20972018.1594   20972016.9404
      1843.2504
  -2851823.12849  -2208163.65147  21122811.1984   21122809.2614
       967.0164
   3162055.43948   2451572.63846  22009258.5264   22009256.8624
     -2208.6094
   3300459.35347   2558622.65043  23856479.4804   23856478.5074
     -2257.0314
  -4035497.46949  -3129037.83748  20821474.1594   20821472.3784
      1696.7344
  -5437554.90448  -4228310.36044  23134380.9484   23134379.4724
      3165.7504
 04  9 14 15 27 59.9990000  0  6G 1G11G14G22G25G20
  -4070106.42449  -3153239.13147  20966767.7844   20966766.3704
      1835.6564
  -2866244.49249  -2219401.08947  21120067.0734   21120063.9834
       955.8754
   3195217.05348   2477412.84346  22015568.8864   22015567.4954
     -2212.8444
   3334346.78347   2585028.35943  23862928.9014   23862927.8824
     -2261.2504
  -4060868.98849  -3148807.84348  20816645.6984   20816644.2924
      1686.1414
  -5485018.99948  -4265295.39144  23125349.3084   23125346.7654
      3162.8594
 04  9 14 15 28 14.9990000  0  6G 1G11G14G22G25G20
  -4097583.76949  -3174650.04547  20961539.1594   20961537.9874
      1828.3444
  -2880498.87349  -2230508.40147  21117354.4724   21117352.0074
       945.0784
   3228444.33648   2503304.21646  22021891.9874   22021890.0624
     -2216.9534
   3368298.98947   2611484.58543  23869390.2064   23869387.4564
     -2265.2504
  -4086081.28749  -3168453.79148  20811848.1364   20811846.4644
      1675.9064
  -5532438.88248  -4302245.94944  23116325.3314   23116323.3824
      3160.2504
 04  9 14 15 28 29.9990000  0  6G 1G11G14G22G25G20
  -4124948.96649  -3195973.58247  20956331.5344   20956330.1244
      1820.6724
  -2894588.46749  -2241487.31747  21114673.3234   21114670.7374
       933.9384
   3261734.75948   2529244.79346  22028226.9954   22028225.0194
     -2221.3754
   3402313.52547   2637989.37343  23875861.0974   23875862.0894
     -2269.6564
  -4111136.61649  -3187977.40748  20807080.3554   20807078.7844
      1665.2664
  -5579816.75248  -4339163.77544  23107309.9174   23107307.6284
      3157.2344
 04  9 14 15 28 44.9990000  0  6G 1G11G14G22G25G20
  -4152201.28449  -3217209.16047  20951145.7764   20951144.8394
      1813.0784
  -2908512.33549  -2252337.09447  21112023.7614   21112021.2534
       922.7504
   3295088.91448   2555235.01946  22034573.6754   22034572.2304
     -2225.6564
   3436391.20148   2664543.36943  23882347.7224   23882345.7844
     -2273.9374
  -4136033.84649  -3207377.83848  20802342.4014   20802340.9804
      1654.5944
  -5627151.72748  -4376048.18944  23098302.1444   23098299.9334
      3154.2344
 04  9 14 15 28 59.9990000  0  6G 1G11G14G22G25G20
  -4179335.27149  -3238352.51547  20945982.1364   20945981.1054
      1805.1254
  -2922264.94649  -2263053.43047  21109406.5734   21109404.3044
       911.2344
   3328512.12548   2581279.06946  22040934.6364   22040932.7494
     -2230.4224
   3470537.51947   2691150.80143  23888844.5654   23888844.1474
     -2278.5784
  -4160767.47149  -3226650.78548  20797635.5814   20797634.1164
      1643.5314
  -5674438.17348  -4412894.75844  23089303.9804   23089302.2024
      3150.9224
 04  9 14 15 29 14.9990000  0  6G 1G11G14G22G25G20
  -4206355.73349  -3259407.42847  20940840.2374   20940839.0734
      1797.6094
  -2935851.07149  -2273640.03847  21106821.2694   21106818.7184
       900.2344
   3361999.42148   2607373.04346  22047306.5344   22047305.2614
     -2234.5164
   3504747.62748   2717808.05543  23895354.9334   23895352.8474
     -2282.7194
  -4185342.19849  -3245799.92848  20792959.4564   20792957.7064
      1633.0944
  -5721680.79748  -4449707.20344  23080313.4334   23080311.3744
      3148.0784
 04  9 14 15 29 29.9990000  0  6G 1G11G14G22G25G20
  -4233256.47149  -3280369.03747  20935721.1984   20935720.2764
      1789.7194
  -2949264.42449  -2284092.00747  21104269.0114   21104266.0654
       888.6414
   3395556.74148   2633521.59246  22053692.3944   22053690.5344
     -2239.2034
   3539027.77148   2744519.74943  23901879.3864   23901877.7764
     -2287.4534
  -4209751.64049  -3264820.26548  20788314.5424   20788312.9564
      1622.0784
  -5768873.16048  -4486480.48244  23071333.2844   23071331.6754
      3144.7344
 04  9 14 15 29 44.9990000  0  6G 1G11G14G22G25G20
  -4260042.54749  -3301241.29147  20930624.4334   20930623.0384
      1781.9534
  -2962509.88549  -2294413.14747  21101748.3624   21101745.9684
       877.4384
   3429178.84448   2659720.62846  22060090.6834   22060088.6634
     -2243.5944
   3573372.72348   2771282.04943  23908413.2144   23908412.3394
     -2291.7344
  -4234000.76149  -3283715.67648  20783700.0034   20783698.3354
      1611.3134
  -5816020.39848  -4523218.57244  23062361.8474   23062359.1244
      3141.7034
 04  9 14 15 29 59.9990000  0  6G 1G11G14G22G25G20
  -4286714.50049  -3322024.64447  20925548.9174   20925547.3944
      1774.2344
  -2975587.96849  -2304603.87847  21099259.6674   21099256.6124
       866.2034
   3462865.02848   2685969.58246  22066500.7064   22066499.4764
     -2247.9844
   3607782.08347   2798094.44843  23914962.2374   23914961.4724
     -2296.2814
  -4258089.83349  -3302486.39548  20779115.9644   20779114.3234
      1600.5164
  -5863122.80748  -4559921.75944  23053398.0894   23053395.9834
      3138.5314
 04  9 14 15 30 14.9990000  0  6G 1G11G14G22G25G20
  -4313272.06149  -3342718.85047  20920495.0424   20920493.7184
      1766.7034
  -2988498.24149  -2314663.84447  21096803.0034   21096800.4134
       855.1254
   3496615.48049   2712268.60846  22072923.5504   22072921.4994
     -2252.1254
   3642256.02948   2824957.22943  23921522.1204   23921520.8904
     -2300.3914
  -4282018.41049  -3321132.04448  20774562.8084   20774561.0154
      1589.9384
  -5910179.85248  -4596589.60944  23044443.6674   23044441.0624
      3135.6564
 04  9 14 15 30 29.9990000  0  6G 1G11G14G22G25G20
  -4339716.14349  -3363324.62847  20915462.6594   20915461.1204
      1758.8284
  -3001241.59849  -2324593.74447  21094378.2374   21094375.5034
       843.6254
   3530429.00248   2738616.79446  22079357.7064   22079356.4524
     -2256.7194
   3676793.69547   2851869.64544  23928094.2224   23928093.7964
     -2304.9694
  -4305787.35749  -3339653.28648  20770039.4874   20770037.6364
      1578.9224
  -5957192.45148  -4633222.80044  23035497.5814   23035495.6874
      3132.3134
 04  9 14 15 30 44.9990000  0  6G 1G11G14G22G25G20
  -4366041.79049  -3383838.11747  20910453.1834   20910452.0344
      1750.9844
  -3013812.82049  -2334389.51447  21091986.2924   21091983.6404
       832.2194
   3564310.43348   2765017.87946  22085805.3944   22085803.3084
     -2261.1414
   3711400.13048   2878835.63543  23934680.0654   23934679.2304
     -2309.5314
  -4329391.57749  -3358046.17848  20765547.6364   20765545.9374
      1567.9384
  -6004155.33548  -4669817.25344  23026560.8624   23026558.5854
      3129.1094
 04  9 14 15 30 59.9990000  0  6G 1G11G14G22G25G20
  -4392252.10649  -3404261.73447  20905465.3234   20905464.3784
      1743.3754
  -3026215.04649  -2344053.57847  21089625.9014   21089623.4094
       821.0634
   3598256.52249   2791469.37246  22092265.3624   22092263.5264
     -2265.3754
   3746072.13447   2905852.72043  23941279.4954   23941276.4334
     -2313.7974
  -4352834.08049  -3376313.04148  20761086.6904   20761085.0304
      1557.3754
  -6051071.51548  -4706375.31444  23017632.4254   23017630.7224
      3126.0944
 04  9 14 15 31 14.9990000  0  6G 1G11G14G22G25G20
  -4418342.93249  -3424592.25547  20900500.4174   20900499.0544
      1735.2664
  -3038443.92349  -2353582.59647  21087298.8084   21087296.0424
       809.3444
   3632271.25848   2817974.34346  22098738.1204   22098736.4644
     -2270.0784
   3780813.80545   2932924.09843  23947888.1284   23947889.1124
     -2318.5784
  -4376110.53149  -3394450.53948  20756657.6204   20756655.9604
      1546.0784
  -6097936.76548  -4742893.71044  23008714.8864   23008712.5464
      3122.4694
 04  9 14 15 31 29.9990000  0  6G 1G11G14G22G25G20
  -4444317.43349  -3444832.11847  20895557.8864   20895556.4604
      1727.5634
  -3050502.54349  -2362978.93747  21085004.3234   21085001.5304
       798.0164
   3666351.32948   2844530.22146  22105223.2924   22105221.3554
     -2274.4374
   3815622.05446   2960047.36943  23954513.1904   23954510.9804
     -2323.0944
  -4399223.77849  -3412460.86548  20752259.1364   20752257.3974
      1535.1884
  -6144753.94148  -4779374.60244  22999805.4644   22999803.3944
      3119.3594
 04  9 14 15 31 44.9990000  0  6G 1G11G14G22G25G20
  -4470180.41749  -3464985.08747  20890636.2374   20890634.8234
      1720.2664
  -3062395.67649  -2372246.31247  21082740.9644   21082738.3234
       787.1414
   3700491.75348   2871133.13746  22111719.4954   22111718.1284
     -2278.1724
   3850491.99545   2987218.67443  23961148.2304   23961147.4564
     -2327.0474
  -4422178.58549  -3430347.72148  20747890.8084   20747889.3664
      1524.8284
  -6191527.78448  -4815821.76544  22990904.4644   22990902.4604
      3116.5944
 04  9 14 15 31 59.9990000  0  6G 1G11G14G22G25G20
  -4495931.15749  -3485050.59247  20885735.8784   20885734.1984
      1713.0634
  -3074122.55749  -2381384.16247  21080509.1514   21080506.4644
       776.3284
   3734693.14348   2897783.55346  22118228.3554   22118226.5034
     -2282.0314
   3885424.43546   3014438.77743  23967796.3474   23967793.9684
     -2330.7504
  -4444973.85049  -3448110.26148  20743552.9564   20743550.7694
      1514.4384
  -6238257.38648  -4852234.45644  22982012.5734   22982009.8124
      3113.8594
 04  9 14 15 32 14.9990000  0  6G 1G11G14G22G25G20
  -4521565.64149  -3505025.50247  20880857.8944   20880856.3474
      1704.7344
  -3085678.97149  -2390389.16447  21078310.2764   21078307.4874
       764.3594
   3768959.14448   2924484.31246  22124748.6284   22124746.9294
     -2286.9534
   3920423.34247   3041710.58343  23974456.2064   23974454.8004
     -2335.7504
  -4467605.59049  -3465745.37848  20739246.1054   20739244.5854
      1502.9384
  -6284938.71448  -4888609.50844  22973129.7454   22973127.4444
      3110.0944
 04  9 14 15 32 29.9990000  0  6G 1G11G14G22G25G20
  -4547080.69148  -3524907.36847  20876002.6514   20876001.3904
      1697.3444
  -3097061.78748  -2399258.90947  21076144.2304   21076141.6054
       753.2974
   3803292.85448   2951237.83546  22131281.8084   22131280.3824
     -2290.9224
   3955491.88747   3069036.64242  23981129.9724   23981127.8274
     -2339.9694
  -4490070.40849  -3483250.42448  20734971.4404   20734970.1164
      1492.3594
  -6331568.35448  -4924944.30644  22964256.1514   22964253.4834
      3107.1564
 04  9 14 15 32 44.9990000  0  6G 1G11G14G22G25G20
  -4572478.77948  -3544698.08847  20871169.4644   20871168.3514
      1689.3444
  -3108273.29648  -2407995.15247  21074010.8474   21074008.6124
       741.7814
   3837691.68748   2978042.10646  22137827.9954   22137826.4724
     -2295.3594
   3990627.57746   3096415.05842  23987815.3314   23987814.0034
     -2344.5624
  -4512370.68349  -3500627.24848  20730727.7534   20730726.2844
      1481.2664
  -6378148.45048  -4961240.48544  22955391.7534   22955390.2224
      3103.7194
 04  9 14 15 32 59.9990000  0  6G 1G11G14G22G25G20
  -4597761.25449  -3564398.71847  20866358.4804   20866357.3514
      1681.7814
  -3119314.77149  -2416598.90947  21071909.5894   21071907.1474
       730.5474
   3872154.10748   3004895.91745  22144385.9954   22144384.2024
     -2299.4064
   4025829.06247   3123844.72343  23994513.4874   23994513.3584
     -2348.8754
  -4534507.62549  -3517876.81048  20726515.2304   20726513.4644
      1470.4694
  -6424680.26748  -4997499.05744  22946537.4484   22946534.9564
      3100.6254
 04  9 14 15 33 14.9990000  0  6G 1G11G14G22G25G20
  -4622927.95648  -3584009.13347  20861569.2924   20861568.3354
      1673.6094
  -3130185.90948  -2425069.94247  21069841.1204   21069838.5774
       718.7814
   3906680.14148   3031799.30946  22150956.0424   22150954.1634
     -2304.1094
   4061096.51947   3151325.83443  24001226.0814   24001223.5034
     -2353.6414
  -4556480.91449  -3534998.84848  20722333.9644   20722332.1874
      1459.1094
  -6471163.52948  -5033719.75144  22937691.9874   22937690.5694
      3096.9384
 04  9 14 15 33 29.9990000  0  6G 1G11G14G22G25G20
  -4647968.91248  -3603521.55647  20856803.8624   20856802.5584
      1665.6094
  -3140876.65148  -2433400.39247  21067806.6674   21067804.1754
       707.0314
   3941279.61748   3058759.92745  22157540.3234   22157538.8704
     -2308.7504
   4096440.05947   3178866.18643  24007951.8864   24007951.0224
     -2358.4534
  -4578280.50949  -3551985.53548  20718185.8784   20718184.1404
      1447.8754
  -6517588.08048  -5069894.75044  22928857.1284   22928855.3434
      3093.3444
 04  9 14 15 33 44.9990000  0  6G 1G11G14G22G25G20
  -4672895.67448  -3622945.01147  20852060.4014   20852059.1554
      1657.6094
  -3151398.40248  -2441599.17447  21065804.3784   21065801.8004
       695.4224
   3975940.91548   3085768.70746  22164136.4484   22164134.7454
     -2313.1724
   4131848.06946   3206456.80743  24014689.5814   24014687.2064
     -2363.0164
  -4599917.69549  -3568845.68448  20714068.3234   20714066.1714
      1436.7344
  -6563965.27748  -5106032.83144  22920032.2764   22920030.5154
      3089.8444
 04  9 14 15 33 59.9990000  0  6G 1G11G14G22G25G20
  -4697702.68548  -3642275.14547  20847340.2374   20847339.0424
      1649.3284
  -3161745.49949  -2449661.85447  21063835.2454   21063832.8274
       683.5474
   4010669.37548   3112829.82946  22170744.4724   22170743.2964
     -2317.9534
   4167326.07446   3234101.94143  24021439.8154   24021439.1244
     -2367.9224
  -4621386.75349  -3585574.81848  20709982.6904   20709980.7264
      1425.1254
  -6610289.32748  -5142129.48844  22911217.3864   22911214.8864
      3085.9534
 04  9 14 15 34 14.9990000  0  6G 1G11G14G22G25G20
  -4722387.66848  -3661510.19047  20842642.7764   20842641.6594
      1641.7194
  -3171915.92548  -2457586.86447  21061899.9334   21061897.0034
       672.2974
   4045466.99148   3139944.84446  22177366.6364   22177365.3124
     -2322.0164
   4202876.37147   3261803.40743  24028205.8784   24028203.6834
     -2372.3594
  -4642685.31949  -3602171.08748  20705929.7224   20705928.0934
      1414.3284
  -6656558.02748  -5178183.03144  22902412.4804   22902409.8194
      3082.8134
 04  9 14 15 34 29.9990000  0  6G 1G11G14G22G25G20
  -4746954.01548  -3680652.79647  20837967.7454   20837966.8704
      1633.7504
  -3181912.62849  -2465376.51847  21059997.8704   21059995.2844
       660.5314
   4080330.27348   3167111.01845  22184000.8394   22183999.5074
     -2326.5474
   4238495.51746   3289558.51943  24034982.9014   24034982.7614
     -2377.0474
  -4663816.73049  -3618637.11448  20701908.6984   20701907.2304
      1403.0474
  -6702774.42748  -5214195.80544  22893617.5894   22893616.3084
      3079.2034
 04  9 14 15 34 44.9990000  0  5G 1G11G14G25G20
  -4771399.18549  -3699700.97747  20833315.9954   20833314.5894
      1625.7344
  -3191733.08649  -2473028.82647  21058129.2844   21058127.0464
       648.8594
   4115261.73448   3194330.31545  22190647.7454   22190646.5774
     -2331.0164
  -4684778.18849  -3634970.70748  20697919.9644   20697918.0504
      1391.8914
  -6748935.88448  -5250165.78644  22884833.8234   22884831.2694
      3075.6564
 04  9 14 15 34 59.9990000  0  5G 1G11G14G25G20
  -4795722.80948  -3718654.44847  20828687.6444   20828686.0774
      1617.3754
  -3201376.79348  -2480543.42047  21056293.9804   21056291.6284
       636.8914
   4150261.40248   3221602.76646  22197308.6594   22197306.8124
     -2335.7664
  -4705569.28449  -3651171.56148  20693963.6444   20693961.5624
      1380.2664
  -6795041.93648  -5286092.57644  22876060.0894   22876058.8354
      3071.6884
 04  9 14 15 35 14.9990000  0  5G 1G11G14G25G20
  -4819928.06149  -3737515.66847  20824081.3944   20824080.3394
      1609.8914
  -3210846.93649  -2487922.75247  21054491.7374   21054489.0894
       625.7194
   4185326.01748   3248925.83145  22203981.0034   22203979.4724
     -2339.7194
  -4726192.93649  -3667241.92148  20690038.8944   20690036.7884
      1369.4694
  -6841095.41348  -5321978.40144  22867295.9874   22867294.1794
      3068.6254
 04  9 14 15 35 29.9990000  0  5G 1G11G14G25G20
  -4844012.35048  -3756282.65647  20819498.5344   20819496.7964
      1601.6884
  -3220140.78648  -2495164.72347  21052723.3704   21052720.7374
       613.8594
   4220458.07547   3276301.43045  22210666.1444   22210665.0814
     -2344.2344
  -4746646.30649  -3683179.60548  20686146.7374   20686144.9174
      1358.0474
  -6887093.54848  -5357821.10844  22858543.1674   22858540.8044
      3064.8754
 04  9 14 15 35 44.9990000  0  5G 1G11G14G25G20
  -4867976.18949  -3774955.77247  20814938.1674   20814936.7694
      1593.2974
  -3229258.70849  -2502269.61047  21050988.3004   21050985.2614
       601.7504
   4255656.90547   3303729.08145  22217364.3554   22217363.3664
     -2349.0784
  -4766929.81149  -3698984.92748  20682286.7694   20682285.1834
      1346.3134
  -6933036.69148  -5393620.96444  22849800.3474   22849798.6754
      3060.7344
 04  9 14 15 35 59.9990000  0  5G 1G11G14G25G20
  -4891816.49248  -3793532.62947  20810401.6364   20810400.7884
      1585.1414
  -3238197.66649  -2509235.03847  21049286.6124   21049283.4254
       589.8594
   4290925.39348   3331211.00746  22224075.5974   22224074.3904
     -2353.6414
  -4787040.28749  -3714655.42148  20678460.0424   20678458.3744
      1334.7974
  -6978921.68948  -5429375.50744  22841069.2694   22841066.9254
      3056.9064
 04  9 14 15 36 14.9990000  0  5G 1G11G14G25G20
  -4915534.40149  -3812014.12447  20805887.7844   20805887.0894
      1576.8134
  -3246958.60349  -2516061.75347  21047619.8314   21047617.5544
       577.7814
   4326262.27148   3358746.19346  22230800.0734   22230799.0734
     -2358.3594
  -4806978.72949  -3730191.87648  20674665.9094   20674663.7724
      1323.2664
  -7024749.42848  -5465085.43344  22832348.1054   22832346.4564
      3053.0164
 04  9 14 15 36 29.9990000  0  5G 1G11G14G25G20
  -4939123.53149  -3830395.24947  20801398.9484   20801397.6284
      1568.5314
  -3255535.19649  -2522744.81047  21045987.5734   21045985.6754
       565.8754
   4361673.69048   3386339.49245  22237539.0034   22237537.1874
     -2362.9224
  -4826738.79749  -3745589.30548  20670905.3234   20670903.4834
      1311.6884
  -7070513.40548  -5500745.67944  22823639.5424   22823636.4684
      3049.1414
 04  9 14 15 36 44.9990000  0  5G 1G11G14G25G20
  -4962592.21349  -3848682.52847  20796932.9804   20796931.4644
      1560.3444
  -3263935.60549  -2529290.60747  21044389.2224   21044386.4914
       553.8594
   4397151.36748   3413984.43045  22244290.0894   22244288.4994
     -2367.6094
  -4846328.48649  -3760853.99148  20667177.6594   20667176.1794
      1300.0944
  -7116221.86148  -5536362.65444  22814941.4094   22814939.7454
      3045.1254
 04  9 14 15 36 59.9990000  0  5G 1G11G14G25G20
  -4985936.42948  -3866872.81847  20792490.9404   20792489.9914
      1551.9064
  -3272155.72948  -2535695.91047  21042824.9014   21042822.6054
       541.7504
   4432699.08148   3441683.91945  22251054.4404   22251052.3004
     -2372.3754
  -4865743.74849  -3775982.76048  20663483.4644   20663481.7964
      1288.3284
  -7161870.46048  -5571932.99744  22806254.4404   22806252.3824
      3041.0314
 04  9 14 15 37 14.9990000  0  5G 1G11G14G25G20
  -5009154.70149  -3884964.96647  20788072.6364   20788071.3394
      1543.8594
  -3280194.08049  -2541959.56447  21041295.5974   21041292.4214
       529.9694
   4468318.08048   3469438.98145  22257832.4954   22257831.1674
     -2376.7664
  -4884982.98249  -3790974.36148  20659822.2764   20659820.4174
      1276.9844
  -7207457.57948  -5607455.44544  22797579.6364   22797577.3474
      3037.2974
 04  9 14 15 37 29.9990000  0  5G 1G11G14G25G20
  -5032250.96149  -3902962.05747  20783677.5734   20783676.3194
      1535.5314
  -3288054.47249  -2548084.54447  21039799.6054   21039797.4094
       517.9384
   4504004.36048   3497246.45545  22264623.3944   22264621.9444
     -2381.4534
  -4904049.91949  -3805831.71248  20656193.8084   20656191.4764
      1265.2344
  -7252986.96548  -5642932.88944  22788915.4644   22788914.8704
      3033.2194
 04  9 14 15 37 44.9990000  0  6G 1G11G14G23G25G20
  -5055221.24949  -3920860.99147  20779306.6204   20779305.2104
      1527.2814
  -3295732.89449  -2554067.74647  21038338.3864   21038336.2654
       505.8914
   4539761.64848   3525109.25145  22271427.8314   22271426.2964
     -2385.9844
   -131620.08656    -91082.87852  23946914.4334   23946911.1444
      3187.4064
  -4922940.42549  -3820551.59048  20652598.8624   20652596.8824
      1253.6254
  -7298454.56748  -5678362.18744  22780263.9254   22780261.4834
      3029.1724
 04  9 14 15 37 59.9990000  0  6G 1G11G14G23G25G20
  -5078066.77149  -3938662.68847  20774958.9014   20774957.8394
      1518.7344
  -3303230.38049  -2559909.94747  21036911.7694   21036909.5114
       493.7034
   4575588.72048   3553026.44545  22278245.4014   22278243.9334
     -2390.9374
   -179391.60946   -128307.51541  23937823.7534   23937820.1834
      3182.0634
  -4941655.71449  -3835134.90648  20649037.6674   20649035.7454
      1241.7034
  -7343861.31748  -5713744.04744  22771622.9644   22771621.9724
      3024.9224
 04  9 14 15 38 14.9990000  0  6G 1G11G14G23G25G20
  -5100784.95749  -3956365.15247  20770635.6984   20770634.9994
      1510.1884
  -3310544.30349  -2565609.11447  21035520.0264   21035517.9404
       481.3754
   4611488.07849   3580999.94745  22285076.8864   22285075.1324
     -2395.8284
   -227081.14746   -165468.21641  23928748.7144   23928745.1054
      3176.5474
  -4960192.90349  -3849579.46448  20645509.8314   20645508.4014
      1229.8134
  -7389204.31548  -5749076.26144  22762994.3864   22762992.3584
      3020.6724
 04  9 14 15 38 29.9990000  0  6G 1G11G14G23G25G20
  -5123378.35448  -3973970.40447  20766336.6364   20766335.2334
      1501.9694
  -3317677.20548  -2571167.22247  21034162.5814   21034160.0654
       469.3594
   4647456.92948   3609027.58745  22291921.5344   22291919.7804
     -2400.2814
   -274691.31145   -202566.97341  23919688.5814   23919684.3664
      3171.1254
  -4978554.42149  -3863887.14048  20642015.9954   20642014.3314
      1218.2034
  -7434485.94348  -5784360.66744  22754377.8624   22754374.4994
      3016.6094
 04  9 14 15 38 44.9990000  0  6G 1G11G14G23G25G20
  -5145845.94249  -3991477.60448  20762061.1124   20762060.0504
      1493.5164
  -3324627.95449  -2576583.40047  21032839.6364   21032837.4134
       457.1564
   4683496.13149   3637110.06845  22298780.3944   22298777.5584
     -2405.0784
   -322220.99845   -239603.14041  23910643.9484   23910640.2764
      3165.6884
  -4996739.07749  -3878056.99848  20638555.6754   20638553.9054
      1206.2664
  -7479705.18248  -5819596.42044  22745772.7614   22745770.6244
      3012.3914
 04  9 14 15 38 59.9990000  0  6G 1G11G14G23G25G20
  -5168183.14949  -4008883.21247  20757810.5424   20757809.6904
      1484.9844
  -3331391.94849  -2581854.05047  21031552.8234   21031550.2374
       444.9064
   4719610.28449   3665250.94845  22305652.5264   22305650.6474
     -2409.9694
   -369665.49145   -276573.01041  23901616.0344   23901612.0464
      3160.2664
  -5014742.36349  -3892085.51748  20635129.4724   20635127.9834
      1194.3594
  -7524857.23348  -5854779.83644  22737181.0504   22737178.4294
      3008.0784
 04  9 14 15 39 14.9990000  0  6G 1G11G14G23G25G20
  -5190390.91349  -4026187.96547  20753584.7224   20753583.6014
      1476.1254
  -3337970.12549  -2586979.91747  21030301.2064   21030298.5424
       432.2664
   4755798.18548   3693449.28645  22312538.3314   22312536.5424
     -2415.1094
   -417025.65844   -313476.97442  23892603.0894   23892600.3514
      3154.3914
  -5032565.03649  -3905973.32648  20631738.1984   20631736.4724
      1182.0634
  -7569942.81048  -5889911.45244  22728601.2144   22728599.3974
      3003.3914
 04  9 14 15 39 29.9990000  0  6G 1G11G14G23G25G20
  -5212467.81748  -4043390.73947  20749383.4874   20749382.1084
      1467.2504
  -3344361.10348  -2591959.90447  21029085.1754   21029082.4294
       419.5474
   4792061.05048   3721706.05045  22319439.1834   22319437.4564
     -2420.2504
   -464299.84645   -350313.98842  23883608.0654   23883603.9724
      3148.4844
  -5050205.55749  -3919719.16948  20628380.9804   20628379.6474
      1169.7974
  -7614960.37848  -5924990.07644  22720034.6904   22720032.6554
      2998.7034
 04  9 14 15 39 44.9990000  0  6G 1G11G14G23G25G20
  -5234415.60749  -4060492.90147  20745206.8784   20745205.6284
      1458.9844
  -3350566.11349  -2596794.97647  21027904.2694   21027901.9804
       407.5164
   4828397.03049   3750019.77745  22326353.0264   22326351.6164
     -2424.7974
   -511489.69145   -387085.32142  23874627.5654   23874624.5504
      3143.2034
  -5067665.41349  -3933324.24348  20625058.7924   20625057.2454
      1158.0784
  -7659911.34948  -5960016.79744  22711480.8154   22711478.8274
      2994.5944
 04  9 14 15 39 59.9990000  0  6G 1G11G14G23G25G20
  -5256235.87449  -4077495.70647  20741054.7374   20741053.2144
      1450.7974
  -3356586.98249  -2601486.57047  21026758.3704   21026755.7574
       395.5784
   4864804.41449   3778389.15645  22333281.6444   22333279.9834
     -2429.1564
   -558596.71644   -423792.12442  23865663.5264   23865660.1904
      3137.9844
  -5084946.21149  -3946789.78548  20621770.1124   20621768.7264
      1146.4224
  -7704797.29948  -5994992.86444  22702939.5974   22702937.2804
      2990.5944
 04  9 14 15 40 14.9990000  0  6G 1G11G14G23G25G20
  -5277930.83949  -4094400.87147  20736926.2374   20736925.1834
      1441.9384
  -3362425.84249  -2606036.34847  21025647.1674   21025644.8944
       382.9694
   4901280.97049   3806812.42545  22340222.5894   22340221.3514
     -2434.2814
   -605623.05545   -460435.96942  23856713.7304   23856710.8864
      3132.1094
  -5102050.03549  -3960117.43948  20618515.5424   20618513.8044
      1134.1884
  -7749620.19848  -6029919.79344  22694409.3944   22694407.0154
      2985.8914
 04  9 14 15 40 29.9990000  0  6G 1G11G14G23G25G20
  -5299497.69349  -4111206.21048  20732821.9564   20732821.0424
      1433.2344
  -3368079.74749  -2610441.99647  21024571.4564   21024569.0074
       370.4694
   4937829.23549   3835291.57345  22347178.0034   22347176.3314
     -2439.2194
   -652565.74744   -497014.67342  23847781.3314   23847777.4684
      3126.5004
  -5118974.01349  -3973304.95248  20615295.0034   20615293.1244
      1121.9844
  -7794377.00548  -6064795.23144  22685892.4804   22685890.6244
      2981.3134
 04  9 14 15 40 44.9990000  0  6G 1G11G14G23G25G20
  -5320935.90849  -4127911.30247  20728742.7924   20728741.2024
      1425.2034
  -3373548.15949  -2614703.11547  21023530.8864   21023528.1594
       358.6094
   4974449.63248   3863826.93245  22354146.7374   22354145.4684
     -2443.4374
   -699424.23645   -533527.77642  23838863.9014   23838860.6204
      3121.3134
  -5135717.41249  -3986351.74148  20612108.5974   20612107.3514
      1110.4844
  -7839067.06548  -6099618.64644  22677388.5584   22677387.0544
      2977.3754
 04  9 14 15 40 59.9990000  0  6G 1G11G14G23G25G20
  -5342251.91349  -4144521.18247  20724686.0894   20724685.1204
      1416.9064
  -3378837.43349  -2618824.63047  21022524.5894   21022521.9644
       346.5164
   5011135.56748   3892413.35545  22361127.7844   22361125.7374
     -2448.0004
   -746204.70644   -569980.12142  23829961.8864   23829958.9174
      3116.0944
  -5152286.44349  -3999262.67148  20608955.4404   20608954.0194
      1098.6564
  -7883696.54848  -6134394.86245  22668896.0344   22668893.3584
      2973.1884
 04  9 14 15 41 14.9990000  0  6G 1G11G14G23G25G20
  -5363445.53449  -4161035.68447  20720653.0894   20720652.0654
      1408.8444
  -3383947.42849  -2622806.44847  21021552.0654   21021549.5584
       334.6724
   5047887.14048   3921050.92545  22368120.8554   22368119.6904
     -2452.2974
   -792906.96645   -606371.45442  23821075.2694   23821071.8044
      3110.8754
  -5168680.90049  -4012037.55748  20605835.9954   20605834.0814
      1087.1094
  -7928265.08048  -6169123.58445  22660414.8944   22660413.0504
      2969.2034
 04  9 14 15 41 29.9990000  0  6G 1G11G14G23G25G20
  -5384517.08149  -4177455.06848  20716643.7144   20716642.2534
      1400.7344
  -3388878.46049  -2626648.82547  21020613.7374   21020611.3864
       322.8594
   5084703.92949   3949739.32345  22375126.8004   22375125.9874
     -2456.6094
   -839531.13745   -642701.99542  23812203.6364   23812199.7304
      3105.7504
  -5184900.90049  -4024676.51748  20602749.5264   20602747.4834
      1075.5314
  -7972772.79348  -6203804.93744  22651945.0814   22651943.0154
      2965.1564
 04  9 14 15 41 44.9990000  0  6G 1G11G14G23G25G20
  -5405465.14249  -4193778.23948  20712657.4094   20712656.0344
      1392.2974
  -3393628.81449  -2630350.40647  21019709.6674   21019707.3664
       310.4694
   5121587.17248   3978479.49045  22382145.3784   22382144.8704
     -2461.2814
   -886075.67045   -678970.46142  23803345.8864   23803342.3154
      3100.1564
  -5200945.12749  -4037178.50648  20599696.7454   20599694.5034
      1063.5474
  -8017218.10148  -6238437.62744  22643487.2764   22643485.8084
      2960.7504
 04  9 14 15 41 59.9990000  0  6G 1G11G14G23G25G20
  -5426290.26549  -4210005.60248  20708694.3784   20708693.2144
      1384.1724
  -3398198.97849  -2633911.58947  21018839.9014   21018837.5544
       298.5784
   5158536.20648   4007270.92045  22389176.8004   22389175.5034
     -2465.5004
   -932541.11145   -715177.31542  23794504.0814   23794500.5384
      3095.0164
  -5216813.92249  -4049543.79448  20596676.7304   20596675.1834
      1051.9694
  -8061601.27048  -6273021.91045  22635041.6834   22635039.9404
      2956.6884
 04  9 14 15 42 14.9990000  0  6G 1G11G14G23G25G20
  -5446992.11149  -4226136.90248  20704754.7064   20704754.1284
      1375.7664
  -3402588.72049  -2637332.16547  21018004.7374   21018002.4404
       286.4224
   5195551.22948   4036113.77545  22396219.9954   22396219.9404
     -2470.0474
   -978926.96246   -751322.11242  23785677.0264   23785673.3194
      3089.4844
  -5232506.73249  -4061771.95448  20593690.6514   20593688.7614
      1040.1094
  -8105921.81048  -6307557.41444  22626607.5894   22626605.0264
      2952.4064
 04  9 14 15 42 29.9990000  0  6G 1G11G14G23G25G20
  -5467569.25349  -4242171.03447  20700839.1204   20700838.1594
      1367.6414
  -3406796.56649  -2640611.02047  21017203.7374   21017201.5114
       274.4384
   5232633.55048   4065009.07945  22403276.9804   22403276.0504
     -2474.3594
  -1025231.66246   -787403.70743  23776866.2694   23776862.2334
      3084.2814
  -5248022.00649  -4073861.78147  20590737.7924   20590736.1084
      1028.4534
  -8150178.17748  -6342042.89045  22618185.9334   22618183.7764
      2948.3134
 04  9 14 15 42 44.9990000  0  6G 1G11G14G23G25G20
  -5488020.21249  -4258106.85547  20696947.6834   20696946.4334
      1359.4694
  -3410820.87249  -2643746.84947  21016438.0344   21016435.7184
       262.4534
   5269784.63248   4093957.94245  22410347.4174   22410345.2574
     -2478.7344
  -1071453.58247   -823420.80443  23768070.3084   23768066.2654
      3078.9534
  -5263358.17049  -4085812.03548  20587819.4724   20587817.6514
      1016.7034
  -8194368.65448  -6376477.03245  22609776.8624   22609774.9834
      2944.0784
 04  9 14 15 42 59.9990000  0  6G 1G11G14G23G25G20
  -5508349.93949  -4273948.19448  20693078.9724   20693078.1834
      1351.4064
  -3414666.58849  -2646743.51547  21015706.2924   21015703.8944
       250.5944
   5306999.26049   4122956.34245  22417428.7694   22417426.9564
     -2482.9224
  -1117597.67347   -859377.27943  23759288.8474   23759285.3824
      3073.8594
  -5278520.05349  -4097626.48047  20584934.2844   20584932.7694
      1005.1564
  -8238498.03648  -6410863.56545  22601379.1364   22601377.3904
      2940.0164
 04  9 14 15 43 14.9990000  0  6G 1G11G14G23G25G20
  -5528557.57249  -4289694.39948  20689233.9094   20689232.3824
      1343.0784
  -3418332.62449  -2649600.18047  21015008.4954   21015005.9804
       238.4534
   5344278.23749   4152004.87545  22424522.4254   22424521.2374
     -2487.4064
  -1163662.88847   -895272.23243  23750523.0034   23750519.2024
      3068.4384
  -5293506.77649  -4109304.43648  20582082.6674   20582080.4444
       993.3134
  -8282565.18347  -6445201.60145  22592993.0974   22592992.2534
      2935.7504
 04  9 14 15 43 29.9990000  0  6G 1G11G14G23G25G20
  -5548644.74849  -4305346.74448  20685411.0504   20685409.7304
      1335.3594
  -3421820.72049  -2652318.18547  21014344.8234   21014342.5624
       226.8284
   5381619.78348   4181102.17045  22431628.9404   22431626.7064
     -2491.2664
  -1209650.71747   -931106.95443  23741771.8084   23741767.9834
      3063.5164
  -5308319.74349  -4120846.99548  20579263.6984   20579261.9644
       981.9844
  -8326571.49248  -6479492.23445  22584619.2304   22584618.1164
      2931.9844
 04  9 14 15 43 44.9990000  0  6G 1G11G14G23G25G20
  -5568610.09449  -4320904.15647  20681612.1754   20681610.5774
      1326.9064
  -3425129.58049  -2654896.52947  21013715.5814   21013712.9724
       214.5634
   5419025.20348   4210249.23245  22438746.6444   22438744.7654
     -2495.8124
  -1255559.78647   -966880.22443  23733035.4874   23733032.3554
      3057.9534
  -5322957.53249  -4132253.05948  20576478.1054   20576476.2414
       969.9694
  -8370515.39948  -6513734.23145  22576257.3944   22576255.7614
      2927.4224
 04  9 14 15 43 59.9990000  0  6G 1G11G14G23G25G20
  -5588453.67049  -4336366.68048  20677835.7764   20677834.6084
      1318.8134
  -3428259.06249  -2657335.10247  21013119.8004   21013117.7304
       202.5944
   5456494.34449   4239445.95145  22445876.3554   22445874.8394
     -2500.0784
  -1301389.92847  -1002592.03243  23724314.3624   23724311.2924
      3052.7664
  -5337420.07249  -4143522.57748  20573726.0114   20573724.2574
       958.3134
  -8414396.75248  -6547927.50645  22567907.1204   22567905.1944
      2923.3284
 04  9 14 15 44 14.9990000  0  6G 1G11G14G23G25G20
  -5608175.81249  -4351734.58448  20674082.5504   20674081.2654
      1311.1094
  -3431209.39249  -2659634.06847  21012558.3784   21012556.5854
       191.1094
   5494026.63348   4268691.86644  22453018.5034   22453017.1014
     -2503.9224
  -1347141.34747  -1038242.49243  23715608.3234   23715605.0694
      3047.8594
  -5351707.56749  -4154655.68348  20571007.1984   20571005.3974
       947.0314
  -8458215.65548  -6582072.10645  22559568.2614   22559566.6554
      2919.5784
 04  9 14 15 44 29.9990000  0  6G 1G11G14G23G25G20
  -5627778.90249  -4367009.71448  20670352.3084   20670350.9874
      1302.7504
  -3433982.89349  -2661795.24747  21012030.6364   21012028.2144
       178.8914
   5531619.67848   4297985.14345  22460171.4014   22460171.1054
     -2508.3284
  -1392816.32147  -1073833.36743  23706916.2144   23706913.9684
      3042.3914
  -5365822.30949  -4165654.17948  20568321.5424   20568319.2414
       935.0784
  -8501974.34848  -6616169.78345  22551241.9014   22551239.3864
      2915.0634
 04  9 14 15 44 44.9990000  0  6G 1G11G14G23G25G20
  -5647261.40649  -4382190.88248  20666645.1284   20666643.6904
      1295.0004
  -3436577.99149  -2663817.40847  21011536.6124   21011534.6984
       167.2664
   5569274.87849   4327326.83845  22467338.1204   22467336.6014
     -2512.2344
  -1438413.10848  -1109363.35043  23698240.0584   23698236.8864
      3037.3594
  -5379762.71849  -4176516.81648  20565668.5654   20565666.7724
       923.7664
  -8545671.05748  -6650219.15945  22542926.4874   22542924.6324
      2911.1414
 04  9 14 15 44 59.9990000  0  6G 1G11G14G23G25G20
  -5666626.46249  -4397280.54247  20662959.8084   20662958.6014
      1287.2034
  -3438997.83649  -2665703.02447  21011076.3944   21011074.4334
       155.5164
   5606989.01949   4356714.44945  22474515.2924   22474513.6204
     -2516.1414
  -1483934.93348  -1144834.88343  23689577.4404   23689574.1674
      3032.4534
  -5393531.77949  -4187245.96148  20563048.3234   20563046.5154
       912.3914
  -8589308.80748  -6684222.61145  22534622.8474   22534620.1444
      2907.2664
 04  9 14 15 45 14.9990000  0  6G 1G11G14G23G25G20
  -5685870.58249  -4412275.95348  20659297.9334   20659296.4914
      1278.7034
  -3441239.00749  -2667449.40247  21010649.8624   21010647.7804
       143.2504
   5644765.36148   4386150.54245  22481703.6594   22481701.6204
     -2520.6874
  -1529378.10748  -1180245.17943  23680929.7614   23680926.8624
      3026.7814
  -5407125.84449  -4197838.72848  20560461.4334   20560459.8664
       900.2504
  -8632883.83748  -6718177.17945  22526330.2924   22526327.8744
      2902.7664
 04  9 14 15 45 29.9990000  0  6G 1G11G14G23G25G20
  -5704997.39049  -4427179.96148  20655658.0974   20655656.6324
      1271.1564
  -3443305.09049  -2669059.34647  21010256.6284   21010254.0974
       131.8134
   5682600.25848   4415632.24345  22488903.3234   22488901.5114
     -2524.3444
  -1574746.19448  -1215596.94443  23672296.2304   23672293.1404
      3021.9224
  -5420548.59649  -4208298.00148  20557907.4254   20557905.6244
       889.0944
  -8676399.61848  -6752085.58545  22518049.6904   22518047.4334
      2898.9694
 04  9 14 15 45 44.9990000  0  6G 1G11G14G23G25G20
  -5724006.08249  -4441991.92048  20652041.0034   20652039.5224
      1263.4534
  -3445195.18549  -2670532.15847  21009896.8474   21009894.4834
       120.3134
   5720494.33049   4445160.08645  22496114.0194   22496112.6444
     -2528.0944
  -1620038.25147  -1250889.47043  23663677.0894   23663674.3784
      3017.0784
  -5433799.04149  -4218623.01648  20555385.5974   20555383.1754
       877.7664
  -8719855.12748  -6785947.01345  22509780.1364   22509778.2304
      2895.2504
 04  9 14 15 45 59.9990000  0  6G 1G11G14G23G25G20
  -5742895.96049  -4456711.30448  20648446.1284   20648444.9564
      1255.2664
  -3446908.43049  -2671867.16747  21009570.9874   21009568.6594
       108.1094
   5758448.15148   4474734.48745  22503336.6124   22503334.9254
     -2532.3444
  -1665253.45847  -1286122.10843  23655073.4404   23655070.1124
      3011.6254
  -5446876.28349  -4228813.07648  20552897.1754   20552895.3234
       865.8914
  -8763249.27448  -6819760.62245  22501522.4724   22501520.7764
      2890.7504
 04  9 14 15 46 14.9990000  0  6G 1G11G14G23G25G20
  -5761665.85649  -4471337.18948  20644874.4484   20644873.3904
      1247.5004
  -3448443.70749  -2673063.49547  21009278.9404   21009276.3904
        96.5004
   5796462.88148   4504356.33545  22510571.0504   22510569.2304
     -2536.2034
  -1710390.44347  -1321293.76543  23646484.2064   23646480.5854
      3006.6884
  -5459779.11949  -4238867.22848  20550442.2844   20550440.1084
       854.4534
  -8806580.79847  -6853525.44845  22493277.0654   22493275.3664
      2886.7814
 04  9 14 15 46 29.9990000  0  6G 1G11G14G23G25G20
  -5780317.02949  -4485870.58048  20641325.3784   20641324.4334
      1239.8914
  -3449802.19149  -2674122.07247  21009020.6284   21009017.8004
        85.1254
   5834537.12049   4534024.54844  22517816.1984   22517814.3124
     -2539.8124
  -1755450.42347  -1356405.43643  23637909.2374   23637905.4374
      3001.9694
  -5472508.75249  -4248786.42148  20548019.4804   20548017.6014
       843.3134
  -8849850.77548  -6887242.31045  22485042.8624   22485040.8004
      2883.0474
 04  9 14 15 46 44.9990000  0  6G 1G11G14G23G25G20
  -5798845.42449  -4500308.29248  20637799.7224   20637798.4914
      1231.5164
  -3450979.86749  -2675039.75947  21008796.1444   21008793.8084
        72.8754
   5872674.78949   4563742.19845  22525072.8004   22525072.0624
     -2544.2194
  -1800429.20048  -1391453.83743  23629350.4564   23629346.9214
      2996.2344
  -5485061.04049  -4258567.42948  20545631.1054   20545629.3354
       831.2814
  -8893054.87448  -6920907.85245  22476821.5894   22476819.2224
      2878.4224
 04  9 14 15 46 59.9990000  0  6G 1G11G14G23G25G20
  -5817260.78149  -4514657.92048  20634295.4874   20634293.8744
      1223.9064
  -3451986.44349  -2675824.13047  21008604.7224   21008602.3824
        61.3284
   5910866.03149   4593501.57445  22532341.4334   22532339.6014
     -2547.9224
  -1845336.43247  -1426446.49444  23620804.1984   23620801.5584
      2991.3754
  -5497445.54149  -4268217.69048  20543274.1594   20543272.6714
       819.9224
  -8936202.64548  -6954529.47045  22468610.6594   22468608.5974
      2874.6254
 04  9 14 15 47 14.9990000  0  6G 1G11G14G23G25G20
  -5835556.47249  -4528914.29848  20630813.8154   20630812.5114
      1215.6884
  -3452815.22149  -2676469.92847  21008447.1754   21008444.5034
        49.3754
   5949117.36448   4623307.80744  22539620.0194   22539618.5654
     -2552.1414
  -1890165.32047  -1461378.08844  23612274.0194   23612270.5264
      2986.0004
  -5509655.53549  -4277731.94948  20540950.6834   20540948.8904
       808.1724
  -8979287.31948  -6988101.94945  22460411.9094   22460409.6984
      2870.1724
 04  9 14 15 47 29.9990000  0  6G 1G11G14G23G25G20
  -5853732.77749  -4543077.66048  20627354.9404   20627353.8314
      1208.0314
  -3453466.36549  -2676977.33547  21008322.9254   21008320.8194
        37.7664
   5987428.48948   4653160.59144  22546909.6904   22546908.8864
     -2555.8594
  -1934916.08347  -1496248.81943  23603757.8474   23603754.4724
      2981.0164
  -5521691.26149  -4287110.44048  20538660.3394   20538658.4724
       796.8594
  -9022308.86148  -7021625.23045  22452225.0424   22452222.8084
      2866.2194
 04  9 14 15 47 44.9990000  0  6G 1G11G14G23G25G20
  -5871791.47349  -4557149.36648  20623918.6594   20623917.3944
      1200.0634
  -3453941.67949  -2677347.71847  21008232.7224   21008230.3004
        25.9064
   6025797.46248   4683058.48044  22554211.9644   22554210.4914
     -2559.7664
  -1979590.37647  -1531059.94844  23595256.8234   23595253.9724
      2975.8914
  -5533554.35649  -4296354.39548  20536402.7374   20536401.5114
       785.1884
  -9065268.84848  -7055100.54845  22444050.1364   22444047.9254
      2862.0004
 04  9 14 15 47 59.9990000  0  6G 1G11G14G23G25G20
  -5889729.01949  -4571126.66848  20620504.7694   20620503.4444
      1191.8754
  -3454237.46649  -2677578.22147  21008176.2924   21008174.1164
        13.7344
   6064227.72849   4713004.11945  22561524.9174   22561523.6324
     -2564.0314
  -2024184.45346  -1565808.57844  23586771.3704   23586766.9994
      2970.3594
  -5545241.12949  -4305460.96748  20534178.9804   20534177.1404
       773.2974
  -9108163.52248  -7088524.97545  22435887.8004   22435885.2224
      2857.4694
 04  9 14 15 48 14.9990000  0  6G 1G11G14G23G25G20
  -5907544.91349  -4585009.18448  20617114.8474   20617113.4404
      1183.8754
  -3454353.30749  -2677668.49647  21008154.0734   21008151.9764
         1.9064
   6102719.78048   4742997.89745  22568849.4094   22568848.1594
     -2568.0314
  -2068697.71847  -1600494.21143  23578300.7534   23578296.2534
      2965.0314
  -5556751.05449  -4314429.73148  20531988.5264   20531986.8514
       761.6564
  -9150992.09048  -7121897.88445  22427737.4404   22427735.8394
      2853.1254
 04  9 14 15 48 29.9990000  0  6G 1G11G14G23G25G20
  -5925243.00249  -4598799.89148  20613746.8314   20613745.8744
      1175.7344
  -3454293.08849  -2677621.57847  21008166.0584   21008163.4804
       -10.0164
   6141269.59749   4773036.72145  22576186.5424   22576184.6204
     -2572.0624
  -2113133.96446  -1635119.87543  23569845.0264   23569840.3474
      2959.7194
  -5568087.92049  -4323263.63548  20529831.0194   20529829.6444
       749.8754
  -9193758.21048  -7155222.11245  22419599.8154   22419597.7024
      2848.8134
 04  9 14 15 48 44.9990000  0  6G 1G11G14G23G25G20
  -5942819.56749  -4612495.92548  20610402.2844   20610400.9764
      1167.8284
  -3454052.91149  -2677434.44347  21008211.5654   21008208.9874
       -21.9374
   6179880.76649   4803123.31845  22583532.8864   22583531.9914
     -2576.0624
  -2157489.28846  -1669682.45343  23561404.3864   23561399.4994
      2954.3754
  -5579247.93849  -4331959.75648  20527707.5734   20527705.7334
       738.1884
  -9236458.03648  -7188494.70845  22411474.2534   22411472.0624
      2844.4844
 04  9 14 15 48 59.9990000  0  6G 1G11G14G23G25G20
  -5960275.21449  -4626097.73448  20607080.3554   20607079.0934
      1159.4534
  -3453633.37049  -2677107.54947  21008291.3314   21008289.0504
       -34.2034
   6218552.60448   4833257.20144  22590891.4644   22590890.3824
     -2580.4064
  -2201764.28346  -1704182.44743  23552979.0194   23552974.5894
      2948.6564
  -5590231.59649  -4340518.45348  20525617.4404   20525615.5544
       726.0784
  -9279091.89248  -7221715.90445  22403361.1594   22403359.0934
      2839.8284
 04  9 14 15 49 14.9990000  0  6G 1G11G14G23G25G20
  -5977609.37349  -4639604.86348  20603781.8704   20603780.4174
      1152.1094
  -3453033.94749  -2676640.46747  21008405.6754   21008402.9054
       -45.4374
   6257285.42848   4863438.60344  22598262.3864   22598261.0384
     -2583.7344
  -2245958.27346  -1738619.30143  23544568.6904   23544564.7654
      2944.0634
  -5601038.27149  -4348939.23348  20523561.2764   20523559.1874
       715.0314
  -9321659.05648  -7254885.10945  22395260.6594   22395258.9524
      2836.0784
 04  9 14 15 49 29.9990000  0  6G 1G11G14G23G25G20
  -5994829.03449  -4653022.78348  20600505.1594   20600503.7024
      1144.0164
  -3452261.70849  -2676038.73547  21008552.0894   21008550.1674
       -57.3284
   6296072.20248   4893662.05544  22605643.6754   22605641.5814
     -2587.6094
  -2290078.08646  -1772998.36043  23536173.4724   23536169.3784
      2938.9224
  -5611674.78349  -4357227.42548  20521537.1124   20521535.7804
       703.3284
  -9364166.34948  -7288007.67745  22387172.0654   22387169.5194
      2831.7814
 04  9 14 15 49 44.9990000  0  6G 1G11G14G23G25G20
  -6011927.55749  -4666346.30947  20597251.1054   20597249.9954
      1135.8594
  -3451309.81449  -2675297.01147  21008733.5654   21008731.2414
       -69.5004
   6334919.55748   4923932.70144  22613035.9484   22613034.6364
     -2591.8284
  -2334116.92647  -1807314.32843  23527792.7694   23527789.6244
      2933.3914
  -5622134.40849  -4365377.77848  20519546.5424   20519544.9914
       691.4384
  -9406606.73848  -7321078.10445  22379095.3784   22379094.0464
      2827.1414
 04  9 14 15 49 59.9990000  0  6G 1G11G14G23G25G20
  -6028902.71949  -4679573.70848  20594020.8474   20594020.1284
      1127.9844
  -3450175.98249  -2674413.52347  21008949.2374   21008947.2224
       -81.2034
   6373829.64548   4954252.23044  22620440.2374   22620438.7144
     -2595.6874
  -2378072.50947  -1841565.43244  23519428.5264   23519424.8584
      2928.0004
  -5632414.84649  -4373388.51048  20517590.3154   20517588.6554
       679.8134
  -9448977.77248  -7354094.49045  22371032.4954   22371030.5304
      2822.8444
 04  9 14 15 50 14.9990000  0  6G 1G11G14G23G25G20
  -6045764.47849  -4692712.74748  20590812.3474   20590810.9834
      1120.1884
  -3448870.34749  -2673396.15247  21009197.6054   21009195.7574
       -92.8754
   6412792.40048   4984612.80044  22627853.9174   22627853.2184
     -2599.3594
  -2421954.67347  -1875759.34044  23511078.1364   23511074.8234
      2922.9224
  -5642526.03149  -4381267.34748  20515666.2924   20515664.3824
       668.2974
  -9491289.24948  -7387064.48645  22362981.3314   22362979.1444
      2818.7194
 04  9 14 15 50 29.9990000  0  6G 1G11G14G23G25G20
  -6062506.83649  -4705758.73547  20587626.5194   20587625.3354
      1112.1724
  -3447386.76249  -2672240.12447  21009479.9954   21009477.9294
      -104.7974
   6451813.69748   5015018.98044  22635280.2694   22635278.2334
     -2603.3284
  -2465757.23846  -1909891.19144  23502743.0424   23502739.1984
      2917.6254
  -5652461.90649  -4389009.58548  20513775.4564   20513773.5624
       656.5314
  -9533534.92248  -7419983.19745  22354942.4804   22354940.3704
      2814.1884
 04  9 14 15 50 44.9990000  0  6G 1G11G14G23G25G20
  -6079130.54949  -4718712.27348  20584463.0814   20584461.6164
      1104.3754
  -3445725.98449  -2670946.02747  21009796.0114   21009794.1514
      -116.5314
   6490892.76649   5045470.17645  22642717.7924   22642715.3394
     -2607.0944
  -2509480.82047  -1943961.51644  23494422.7374   23494419.3394
      2912.3444
  -5662223.07449  -4396615.68648  20511918.1124   20511916.2694
       645.0314
  -9575715.25348  -7452850.99045  22346915.6054   22346913.2454
      2809.9844
 04  9 14 15 50 59.9990000  0  6G 1G11G14G23G25G20
  -6095636.83049  -4731574.31448  20581321.9254   20581321.0114
      1096.8594
  -3443889.15249  -2669514.73347  21010145.9094   21010143.3274
      -128.0004
   6530028.21948   5075965.31944  22650164.1284   22650162.1714
     -2610.5784
  -2553126.60948  -1977971.21944  23486117.3864   23486113.6284
      2907.5004
  -5671810.76949  -4404086.61348  20510093.4724   20510091.8704
       633.7814
  -9617831.39848  -7485668.75845  22338900.6364   22338898.6324
      2805.9694
 04  9 14 15 51 14.9990000  0  6G 1G11G14G23G25G20
  -6112027.57249  -4744346.31048  20578202.9874   20578201.8194
      1088.6564
  -3441878.04349  -2667947.64347  21010528.7454   21010526.1514
      -140.0944
   6569218.04948   5106502.84044  22657621.4404   22657619.8904
     -2614.7194
  -2596696.29147  -2011921.61144  23477825.9724   23477822.2414
      2901.9064
  -5681226.76149  -4411423.74248  20508301.5424   20508299.7654
       621.7974
  -9659884.82148  -7518437.64445  22330898.2924   22330896.4564
      2801.2974
 04  9 14 15 51 29.9990000  0  6G 1G11G14G23G25G20
  -6128301.36749  -4757027.18847  20575106.4014   20575104.8784
      1080.9224
  -3439691.35549  -2666243.76147  21010944.7064   21010942.3554
      -151.7664
   6608463.52248   5137083.69944  22665089.3704   22665088.4214
     -2618.3444
  -2640188.37447  -2045811.57144  23469549.0264   23469546.8904
      2896.8754
  -5690469.43249  -4418625.83548  20506542.6904   20506540.8904
       610.2504
  -9701873.96848  -7551156.46745  22322908.4804   22322906.5584
      2796.9844
 04  9 14 15 51 44.9990000  0  6G 1G11G14G23G25G20
  -6144454.15549  -4769613.77648  20572032.5894   20572031.2064
      1072.9844
  -3437324.93349  -2664399.79447  21011394.9014   21011392.7844
      -163.5164
   6647768.79148   5167711.16344  22672569.4174   22672567.1474
     -2622.0784
  -2683598.72047  -2079637.79044  23461288.3004   23461285.4724
      2891.5004
  -5699534.58249  -4425689.58448  20504817.9874   20504816.1014
       598.6414
  -9743794.56448  -7583821.86845  22314931.2924   22314928.9724
      2792.5634
 04  9 14 15 51 59.9990000  0  6G 1G11G14G23G25G20
  -6160490.78849  -4782109.85048  20568980.6904   20568979.5224
      1065.0784
  -3434783.67449  -2662419.60047  21011878.3864   21011876.2264
      -175.4534
   6687128.80348   5198381.28244  22680059.8944   22680057.4644
     -2625.9844
  -2726932.00447  -2113404.01244  23453043.1514   23453039.2534
      2886.1254
  -5708427.00849  -4432618.73048  20503125.8314   20503123.4914
       586.8754
  -9785651.16248  -7616437.38945  22306966.1284   22306963.7104
      2788.0944
 04  9 14 15 52 14.9990000  0  6G 1G11G14G23G25G20
  -6176407.60849  -4794512.56748  20565951.9724   20565951.0264
      1057.3134
  -3432063.98649  -2660300.38247  21012396.1984   21012393.9724
      -187.1094
   6726547.12448   5229096.84344  22687560.3474   22687559.2104
     -2629.6254
  -2770184.41047  -2147107.20144  23444811.8944   23444808.9724
      2880.8754
  -5717143.11149  -4439410.50448  20501467.0504   20501465.2764
       575.4224
  -9827439.99548  -7649000.11945  22299014.2764   22299011.9834
      2783.8594
 04  9 14 15 52 29.9990000  0  6G 1G11G14G23G25G20
  -6192207.97749  -4806824.53348  20562945.0584   20562944.0974
      1049.1094
  -3429169.13449  -2658044.66447  21012946.8554   21012944.6594
      -199.2034
   6766020.41048   5259855.22744  22695071.8234   22695070.7144
     -2633.7344
  -2813359.22747  -2180749.90544  23436595.6984   23436593.3554
      2875.3284
  -5725686.19449  -4446067.44148  20499841.3004   20499839.4014
       563.4384
  -9869164.05748  -7681512.37345  22291073.8864   22291071.8274
      2779.0314
 04  9 14 15 52 44.9990000  0  6G 1G11G14G23G25G20
  -6207894.07249  -4819047.48148  20559960.1124   20559958.8944
      1041.8284
  -3426101.19749  -2655654.07847  21013531.0264   21013528.4054
      -210.4374
   6805546.38048   5290654.66444  22702593.3864   22702592.2694
     -2636.9224
  -2856458.52547  -2214333.77644  23428394.8864   23428391.8274
      2870.6564
  -5734058.12549  -4452591.02248  20498248.2374   20498246.3234
       552.2664
  -9910825.35548  -7713975.72845  22283146.1754   22283144.3154
      2775.2034
 04  9 14 15 52 59.9990000  0  6G 1G11G14G23G25G20
  -6223463.10449  -4831179.19448  20556997.4484   20556996.5694
      1033.8754
  -3422857.47349  -2653126.50547  21014148.2144   21014145.6014
      -222.2344
   6845127.61148   5321497.16444  22710125.8704   22710124.4294
     -2640.6874
  -2899479.46547  -2247856.55244  23420207.3944   23420205.0974
      2865.2814
  -5742256.23149  -4458979.15248  20496687.9724   20496686.4134
       540.5784
  -9952420.81648  -7746387.76045  22275230.8474   22275228.8784
      2770.7344
 04  9 14 15 53 14.9990000  0  6G 1G11G14G23G25G20
  -6238916.80049  -4843221.02948  20554056.5264   20554055.9644
      1026.2504
  -3419439.74549  -2650463.35547  21014798.1514   21014796.1794
      -233.8914
   6884762.38548   5352381.39544  22717667.5264   22717666.5544
     -2644.3124
  -2942423.53347  -2281319.47344  23412035.8154   23412032.8124
      2860.2344
  -5750282.17549  -4465233.13848  20495160.8864   20495159.4214
       529.1254
  -9993951.92148  -7778749.66745  22267327.9564   22267325.1904
      2766.4694
 04  9 14 15 53 29.9990000  0  6G 1G11G14G23G25G20
  -6254252.20849  -4855170.69648  20551138.3234   20551137.1124
      1018.5474
  -3415844.94249  -2647662.22347  21015482.7144   21015479.8234
      -245.3914
   6924453.56548   5383309.55544  22725220.1674   22725219.4684
     -2647.7974
  -2985287.69448  -2314720.12444  23403879.0654   23403875.9994
      2855.1094
  -5758132.94349  -4471350.62148  20493666.7454   20493665.0034
       517.7194
 -10035415.60148  -7811059.03845  22259437.3154   22259435.4254
      2762.1884
 04  9 14 15 53 44.9990000  0  6G 1G11G14G23G25G20
  -6269473.65749  -4867031.55848  20548241.7844   20548240.4254
      1011.2034
  -3412077.46549  -2644726.53947  21016199.3084   21016197.1754
      -256.7504
   6964196.58548   5414278.12344  22732783.4804   22732782.4604
     -2650.9844
  -3028076.29448  -2348061.86044  23395737.3004   23395733.2304
      2850.3594
  -5765812.71149  -4477334.83348  20492205.5894   20492203.4644
       506.5164
 -10076815.97148  -7843319.05345  22251559.1904   22251557.2494
      2758.1724
 04  9 14 15 53 59.9990000  0  6G 1G11G14G23G25G20
  -6284574.98649  -4878798.83748  20545368.0814   20545367.2304
      1002.6724
  -3408131.15649  -2641651.50547  21016950.4954   21016948.4254
      -269.0474
   7003997.65848   5445291.92244  22740357.1904   22740355.9834
     -2655.4224
  -3070782.91048  -2381339.74744  23387610.2374   23387606.3554
      2844.2974
  -5773315.44449  -4483181.11748  20490777.6514   20490775.7844
       494.2504
 -10118146.51348  -7875524.66745  22243694.6834   22243692.4054
      2753.0164
 04  9 14 15 54 14.9990000  0  6G 1G11G14G23G25G20
  -6299559.40049  -4890475.00848  20542516.7694   20542515.9644
       995.5164
  -3404009.11649  -2638439.53547  21017734.6984   21017732.7654
      -280.2344
   7043853.38948   5476348.32044  22747942.0504   22747940.3194
     -2658.4534
  -3113410.65448  -2414556.14544  23379498.8394   23379494.9444
      2839.6254
  -5780644.03649  -4488891.71148  20489383.2224   20489380.7614
       483.1884
 -10159410.25148  -7907678.22145  22235841.8704   22235839.8624
      2749.1564
 04  9 14 15 54 29.9990000  0  6G 1G11G14G23G25G20
  -6314431.66749  -4902063.78948  20539686.6674   20539685.6594
       987.4694
  -3399716.03049  -2635094.30047  21018551.6674   21018549.3864
      -292.1254
   7083759.06748   5507443.61844  22755535.1054   22755533.9134
     -2662.2504
  -3155964.13747  -2447714.70044  23371400.7454   23371396.7104
      2834.1254
  -5787803.30749  -4494470.36048  20488020.6904   20488019.1014
       471.4534
 -10200611.73148  -7939783.27645  22228001.3554   22227999.4524
      2744.4384
 04  9 14 15 54 44.9990000  0  6G 1G11G14G23G25G20
  -6329186.90249  -4913561.37248  20536878.9334   20536877.4484
       979.6564
  -3395247.12049  -2631612.03247  21019402.5424   21019400.1514
      -303.9224
   7123719.51548   5538581.61544  22763138.6754   22763138.4684
     -2665.9844
  -3198438.34748  -2480811.46044  23363318.2144   23363314.1084
      2828.8284
  -5794788.33749  -4499913.23748  20486691.1204   20486689.7764
       459.8134
 -10241745.73748  -7971835.74745  22220174.2144   22220172.2064
      2739.9224
 04  9 14 15 54 59.9990000  0  6G 1G11G14G23G25G20
  -6343828.59749  -4924970.48148  20534092.6904   20534091.4874
       971.9694
  -3390605.89149  -2627995.49847  21020285.2144   21020283.8864
      -315.4694
   7163731.11748   5569759.46444  22770752.7694   22770752.3944
     -2669.4844
  -3240836.61948  -2513849.04644  23355250.0424   23355246.1244
      2823.6884
  -5801602.53449  -4505222.99048  20485394.9954   20485393.1634
       448.2974
 -10282815.43548  -8003838.10546  22212359.1984   22212356.9764
      2735.5164
 04  9 14 15 55 14.9990000  0  6G 1G11G14G23G25G20
  -6358351.39649  -4936286.95048  20531329.0654   20531328.2724
       964.5314
  -3385786.93349  -2624240.48247  21021202.1284   21021200.3004
      -326.8914
   7203799.18148   5600981.32444  22778377.8474   22778377.2024
     -2672.7814
  -3283153.67448  -2546823.36644  23347197.4094   23347193.6164
      2818.7344
  -5808240.33849  -4510395.30548  20484131.7924   20484129.8624
       436.9534
 -10323815.36348  -8035786.09945  22204556.6204   22204554.8864
      2731.2814
 04  9 14 15 55 29.9990000  0  6G 1G11G14G23G25G20
  -6372765.32949  -4947518.58448  20528586.3084   20528585.3154
       956.9844
  -3380800.25949  -2620354.77247  21022151.3554   21022149.3004
      -338.2814
   7243913.62948   5632239.31344  22786011.2454   22786010.6054
     -2676.0944
  -3325399.33648  -2579742.04544  23339158.2374   23339154.6514
      2813.7664
  -5814711.64849  -4515437.87648  20482900.1444   20482898.5224
       425.6094
 -10364755.20548  -8067687.28145  22196766.0264   22196764.1244
      2727.0634
 04  9 14 15 55 44.9990000  0  6G 1G11G14G23G25G20
  -6387066.27949  -4958662.17848  20525865.0344   20525863.2494
       949.6414
  -3375641.77349  -2616335.18247  21023132.9954   21023130.7844
      -349.6254
   7284078.43648   5663536.55144  22793654.0734   22793654.2454
     -2679.3284
  -3367569.29648  -2612601.74544  23331133.5974   23331129.5344
      2808.8444
  -5821012.45949  -4520347.59648  20481700.8474   20481699.2534
       414.4224
 -10405630.64949  -8099538.25945  22188987.6364   22188985.4644
      2722.8754
 04  9 14 15 55 59.9990000  0  6G 1G11G14G23G25G20
  -6401255.00249  -4969718.32847  20523164.6674   20523163.5814
       941.7194
  -3370312.32549  -2612182.37247  21024147.4254   21024144.9834
      -361.5004
   7324292.80448   5694872.39944  22801307.3784   22801307.1404
     -2683.1094
  -3409664.24448  -2645403.00144  23323123.0344   23323119.0424
      2803.3284
  -5827143.60549  -4525125.11047  20480534.5504   20480532.5224
       402.5634
 -10446442.23548  -8131339.49345  22181221.7534   22181219.7224
      2718.0784
 04  9 14 15 56 14.9990000  0  6G 1G11G14G23G25G20
  -6415329.29549  -4980685.30547  20520486.2844   20520485.3234
       934.6254
  -3364809.61049  -2607894.55147  21025194.3784   21025192.0854
      -372.4534
   7364558.80448   5726248.48144  22808969.8234   22808969.6284
     -2685.9844
  -3451681.81547  -2678143.96843  23315126.4644   23315123.2264
      2798.7344
  -5833102.66649  -4529768.53247  20479400.6984   20479398.8974
       391.6564
 -10487187.50448  -8163089.05446  22173468.1364   22173465.8474
      2714.2664
 04  9 14 15 56 29.9990000  0  6G 1G11G14G23G25G20
  -6429295.11749  -4991567.75847  20517828.8154   20517827.6554
       928.0634
  -3359139.30649  -2603476.14947  21026273.3784   21026271.0034
      -383.0004
   7404870.45448   5757660.14444  22816641.4174   22816640.2804
     -2688.3754
  -3493627.79547  -2710829.13343  23307144.5264   23307141.5224
      2794.6884
  -5838895.51449  -4534282.43548  20478298.1514   20478296.0304
       381.2344
 -10527872.16849  -8194791.38545  22165726.1054   22165724.2534
      2710.8754
 04  9 14 15 56 44.9990000  0  6G 1G11G14G23G25G20
  -6443155.86549  -5002368.35548  20515191.1834   20515190.0074
       920.5004
  -3353305.33449  -2598930.20347  21027383.4174   21027381.1834
      -394.4064
   7445224.20348   5789104.60444  22824320.7764   22824319.1324
     -2691.6094
  -3535505.63348  -2743461.19743  23299175.6284   23299172.7884
      2789.5784
  -5844525.54249  -4538669.46648  20477226.7454   20477225.0194
       369.9224
 -10568499.36249  -8226448.92845  22157994.8704   22157992.8944
      2706.4694
 04  9 14 15 56 59.9990000  0  6G 1G11G14G23G25G20
  -6456901.65349  -5013079.34948  20512575.7224   20512574.0544
       912.3754
  -3347297.53649  -2594248.82347  21028526.8704   21028524.6364
      -406.4694
   7485629.88748   5820589.51944  22832008.1364   22832008.0734
     -2695.5784
  -3577305.23847  -2776032.31244  23291221.9094   23291218.6514
      2783.8444
  -5849982.73449  -4542921.82748  20476188.4254   20476186.6124
       357.9224
 -10609058.97449  -8258053.82645  22150276.6364   22150274.7884
      2701.5944
 04  9 14 15 57 14.9990000  0  6G 1G11G14G23G25G20
  -6470534.20449  -5023702.12648  20509981.5194   20509980.0814
       905.2194
  -3341117.79749  -2589433.45047  21029702.5264   21029700.5934
      -417.4694
   7526085.75948   5852113.57044  22839707.6984   22839706.5774
     -2698.5784
  -3619028.21747  -2808543.72144  23283282.1284   23283278.8554
      2779.2664
  -5855268.83949  -4547040.87048  20475182.3394   20475180.6364
       346.9384
 -10649552.40849  -8289607.15545  22142571.0264   22142569.2414
      2697.5944
 04  9 14 15 57 29.9990000  0  6G 1G11G14G23G25G20
  -6484055.26449  -5034238.00548  20507408.3704   20507407.1514
       897.6254
  -3334767.77149  -2584485.39347  21030911.2694   21030908.8124
      -429.0784
   7566590.04047   5883675.30844  22847415.4644   22847414.3314
     -2701.9694
  -3660676.18248  -2840996.67444  23275356.6674   23275354.1674
      2773.9844
  -5860385.52849  -4551027.90048  20474208.8004   20474206.9134
       335.4224
 -10689981.22149  -8321110.11845  22134877.7534   22134876.0504
      2693.0634
 04  9 14 15 57 44.9990000  0  6G 1G11G14G23G25G20
  -6497465.98249  -5044687.91448  20504856.6444   20504855.3624
       890.6564
  -3328248.66349  -2579405.57047  21032151.6054   21032149.6164
      -439.9844
   7607141.40148   5915273.76044  22855132.0504   22855130.9444
     -2704.6564
  -3702250.16147  -2873391.96344  23267445.5424   23267442.1634
      2769.4064
  -5865333.99049  -4554883.83248  20473267.4404   20473265.3624
       324.5784
 -10730346.32549  -8352563.44945  22127196.2374   22127194.5504
      2689.1414
 04  9 14 15 57 59.9990000  0  6G 1G11G14G23G25G20
  -6510768.63749  -5055053.61548  20502324.7144   20502323.6324
       882.9384
  -3321562.77849  -2574195.80247  21033423.7844   21033421.8624
      -451.6094
   7647737.52447   5946907.06544  22862857.3784   22862856.2024
     -2708.1874
  -3743752.35448  -2905731.32944  23259548.0424   23259544.6794
      2764.0634
  -5870116.30649  -4558610.31748  20472357.1444   20472355.4014
       313.0004
 -10770649.78849  -8383968.72446  22119526.7224   22119525.3584
      2684.4844
 04  9 14 15 58 14.9990000  0  6G 1G11G14G23G25G20
  -6523961.82049  -5065334.01848  20499814.4644   20499813.5774
       876.1094
  -3314708.60949  -2568854.90447  21034728.3624   21034725.9764
      -462.3444
   7688379.82647   5978576.37944  22870591.2764   22870590.1054
     -2710.8284
  -3785181.25047  -2938013.57444  23251664.5194   23251661.1794
      2759.6094
  -5874730.99849  -4562206.17448  20471478.9014   20471477.3514
       302.2034
 -10810889.82749  -8415324.59846  22111869.4014   22111867.2844
      2680.6724
 04  9 14 15 58 29.9990000  0  6G 1G11G14G23G25G20
  -6537042.29049  -5075526.58648  20497325.3394   20497324.1124
       867.9844
  -3307682.92049  -2563380.33947  21036065.1284   21036063.1164
      -474.3754
   7729071.46447   6010284.12544  22878334.5974   22878333.7304
     -2714.6564
  -3826533.43946  -2970236.03144  23243795.5814   23243792.3154
      2754.0004
  -5879174.88549  -4565668.93948  20470633.4094   20470631.9054
       290.2664
 -10851063.00748  -8446628.37746  22104224.7534   22104223.0934
      2675.6724
 04  9 14 15 58 44.9990000  0  6G 1G11G14G23G25G20
  -6550008.95649  -5085630.47748  20494857.8004   20494856.6054
       861.0474
  -3300484.57349  -2557771.24047  21037434.9484   21037433.1714
      -485.2814
   7769813.43148   6042031.08744  22886087.8084   22886086.2414
     -2717.3594
  -3867807.62448  -3002397.73244  23235940.8314   23235937.6404
      2749.3444
  -5883446.80349  -4568997.70748  20469820.3864   20469818.8704
       279.5004
 -10891167.91649  -8477878.95245  22096593.2764   22096591.2264
      2671.7664
 04  9 14 15 58 59.9990000  0  6G 1G11G14G23G25G20
  -6562865.97149  -5095648.93548  20492411.4174   20492409.8474
       853.3914
  -3293117.90949  -2552031.00247  21038836.5504   21038834.8904
      -496.8914
   7810601.52347   6073814.01644  22893849.9174   22893848.2534
     -2720.8914
  -3909007.98948  -3034501.91144  23228101.0734   23228097.7884
      2744.0944
  -5887550.74749  -4572195.58148  20469039.4954   20469037.5304
       267.9224
 -10931208.45149  -8509079.37645  22088973.6594   22088971.9404
      2667.0944
 04  9 14 15 59 14.9990000  0  6G 1G11G14G23G25G20
  -6575611.77449  -5105580.72948  20489985.7614   20489984.4014
       845.9844
  -3285581.26749  -2546158.30547  21040270.8944   21040268.7304
      -508.1564
   7851437.20147   6105634.01644  22901619.9564   22901618.9954
     -2723.9224
  -3950132.67848  -3066547.10544  23220275.0194   23220271.7724
      2739.1414
  -5891485.08649  -4575261.30448  20468290.9804   20468288.8944
       256.5784
 -10971182.76449  -8540228.18646  22081366.6594   22081364.8554
      2662.7034
 04  9 14 15 59 29.9990000  0  6G 1G11G14G23G25G20
  -6588245.75849  -5115425.38648  20487581.4174   20487580.4874
       838.2344
  -3277874.12649  -2540152.74347  21041737.5344   21041735.4764
      -519.8124
   7892320.95147   6137491.45644  22909400.1444   22909399.3974
     -2727.5004
  -3991181.00248  -3098532.78744  23212464.1514   23212460.1514
      2733.6094
  -5895249.16549  -4578194.34548  20467574.6054   20467572.6944
       244.8754
 -11011090.16549  -8571324.84946  22073772.4954   22073770.7614
      2657.9064
 04  9 14 15 59 44.9990000  0  6G 1G11G14G23G25G20
  -6600767.65949  -5125182.71548  20485198.9014   20485197.3004
       831.0004
  -3269996.26349  -2534014.15947  21043236.9804   21043234.4374
      -530.8914
   7933253.09847   6169386.60444  22917189.2144   22917188.4054
     -2730.4064
  -4032152.67048  -3130458.73244  23204667.3554   23204663.4914
      2728.8594
  -5898842.89949  -4580994.65348  20466890.7694   20466889.3084
       233.9384
 -11050930.08849  -8602368.95146  22066191.4564   22066189.3354
      2653.7504
 04  9 14 15 59 59.9990000  0  6G 1G11G14G23G25G20
  -6613178.57949  -5134853.54948  20482837.2844   20482835.8584
       823.7814
  -3261948.71349  -2527743.35347  21044768.2064   21044765.3584
      -542.0944
   7974232.51248   6201318.59944  22924987.5974   22924986.3274
     -2733.4064
  -4073048.64548  -3162325.72344  23196884.9804   23196881.0194
      2724.0004
  -5902267.21249  -4583662.94248  20466239.1984   20466237.4524
       222.7664
 -11090703.31349  -8633361.07146  22058622.8154   22058620.9564
      2649.3914
 04  9 14 16  0 14.9990000  0  6G 1G11G14G23G25G20
  -6625473.51249  -5144434.01548  20480497.4484   20480496.1474
       815.6724
  -3253726.52149  -2521336.45847  21046333.1124   21046330.4564
      -554.0944
   8015264.06347   6233291.19844  22932795.6444   22932794.6714
     -2737.2974
  -4113863.88948  -3194129.79844  23189118.4334   23189114.3664
      2718.1094
  -5905517.00649  -4586195.24348  20465620.6124   20465618.8154
       210.7504
 -11130404.55149  -8664297.09546  22051067.6674   22051065.8974
      2644.2344
 04  9 14 16  0 29.9990000  0  6G 1G11G14G23G25G20
  -6637651.52949  -5153923.37847  20478180.0264   20478178.0504
       808.1094
  -3245328.67449  -2514792.69247  21047930.9564   21047928.6514
      -565.5784
   8056348.65848   6265305.15044  22940613.1674   22940612.5974
     -2740.5474
  -4154597.18248  -3225869.99744  23181367.4724   23181362.1634
      2713.0164
  -5908591.32249  -4588590.81248  20465035.8154   20465033.7064
       199.2664
 -11170032.56349  -8695176.05746  22043526.9484   22043525.5034
      2639.5784
 04  9 14 16  0 44.9990000  0  6G 1G11G14G23G25G20
  -6649710.88649  -5163320.28348  20475885.3784   20475884.0544
       799.9064
  -3236753.60149  -2508110.82847  21049562.6754   21049560.5814
      -577.7034
   8097488.00147   6297361.75144  22948441.7764   22948441.7064
     -2744.6254
  -4195246.69347  -3257544.93844  23173632.2534   23173627.2454
      2707.0314
  -5911488.50349  -4590848.34748  20464484.4334   20464482.4334
       187.1254
 -11209585.47148  -8725996.51046  22036000.4334   22035998.2574
      2634.2664
 04  9 14 16  0 59.9990000  0  6G 1G11G14G23G25G20
  -6661655.31249  -5172627.62548  20473612.0504   20473610.5074
       792.5784
  -3228005.09449  -2501293.83047  21051227.5114   21051225.7764
      -588.8914
   8138678.21648   6329457.97144  22956280.7614   22956278.9404
     -2747.6254
  -4235816.07847  -3289157.44244  23165911.6904   23165907.1284
      2702.0314
  -5914212.20249  -4592970.71448  20463965.9804   20463963.9834
       175.9384
 -11249066.68448  -8756761.08746  22028487.3084   22028485.1514
      2629.7344
 04  9 14 16  1 14.9990000  0  6G 1G11G14G23G25G20
  -6673487.35149  -5181847.39547  20471360.4404   20471358.9764
       784.7034
  -3219085.62649  -2494343.60147  21052924.7614   21052922.1084
      -600.6724
   8179916.68748   6361591.84344  22964128.0504   22964126.5694
     -2751.2664
  -4276307.86247  -3320709.46444  23158205.9644   23158201.8394
      2696.5164
  -5916764.96549  -4594959.88748  20463480.4094   20463478.3554
       164.1254
 -11288478.58948  -8787471.66446  22020987.4404   22020985.5034
      2624.7664
 04  9 14 16  1 29.9990000  0  6G 1G11G14G23G25G20
  -6685201.91549  -5190975.62448  20469131.6364   20469130.2144
       776.9694
  -3209990.13149  -2487256.20747  21054655.7534   21054653.1364
      -612.3284
   8221208.48148   6393767.23644  22971985.6754   22971984.4724
     -2754.6874
  -4316716.70648  -3352196.85744  23150516.8394   23150512.3514
      2691.1254
  -5919141.58949  -4596811.80248  20463028.0114   20463025.9604
       152.4694
 -11327815.80449  -8818124.03946  22013501.9484   22013499.3234
      2619.9534
 04  9 14 16  1 44.9990000  0  6G 1G11G14G23G25G20
  -6696801.37349  -5200014.15248  20466924.2374   20466922.4604
       769.4844
  -3200720.95349  -2480033.47547  21056419.1674   21056417.1364
      -623.7664
   8262551.09448   6425982.23944  22979852.7534   22979851.4404
     -2757.8754
  -4357044.93748  -3383621.43744  23142842.1834   23142838.3044
      2685.8594
  -5921344.35649  -4598528.23648  20462608.7764   20462606.8354
       141.0474
 -11367080.35949  -8848719.79046  22006030.0974   22006028.1054
      2615.2344
 04  9 14 16  1 59.9990000  0  6G 1G11G14G23G25G20
  -6708287.35849  -5208964.26448  20464738.6834   20464736.8864
       761.9844
  -3191279.85349  -2472676.78547  21058215.9174   21058213.9134
      -635.0474
   8303942.93048   6458235.59644  22987729.2844   22987728.3394
     -2761.0784
  -4397293.98248  -3414984.31944  23135182.5584   23135178.8974
      2680.7344
  -5923374.82349  -4600110.41448  20462222.3554   20462220.4764
       129.6884
 -11406273.56649  -8879259.94146  21998571.8944   21998569.7374
      2610.5164
 04  9 14 16  2 14.9990000  0  6G 1G11G14G23G25G20
  -6719659.84749  -5217825.94948  20462574.2844   20462572.7414
       754.9694
  -3181666.76349  -2465186.08047  21060045.6284   21060042.9014
      -646.0624
   8345383.96148   6490527.29544  22995615.9094   22995614.2064
     -2763.8124
  -4437463.71748  -3446285.39844  23127538.9404   23127535.2184
      2675.9384
  -5925232.93749  -4601558.29648  20461868.5814   20461866.6944
       118.6884
 -11445395.21649  -8909744.34746  21991127.6984   21991125.1944
      2606.2664
 04  9 14 16  2 29.9990000  0  6G 1G11G14G23G25G20
  -6730921.89049  -5226601.56048  20460431.3944   20460429.9524
       746.7814
  -3171884.67849  -2457563.67747  21061907.0194   21061904.2764
      -658.1414
   8386871.18648   6522854.97444  23003510.2064   23003509.2264
     -2767.7034
  -4477557.02048  -3477526.91944  23119909.0974   23119905.6634
      2669.9534
  -5926921.75149  -4602874.24048  20461547.2614   20461545.8664
       106.5944
 -11484448.05449  -8940175.12446  21983695.3004   21983693.2414
      2600.8754
 04  9 14 16  2 44.9990000  0  6G 1G11G14G23G25G20
  -6742068.03949  -5235286.87248  20458310.1124   20458308.9724
       739.2974
  -3161928.32249  -2449805.49647  21063801.6904   21063799.1324
      -669.4534
   8428409.89748   6555222.78343  23011415.0264   23011413.5504
     -2770.7974
  -4517568.41747  -3508704.62544  23112295.7694   23112291.2144
      2664.7814
  -5928435.84849  -4604054.05448  20461258.8944   20461257.1984
        95.2664
 -11523426.36649  -8970547.84146  21976278.3234   21976276.5814
      2596.1414
 04  9 14 16  2 59.9990000  0  6G 1G11G14G23G25G20
  -6753110.85649  -5243891.67148  20456208.6444   20456207.6634
       732.7814
  -3151810.25049  -2441921.29847  21065727.1594   21065724.6714
      -679.9224
   8469987.56548   6587620.94044  23019325.4644   23019325.6014
     -2773.1414
  -4557510.26048  -3539828.11944  23104694.7534   23104691.1674
      2660.5164
  -5929787.70249  -4605107.45448  20461002.0264   20461000.3584
        84.7814
 -11562342.50049  -9000872.10046  21968872.7614   21968870.7534
      2592.3594
 04  9 14 16  3 14.9990000  0  6G 1G11G14G23G25G20
  -6764046.89149  -5252413.25048  20454127.7224   20454126.2884
       725.3754
  -3141527.02949  -2433908.40147  21067683.7064   21067681.4334
      -691.2504
   8511607.49848   6620052.04444  23027246.1444   23027245.4134
     -2776.2034
  -4597379.02548  -3570894.66644  23097107.9014   23097104.9684
      2655.2974
  -5930973.86349  -4606031.72948  20460776.1984   20460774.6014
        73.4384
 -11601192.62549  -9031144.91946  21961479.7694   21961477.8154
      2587.6254
 04  9 14 16  3 29.9990000  0  6G 1G11G14G23G25G20
  -6774863.59649  -5260841.84448  20452069.3154   20452068.0074
       717.1094
  -3131066.06949  -2425757.01947  21069674.5814   21069672.3584
      -703.3124
   8553282.24947   6652525.83444  23035176.7534   23035176.4954
     -2780.2194
  -4637162.05348  -3601894.42244  23089537.1204   23089534.4444
      2649.3444
  -5931981.84049  -4606817.16848  20460584.3944   20460582.3084
        61.2194
 -11639964.05248  -9061356.41846  21954101.9334   21954100.0774
      2582.1254
 04  9 14 16  3 44.9990000  0  6G 1G11G14G23G25G20
  -6785568.31849  -5269183.17748  20450032.2064   20450031.2614
       710.0634
  -3120434.74249  -2417472.87447  21071697.6594   21071695.0384
      -714.2194
   8595004.37547   6685036.55244  23043116.7924   23043115.4954
     -2782.9224
  -4676866.46948  -3632832.90744  23081982.2844   23081978.6364
      2644.4844
  -5932818.76949  -4607469.31248  20460425.2924   20460423.5224
        50.2814
 -11678663.74949  -9091512.02846  21946737.6284   21946735.3944
      2577.7194
 04  9 14 16  3 59.9990000  0  6G 1G11G14G23G25G20
  -6796160.45849  -5277436.79148  20448016.6904   20448015.2414
       702.3594
  -3109632.66349  -2409055.67647  21073753.3234   21073751.0734
      -725.8594
   8636774.38048   6717584.60144  23051064.5894   23051063.8354
     -2786.3284
  -4716491.66348  -3663709.66644  23074441.4804   23074438.5114
      2638.9694
  -5933484.04849  -4607987.70848  20460298.6514   20460296.7414
        38.6254
 -11717290.80449  -9121611.01746  21939387.2224   21939384.8234
      2572.7344
 04  9 14 16  4 14.9990000  0  6G 1G11G14G23G25G20
  -6806638.32549  -5285601.36548  20446022.9094   20446021.7694
       694.9384
  -3098658.12349  -2400504.10047  21075841.7454   21075839.2654
      -737.1564
   8678593.92547   6750171.20644  23059023.0584   23059021.7064
     -2789.3594
  -4756035.75448  -3694523.21945  23066916.8784   23066913.9524
      2633.8134
  -5933975.90249  -4608370.96948  20460204.7534   20460202.9254
        27.2974
 -11755843.33048  -9151651.94446  21932050.6904   21932048.6754
      2567.9384
 04  9 14 16  4 29.9990000  0  6G 1G11G14G23G25G20
  -6817008.29649  -5293681.85648  20444049.5734   20444049.0734
       687.5944
  -3087517.49149  -2391823.10147  21077962.0264   21077959.5814
      -748.4224
   8720456.66347   6782791.49643  23066989.5814   23066988.5584
     -2792.5314
  -4795505.01347  -3725278.46545  23059406.5264   23059403.0264
      2628.6414
  -5934300.90649  -4608624.22148  20460143.3314   20460141.1554
        15.9534
 -11794327.47848  -9181639.59446  21924727.3394   21924725.3904
      2563.1724
 04  9 14 16  4 44.9990000  0  6G 1G11G14G23G25G20
  -6827270.91149  -5301678.69448  20442096.5654   20442095.1164
       679.9694
  -3076211.33449  -2383013.11647  21080113.3554   21080111.3314
      -759.8914
   8762361.89447   6815444.92644  23074963.5734   23074962.9954
     -2795.7194
  -4834900.01848  -3755975.85345  23051909.5194   23051906.4404
      2623.2664
  -5934459.54249  -4608747.82948  20460112.8784   20460111.1834
         4.3914
 -11832743.54649  -9211574.19246  21917417.0894   21917414.4094
      2558.1724
 04  9 14 16  4 59.9990000  0  6G 1G11G14G23G25G20
  -6837417.17649  -5309584.87548  20440165.9564   20440164.6324
       672.7814
  -3064730.77449  -2374067.23447  21082297.7064   21082295.5114
      -770.9694
   8804318.66247   6848138.46744  23082948.4404   23082946.6244
     -2798.5624
  -4874211.54147  -3786608.20245  23044428.2614   23044425.6634
      2618.2034
  -5934442.78749  -4608734.76748  20460116.4254   20460114.4294
        -6.7194
 -11871082.22049  -9241448.47346  21910121.6514   21910118.9484
      2553.5474
 04  9 14 16  5 14.9990000  0  6G 1G11G14G23G25G20
  -6847453.60949  -5317405.46148  20438255.8784   20438254.3704
       665.3444
  -3053082.28449  -2364990.49747  21084514.5264   21084512.2884
      -782.1564
   8846320.43548   6880867.09644  23090940.5814   23090939.5694
     -2801.6414
  -4913445.98048  -3817180.47244  23036963.0264   23036959.2724
      2612.9384
  -5934257.11449  -4608590.08948  20460151.5194   20460149.6164
       -17.9844
 -11909349.65249  -9271267.25346  21902839.5034   21902837.2804
      2548.7344
 04  9 14 16  5 29.9990000  0  6G 1G11G14G23G25G20
  -6857374.23149  -5325135.80548  20436368.1054   20436366.7144
       657.8594
  -3041259.99449  -2355778.33847  21086763.9174   21086762.1834
      -793.6874
   8888372.97447   6913635.31644  23098942.1984   23098942.1794
     -2804.9224
  -4952597.19948  -3847687.89144  23029512.0974   23029509.2724
      2607.6254
  -5933896.35549  -4608308.96848  20460220.1514   20460218.0694
       -29.5944
 -11947539.70949  -9301025.72746  21895572.2374   21895570.1204
      2543.6724
 04  9 14 16  5 44.9990000  0  6G 1G11G14G23G25G20
  -6867177.38549  -5332774.62748  20434502.4014   20434501.4374
       649.1094
  -3029262.31149  -2346429.49947  21089047.0734   21089044.9914
      -806.1414
   8930477.93647   6946444.34343  23106955.4334   23106954.2614
     -2809.1564
  -4991663.46247  -3878129.10344  23022077.8084   23022075.0114
      2601.0314
  -5933358.97149  -4607890.22348  20460322.5504   20460320.7924
       -42.2034
 -11985650.40949  -9330722.37046  21888319.8864   21888317.7184
      2537.5634
 04  9 14 16  5 59.9990000  0  6G 1G11G14G23G25G20
  -6876859.65749  -5340319.24948  20432660.3154   20432659.2374
       641.8914
  -3017085.80649  -2336941.32547  21091364.1204   21091362.4294
      -817.3914
   8972638.88647   6979297.01244  23114977.1444   23114977.3704
     -2812.3124
  -5030641.23146  -3908501.36344  23014660.4014   23014657.6554
      2595.9224
  -5932641.62149  -4607331.24748  20460458.9254   20460457.0154
       -53.4534
 -12023678.00449  -9360354.26546  21881083.4874   21881081.3124
      2532.7504
 04  9 14 16  6 14.9990000  0  6G 1G11G14G23G25G20
  -6886432.76349  -5347778.80648  20430838.5194   20430837.2494
       635.0004
  -3004742.30349  -2327323.01347  21093713.3474   21093711.0504
      -828.0314
   9014843.84347   7012183.96944  23123009.2764   23123008.4874
     -2814.7504
  -5069542.14146  -3938813.73444  23007258.3784   23007254.9524
      2591.3284
  -5931755.98149  -4606641.13148  20460627.3004   20460625.5304
       -64.2504
 -12061634.05448  -9389930.39646  21873860.9644   21873858.8514
      2528.4844
 04  9 14 16  6 29.9990000  0  6G 1G11G14G23G25G20
  -6895900.53049  -5355156.28048  20429036.9014   20429035.8784
       627.6724
  -2992235.50749  -2317577.46547  21096093.2614   21096091.1164
      -839.2344
   9057089.08848   7045102.31243  23131048.5504   23131047.4094
     -2817.6874
  -5108369.82047  -3969069.07244  22999869.4874   22999865.3004
      2586.1094
  -5930705.68649  -4605822.71648  20460827.2844   20460825.4914
       -75.5314
 -12099521.98249  -9419453.46446  21866650.7064   21866648.4564
      2523.5474
 04  9 14 16  6 44.9990000  0  6G 1G11G14G23G25G20
  -6905257.24549  -5362447.23148  20427256.4724   20427255.0694
       619.8134
  -2979559.82149  -2307700.31747  21098504.9644   21098503.1944
      -850.9694
   9099380.22847   7078056.42443  23139096.2614   23139095.3944
     -2821.1564
  -5147118.38847  -3999262.74744  22992495.9874   22992491.7264
      2580.3444
  -5929485.01049  -4604871.53848  20461059.2844   20461057.9684
       -87.3444
 -12137335.79349  -9448918.76246  21859455.3154   21859452.9954
      2518.1564
 04  9 14 16  6 59.9990000  0  6G 1G11G14G23G25G20
  -6914494.81849  -5369645.33348  20425498.5264   20425497.4644
       612.0634
  -2966707.23549  -2297685.32347  21100951.0654   21100949.0464
      -862.5164
   9141725.31547   7111052.57543  23147154.2534   23147152.8824
     -2824.6414
  -5185779.69947  -4029388.44144  22985138.2844   22985134.9764
      2574.6724
  -5928085.90549  -4603781.31648  20461325.6204   20461324.0974
       -99.0314
 -12175067.11349  -9478319.78846  21852275.2534   21852272.5074
      2512.8134
 04  9 14 16  7 14.9990000  0  6G 1G11G14G23G25G20
  -6923620.46549  -5376756.22148  20423761.7694   20423760.8824
       604.6564
  -2953685.00449  -2287538.14147  21103429.1514   21103426.7104
      -873.7974
   9184117.06347   7144085.07443  23155221.7924   23155219.5384
     -2827.6874
  -5224360.86447  -4059451.67544  22977797.0734   22977793.4954
      2569.3914
  -5926515.48849  -4602557.62048  20461624.7614   20461622.9094
      -110.3754
 -12212722.93349  -9507661.99246  21845109.5894   21845107.2414
      2507.8594
 04  9 14 16  7 29.9990000  0  6G 1G11G14G23G25G20
  -6932631.15949  -5383777.54248  20422047.2224   20422046.0384
       596.4384
  -2940490.20949  -2277256.49147  21105940.0344   21105938.1754
      -885.8124
   9226558.54348   7177156.31643  23163298.0424   23163296.2374
     -2831.5164
  -5262858.88047  -4089450.09444  22970471.1124   22970467.5264
      2563.3134
  -5924770.94149  -4601198.22048  20461956.7304   20461955.0504
      -122.6094
 -12250300.04549  -9536942.85146  21837958.9094   21837957.0814
      2502.0634
 04  9 14 16  7 44.9990000  0  6G 1G11G14G23G25G20
  -6941523.27049  -5390706.45448  20420355.1444   20420353.9134
       589.1564
  -2927119.17649  -2266837.50847  21108484.4484   21108482.1754
      -897.0004
   9269053.32047   7210269.11044  23171384.2614   23171382.7964
     -2834.4534
  -5301269.70347  -4119380.58244  22963161.4334   22963157.4094
      2558.0634
  -5922848.63549  -4599700.32648  20462322.5424   20462320.8154
      -133.7664
 -12287794.56749  -9566159.36546  21830823.4094   21830821.4484
      2497.1564
 04  9 14 16  7 59.9990000  0  6G 1G11G14G23G25G20
  -6950301.83549  -5397546.88748  20418684.5584   20418683.4564
       581.1564
  -2913577.11449  -2256285.25747  21111061.3154   21111059.2264
      -908.8444
   9311596.18248   7243419.35843  23179480.1834   23179478.3744
     -2838.1724
  -5339598.47448  -4149247.13044  22955868.0654   22955864.2614
      2552.2344
  -5920753.45949  -4598067.70048  20462721.1514   20462718.8864
      -145.7504
 -12325211.18049  -9595315.15146  21823703.4404   21823701.2724
      2491.5004
 04  9 14 16  8 14.9990000  0  6G 1G11G14G23G25G20
  -6958963.73149  -5404296.41748  20417036.2224   20417034.8514
       573.7034
  -2899860.96649  -2245597.36047  21113671.5034   21113669.3044
      -920.0474
   9354190.21548   7276609.49443  23187584.9724   23187584.4524
     -2841.1564
  -5377841.97347  -4179047.23444  22948590.9874   22948587.4644
      2546.9064
  -5918482.21849  -4596297.90448  20463153.5734   20463151.6674
      -157.1724
 -12362546.39349  -9624407.52246  21816599.2064   21816597.1874
      2486.3914
 04  9 14 16  8 29.9990000  0  6G 1G11G14G23G25G20
  -6967513.40849  -5410958.51848  20415409.1984   20415407.9764
       566.2814
  -2885975.23349  -2234777.32147  21116313.7764   21116311.4484
      -931.3594
   9396831.05748   7309836.10444  23195700.1204   23195698.4644
     -2844.1414
  -5416004.37548  -4208784.16445  22941328.8314   22941325.5194
      2541.5474
  -5916039.50649  -4594394.49048  20463618.1984   20463616.4404
      -168.5624
 -12399804.37649  -9653439.72446  21809508.9174   21809506.5264
      2481.3134
 04  9 14 16  8 44.9990000  0  6G 1G11G14G23G25G20
  -6975949.32049  -5417531.94648  20413803.9564   20413802.8554
       558.6254
  -2871918.37749  -2223823.92547  21118989.0344   21118986.5114
      -942.7344
   9439520.25748   7343100.39043  23203823.3944   23203822.7924
     -2847.5164
  -5454084.11247  -4238456.66045  22934082.2534   22934079.1674
      2535.9694
  -5913423.66549  -4592356.16048  20464116.1284   20464114.1124
      -180.0784
 -12436983.35949  -9682410.35246  21802434.1904   21802431.8234
      2476.0164
 04  9 14 16  8 59.9990000  0  6G 1G11G14G23G25G20
  -6984269.44149  -5424015.13648  20412220.5264   20412219.2144
       550.9694
  -2857688.34249  -2212735.59547  21121696.7144   21121694.5464
      -954.3284
   9482259.67848   7376403.80543  23211956.3154   23211955.0624
     -2850.8284
  -5492079.00647  -4268063.04045  22926852.3234   22926849.0814
      2530.3134
  -5910632.79549  -4590181.45647  20464647.2534   20464645.3084
      -191.7344
 -12474081.03249  -9711317.62846  21795374.6834   21795372.5264
      2470.6094
 04  9 14 16  9 14.9990000  0  6G 1G11G14G23G25G20
  -6992476.76349  -5430410.45148  20410658.8704   20410657.3084
       543.4224
  -2843288.36849  -2201514.83647  21124437.1674   21124434.7304
      -965.5944
   9525046.37248   7409744.06543  23220099.2924   23220097.1674
     -2853.9064
  -5529991.96647  -4297605.60744  22919637.5344   22919634.7884
      2524.9694
  -5907669.75249  -4587872.58948  20465210.9954   20465209.2374
      -203.2034
 -12511100.14049  -9740163.67946  21788330.0654   21788327.9684
      2465.3284
 04  9 14 16  9 29.9990000  0  6G 1G11G14G23G25G20
  -7000564.93749  -5436712.92848  20409119.9874   20409118.9644
       535.4064
  -2828712.13749  -2190156.74447  21127210.9564   21127208.5814
      -977.4534
   9567886.72348   7443126.13443  23228250.2534   23228249.6404
     -2857.6094
  -5567816.38547  -4327079.14845  22912439.5504   22912436.3474
      2518.7814
  -5904528.15749  -4585424.58248  20465808.7064   20465806.9374
      -215.2344
 -12548033.96548  -9768943.28646  21781301.6444   21781299.1124
      2459.5004
 04  9 14 16  9 44.9990000  0  6G 1G11G14G23G25G20
  -7008538.83749  -5442926.35848  20407602.2614   20407600.8354
       527.9224
  -2813964.33249  -2178664.95847  21130017.0654   21130014.9294
      -988.7814
   9610775.77648   7476546.17643  23236413.0264   23236410.9954
     -2860.7974
  -5605557.07446  -4356487.46545  22905257.9874   22905255.2264
      2513.4064
  -5901213.03649  -4582841.36248  20466439.8004   20466437.4684
      -226.6564
 -12584887.15448  -9797660.06046  21774288.8944   21774286.4524
      2454.3594
 04  9 14 16  9 59.9990000  0  6G 1G11G14G23G25G20
  -7016403.07349  -5449054.32848  20406106.0034   20406104.2574
       520.4534
  -2799049.68949  -2167043.16847  21132855.3624   21132853.3434
     -1000.0474
   9653708.82647   7510000.45243  23244582.0114   23244581.1634
     -2863.9064
  -5643218.61346  -4385834.10645  22898091.4564   22898088.3704
      2507.9534
  -5897729.09649  -4580126.59748  20467102.4954   20467100.7494
      -238.0784
 -12621663.96748  -9826317.31346  21767290.4724   21767288.1794
      2449.0634
 04  9 14 16 10 14.9990000  0  6G 1G11G14G23G25G20
  -7024151.91149  -5455092.37248  20404631.3084   20404629.9684
       512.8444
  -2783962.72649  -2155287.09747  21135726.2694   21135724.2184
     -1011.4534
   9696691.56648   7543493.48943  23252760.6984   23252760.6984
     -2867.1254
  -5680795.18647  -4415114.53245  22890940.1984   22890937.3664
      2502.4534
  -5894070.31649  -4577275.58348  20467798.6444   20467796.9094
      -249.6724
 -12658358.40648  -9854910.37646  21760307.6124   21760305.5694
      2443.6094
 04  9 14 16 10 29.9990000  0  6G 1G11G14G23G25G20
  -7031788.13049  -5461042.66248  20403178.1984   20403176.5894
       505.5004
  -2768706.09349  -2143398.81547  21138629.2694   21138627.1324
     -1022.7034
   9739721.31048   7577023.13443  23260950.6204   23260948.8084
     -2870.0944
  -5718289.27947  -4444330.68145  22883805.6054   22883802.9914
      2496.9844
  -5890239.52649  -4574290.54448  20468527.7454   20468526.0814
      -261.0624
 -12694972.88148  -9883441.13446  21753340.4174   21753338.4484
      2438.3914
 04  9 14 16 10 44.9990000  0  6G 1G11G14G23G25G20
  -7039309.40449  -5466903.40248  20401746.9404   20401745.6554
       497.6414
  -2753277.66749  -2131376.67447  21141565.3394   21141563.2654
     -1034.2344
   9782800.23248   7610591.05943  23269146.9804   23269146.3864
     -2873.6094
  -5755698.55547  -4473480.76045  22876686.8624   22876683.7024
      2491.1884
  -5886234.48649  -4571169.74048  20469289.8784   20469288.2694
      -272.8124
 -12731504.93848  -9911907.68046  21746388.4404   21746386.1714
      2432.7194
 04  9 14 16 10 59.9990000  0  6G 1G11G14G23G25G20
  -7046719.25449  -5472677.30748  20400336.9094   20400335.8314
       489.9694
  -2737680.95649  -2119223.40247  21144533.6054   21144531.1984
     -1045.6874
   9825924.92848   7644194.72643  23277353.3624   23277353.3744
     -2876.8754
  -5793026.26747  -4502567.26945  22869583.2534   22869580.4724
      2485.5004
  -5882058.58249  -4567915.76848  20470084.4804   20470082.4174
      -284.4064
 -12767957.63648  -9940312.35746  21739451.7454   21739449.3274
      2427.2344
 04  9 14 16 11 14.9990000  0  6G 1G11G14G23G25G20
  -7054013.19349  -5478360.88748  20398948.7144   20398947.8904
       482.4844
  -2721911.59349  -2106935.58147  21147534.3704   21147532.0624
     -1056.9224
   9869099.80048   7677837.44543  23285570.5734   23285568.4644
     -2879.8444
  -5830267.89347  -4531586.70045  22862497.1054   22862493.6364
      2480.0784
  -5877707.36349  -4564525.20848  20470912.6594   20470910.4094
      -295.8124
 -12804326.26748  -9968651.55546  21732530.9334   21732528.6244
      2421.9064
 04  9 14 16 11 29.9990000  0  6G 1G11G14G23G25G20
  -7061193.45449  -5483955.89348  20397582.9094   20397581.2924
       474.5474
  -2705971.94649  -2094515.09647  21150567.4644   21150565.0974
     -1068.6564
   9912322.50648   7711517.47843  23293794.5894   23293793.6054
     -2883.4064
  -5867425.64147  -4560540.77944  22855425.3864   22855422.1794
      2474.1094
  -5873183.13749  -4560999.83648  20471773.2454   20471771.8154
      -307.7194
 -12840612.73749  -9996926.72546  21725625.7224   21725623.3864
      2416.0634
 04  9 14 16 11 44.9990000  0  6G 1G11G14G23G25G20
  -7068264.54549  -5489465.84248  20396237.1514   20396235.8974
       468.0314
  -2689866.44649  -2081965.35747  21153632.0424   21153629.5304
     -1078.9844
   9955588.48748   7745231.21343  23302027.6594   23302026.8154
     -2885.5624
  -5904503.82047  -4589432.85044  22848370.1904   22848365.5384
      2469.3914
  -5868490.33749  -4557343.09548  20472666.4874   20472664.5464
      -318.2194
 -12876821.26448 -10025141.15746  21718735.5734   21718733.6404
      2411.5474
 04  9 14 16 11 59.9990000  0  6G 1G11G14G23G25G20
  -7075227.15149  -5494891.24148  20394912.0424   20394910.7304
       460.7194
  -2673595.90749  -2069287.02947  21156728.6124   21156725.9604
     -1090.0004
   9998897.08048   7778978.13043  23310269.2614   23310268.4014
     -2888.5164
  -5941503.05647  -4618263.42644  22841329.3004   22841324.9484
      2464.1254
  -5863629.69049  -4553555.56848  20473591.3154   20473589.6284
      -329.5314
 -12912952.26849 -10053295.19346  21711860.1054   21711858.1324
      2406.3754
 04  9 14 16 12 14.9990000  0  6G 1G11G14G23G25G20
  -7082075.46449  -5500227.59448  20393608.7844   20393607.3194
       452.7344
  -2657154.59549  -2056475.62947  21159857.0974   21159854.5974
     -1101.7344
  10042254.18948   7812762.87643  23318519.3004   23318518.4134
     -2892.1254
  -5978417.37348  -4647027.80344  22834304.9014   22834300.8624
      2458.2194
  -5858595.49649  -4549632.81548  20474549.3474   20474547.8974
      -341.3594
 -12948999.69948 -10081384.09546  21705000.6364   21704998.3474
      2400.3754
 04  9 14 16 12 29.9990000  0  6G 1G11G14G23G25G20
  -7088813.06849  -5505477.66648  20392326.7064   20392325.1474
       445.5004
  -2640546.14849  -2043533.98947  21163017.6984   21163015.3154
     -1112.8284
  10085656.04648   7846582.46343  23326779.4014   23326777.7694
     -2894.9534
  -6015250.15547  -4675728.65045  22827295.8314   22827291.5304
      2452.7974
  -5853391.31249  -4545577.60948  20475539.7844   20475537.6674
      -352.5474
 -12984966.87048 -10109410.45646  21698156.4804   21698154.2224
      2395.2034
 04  9 14 16 12 44.9990000  0  6G 1G11G14G23G25G20
  -7095441.19449  -5510642.44148  20391065.5734   20391064.0934
       438.1414
  -2623772.00149  -2030463.22147  21166209.4334   21166207.5974
     -1123.9374
  10129101.49748   7880436.05943  23335046.1674   23335045.3274
     -2897.9534
  -6052002.60847  -4704366.88945  22820302.3624   22820298.1474
      2447.3914
  -5848018.40049  -4541390.90548  20476562.1444   20476560.0694
      -363.9534
 -13020854.68948 -10137374.98346  21691327.2144   21691324.9054
      2389.7664
 04  9 14 16 12 59.9990000  0  6G 1G11G14G23G25G20
  -7101952.43449  -5515716.12948  20389826.4724   20389825.1514
       430.4064
  -2606824.73149  -2017257.56647  21169434.8234   21169432.4334
     -1135.3444
  10172597.84748   7914329.30443  23343323.1364   23343322.5384
     -2901.2344
  -6088667.21847  -4732936.69044  22813324.9334   22813321.1164
      2441.5314
  -5842469.35649  -4537066.96448  20477618.1124   20477616.3434
      -375.5944
 -13056655.42148 -10165271.67346  21684514.4404   21684512.1444
      2383.9844
 04  9 14 16 13 14.9990000  0  6G 1G11G14G23G25G20
  -7108349.10449  -5520700.55648  20388609.0504   20388607.8624
       422.4694
  -2589706.72049  -2003918.87347  21172692.2924   21172689.4994
     -1147.0474
  10216142.67448   7948260.32243  23351609.3784   23351608.6594
     -2904.7814
  -6125246.18847  -4761439.75345  22806364.4644   22806360.5894
      2435.5784
  -5836746.38949  -4532607.51248  20478707.0584   20478704.8274
      -387.4534
 -13092371.12648 -10193102.09446  21677718.2454   21677716.1364
      2378.0784
 04  9 14 16 13 29.9990000  0  6G 1G11G14G23G25G20
  -7114628.50049  -5525593.58548  20387414.1904   20387412.8314
       414.8914
  -2572415.36249  -1990445.09547  21175982.8394   21175980.2184
     -1158.3444
  10259738.78748   7982231.27643  23359905.2224   23359904.8354
     -2908.0004
  -6161736.67447  -4789873.89445  22799420.5194   22799416.7764
      2429.9534
  -5830846.83949  -4528010.45848  20479829.6594   20479827.6054
      -399.0004
 -13127998.83248 -10220863.93746  21670938.1834   21670936.2024
      2372.4534
 04  9 14 16 13 44.9990000  0  6G 1G11G14G23G25G20
  -7120797.46249  -5530400.56648  20386240.5504   20386239.2064
       407.7344
  -2554957.58249  -1976841.62447  21179304.8084   21179302.4834
     -1169.2974
  10303379.37648   8016236.90543  23368211.0194   23368209.4804
     -2910.7974
  -6198145.37947  -4818244.29245  22792492.1204   22792488.3394
      2424.5944
  -5824777.72349  -4523281.27048  20480984.7764   20480982.9644
      -410.1254
 -13163545.02348 -10248562.26046  21664174.1204   21664172.1794
      2367.2034
 04  9 14 16 13 59.9990000  0  6G 1G11G14G23G25G20
  -7126850.89848  -5535117.53048  20385088.6284   20385087.1514
       400.2504
  -2537328.30349  -1963104.53347  21182659.3234   21182656.5974
     -1180.4374
  10347069.54148   8050281.16343  23376523.7764   23376523.0264
     -2913.8284
  -6234467.02647  -4846546.85945  22785580.0654   22785576.5424
      2419.0944
  -5818533.75649  -4518415.84548  20482172.7844   20482171.2024
      -421.5474
 -13199004.09848 -10276192.70846  21657426.0734   21657424.2764
      2361.6094
 04  9 14 16 14 14.9990000  0  6G 1G11G14G23G25G20
  -7132799.20549  -5539752.57048  20383956.8784   20383955.3624
       392.6564
  -2519537.76049  -1949241.77647  21186044.7534   21186041.9954
     -1191.8124
  10390798.78148   8084355.87443  23384845.5194   23384844.8624
     -2917.0004
  -6270711.91147  -4874789.60444  22778682.8084   22778679.4334
      2413.3754
  -5812125.56549  -4513422.43748  20483392.0584   20483390.7454
      -433.0624
 -13234386.41148 -10303763.33846  21650693.4014   21650691.5654
      2355.8914
 04  9 14 16 14 29.9990000  0  6G 1G11G14G23G25G20
  -7138632.73249  -5544298.18248  20382846.2454   20382844.9334
       385.4064
  -2501576.73049  -1935246.17347  21189462.4174   21189460.2494
     -1202.7194
  10434576.69648   8118468.51243  23393175.8704   23393175.4764
     -2919.8124
  -6306870.32747  -4902964.96645  22771801.9484   22771798.5264
      2408.0314
  -5805543.45349  -4508293.51348  20484644.9094   20484642.9954
      -444.2974
 -13269682.00748 -10331266.40347  21643977.0114   21643974.8904
      2350.5164
 04  9 14 16 14 44.9990000  0  6G 1G11G14G23G25G20
  -7144354.45049  -5548756.65148  20381757.4484   20381756.0194
       378.0314
  -2483448.20349  -1921120.05247  21192912.3944   21192910.3084
     -1213.8284
  10478400.37248   8152616.79443  23401516.1124   23401514.9874
     -2922.8284
  -6342945.07646  -4931075.14445  22764937.2614   22764933.6904
      2402.5004
  -5798790.26249  -4503031.27048  20485929.7764   20485927.8234
      -455.5944
 -13304893.47648 -10358703.90346  21637276.5424   21637274.7724
      2344.8914
 04  9 14 16 14 59.9990000  0  6G 1G11G14G23G25G20
  -7149968.08749  -5553130.91548  20380689.1054   20380688.2414
       370.0634
  -2465156.10349  -1906866.48147  21196393.4174   21196391.3784
     -1225.4694
  10522265.92348   8186797.72843  23409863.6124   23409862.3274
     -2926.2664
  -6378939.75547  -4959122.93545  22758087.4174   22758084.4484
      2396.4844
  -5791869.75149  -4497638.65548  20487246.8394   20487244.7764
      -467.4694
 -13340024.33149 -10386078.59247  21630591.4254   21630589.3554
      2338.8444
 04  9 14 16 15 14.9990000  0  6G 1G11G14G23G25G20
  -7155468.08149  -5557416.62748  20379642.5894   20379641.0224
       363.3134
  -2446694.77349  -1892481.04347  21199906.7144   21199904.4174
     -1235.9844
  10566178.98748   8221015.66543  23418219.1514   23418219.0734
     -2928.6874
  -6414848.64947  -4987103.88945  22751254.1364   22751251.0854
      2391.4384
  -5784776.41049  -4492111.37248  20488596.7374   20488595.1324
      -478.2504
 -13375068.59048 -10413385.79946  21623922.4404   21623920.5734
      2333.8594
 04  9 14 16 15 29.9990000  0  6G 1G11G14G23G25G20
  -7160866.39849  -5561623.09848  20378615.2614   20378613.9444
       356.4384
  -2428076.31949  -1877973.15947  21203449.2764   21203447.4914
     -1246.4224
  10610127.65348   8255261.37343  23426583.1594   23426581.9334
     -2931.1254
  -6450683.71447  -5015027.29745  22744434.3154   22744431.7764
      2386.5784
  -5777522.33849  -4486458.84648  20489976.9724   20489975.1874
      -488.9374
 -13410037.97048 -10440634.66646  21617268.0894   21617266.2184
      2328.7664
 04  9 14 16 15 44.9990000  0  6G 1G11G14G23G25G20
  -7166156.77749  -5565745.47048  20377608.7764   20377607.3004
       348.9694
  -2409294.56149  -1863338.03047  21207023.5654   21207021.3354
     -1257.7344
  10654118.14648   8289539.63543  23434954.5114   23434952.7804
     -2934.2664
  -6486438.56747  -5042888.17645  22737631.1444   22737628.5304
      2380.8594
  -5770101.13149  -4480676.07848  20491389.2144   20491387.4834
      -500.4844
 -13444925.90848 -10467820.06247  21610628.8084   21610627.1204
      2322.9844
 04  9 14 16 15 59.9990000  0  6G 1G11G14G23G25G20
  -7171334.29549  -5569779.90348  20376623.2614   20376622.1754
       341.4224
  -2390344.71049  -1848571.91747  21210629.6594   21210627.3084
     -1268.9374
  10698155.28248   8323854.27743  23443333.4174   23443332.9804
     -2937.3754
  -6522108.25447  -5070682.73545  22730843.9804   22730840.9954
      2375.1254
  -5762508.11149  -4474759.44248  20492834.0264   20492832.4094
      -511.9374
 -13479727.25548 -10494938.00647  21604006.7224   21604004.9684
      2317.1564
 04  9 14 16 16 14.9990000  0  6G 1G11G14G23G25G20
  -7176405.49149  -5573731.48648  20375658.7224   20375656.9914
       334.3444
  -2371233.38949  -1833679.98247  21214266.3474   21214263.7614
     -1279.6414
  10742232.48348   8358200.12643  23451721.4644   23451720.5264
     -2940.0164
  -6557699.10847  -5098415.86445  22724071.0114   22724067.4644
      2369.9064
  -5754749.76749  -4468713.98548  20494310.5974   20494308.5934
      -522.9374
 -13514448.18148 -10521993.26747  21597399.3944   21597397.5344
      2311.8914
 04  9 14 16 16 29.9990000  0  6G 1G11G14G23G25G20
  -7181369.50349  -5577599.54948  20374714.0344   20374712.2764
       327.6414
  -2351959.80949  -1818661.61247  21217933.8624   21217931.8704
     -1290.0164
  10786350.58048   8392577.82943  23460116.6834   23460115.8864
     -2942.3284
  -6593210.13947  -5126086.76545  22717313.1984   22717309.8154
      2365.0004
  -5746825.30249  -4462539.06748  20495818.3314   20495816.4334
      -533.5314
 -13549087.52948 -10548984.95547  21590807.6054   21590805.9374
      2306.8284
 04  9 14 16 16 44.9990000  0  6G 1G11G14G23G25G20
  -7186230.73249  -5581387.52548  20373789.0584   20373787.6244
       320.5004
  -2332528.55649  -1803520.38947  21221631.5734   21221629.0694
     -1300.8284
  10830505.22148   8426984.02143  23468520.1124   23468517.9874
     -2945.0474
  -6628645.66747  -5153698.84945  22710570.6984   22710566.5624
      2359.7194
  -5738739.06449  -4456238.10148  20497357.4484   20497355.3274
      -544.6254
 -13583649.55948 -10575916.41747  21584230.8624   21584228.7764
      2301.4384
 04  9 14 16 16 59.9990000  0  6G 1G11G14G23G25G20
  -7190988.95449  -5585095.22548  20372883.6444   20372882.3044
       313.8134
  -2312939.36949  -1788256.08247  21225359.2374   21225357.0194
     -1311.1874
  10874696.70148   8461418.92143  23476929.7064   23476927.9374
     -2947.3124
  -6664005.25246  -5181251.74345  22703841.5974   22703838.2024
      2354.6564
  -5730490.75349  -4449810.83748  20498927.0894   20498925.1054
      -555.2814
 -13618133.58748 -10602787.06646  21577668.6674   21577666.8154
      2296.3284
 04  9 14 16 17 14.9990000  0  6G 1G11G14G23G25G20
  -7195646.86449  -5588724.75348  20371997.1204   20371995.2264
       307.3134
  -2293195.15349  -1772870.98047  21229116.6674   21229114.3234
     -1321.3124
  10918922.19748   8495880.32543  23485344.6204   23485343.5264
     -2949.3914
  -6699291.49547  -5208747.48445  22697126.9174   22697123.2574
      2350.0784
  -5722083.09349  -4443259.39748  20500526.5654   20500525.0774
      -565.6724
 -13652541.92448 -10629598.75247  21571121.1124   21571119.0774
      2291.4694
 04  9 14 16 17 29.9990000  0  6G 1G11G14G23G25G20
  -7200199.71849  -5592272.43548  20371130.7454   20371129.5424
       300.2664
  -2273291.04449  -1757361.30147  21232904.2064   21232902.0424
     -1332.0624
  10963186.52448   8530371.98443  23493768.9174   23493767.6444
     -2951.9844
  -6734499.43147  -5236182.21645  22690427.4404   22690423.6364
      2344.7664
  -5713511.36749  -4436580.13148  20502158.2224   20502156.1634
      -576.6724
 -13686869.52448 -10656347.53046  21564588.2924   21564586.4994
      2286.0164
 04  9 14 16 17 44.9990000  0  6G 1G11G14G23G25G20
  -7204655.45549  -5595744.44248  20370283.1514   20370281.7144
       293.7974
  -2253235.15249  -1741733.34947  21236720.6444   21236718.5424
     -1342.2034
  11007481.73348   8564887.69543  23502197.0734   23502196.6164
     -2954.0784
  -6769636.98348  -5263562.11045  22683740.8864   22683736.5894
      2340.1414
  -5704783.78349  -4429779.42548  20503818.5814   20503816.8904
      -587.0474
 -13721124.13348 -10683039.44746  21558069.9874   21558067.7804
      2281.1094
 04  9 14 16 17 59.9990000  0  6G 1G11G14G23G25G20
  -7209011.72249  -5599138.93348  20369453.8554   20369452.8434
       286.6884
  -2233025.31049  -1725985.41347  21240566.5504   21240564.1084
     -1352.8444
  11051810.14248   8599429.28443  23510632.7694   23510631.6244
     -2956.7814
  -6804701.72748  -5290885.27545  22677068.1674   22677063.5224
      2334.8134
  -5695897.94249  -4422855.37548  20505509.8554   20505507.7654
      -598.0784
 -13755303.06048 -10709672.36746  21551566.4094   21551564.0624
      2275.7034
 04  9 14 16 18 14.9990000  0  6G 1G11G14G23G25G20
  -7213262.36449  -5602451.12248  20368645.1594   20368643.3784
       279.9224
  -2212655.50149  -1710112.84647  21244442.9954   21244440.2144
     -1363.2344
  11096177.77948   8634001.45343  23519075.1594   23519074.6874
     -2959.0784
  -6839687.52347  -5318146.90145  22670410.5114   22670406.1984
      2329.8914
  -5686847.81349  -4415803.32948  20507231.6834   20507230.1554
      -608.7344
 -13789399.95549 -10736241.36546  21545077.5034   21545076.2224
      2270.4534
 04  9 14 16 18 29.9990000  0  6G 1G11G14G23G25G20
  -7217410.56749  -5605683.48448  20367855.3704   20367854.2144
       272.8914
  -2192128.79149  -1694118.00647  21248348.6674   21248346.4914
     -1373.8914
  11140581.42248   8668601.66943  23527525.3944   23527524.3354
     -2961.6254
  -6874597.26447  -5345349.27545  22663767.0114   22663763.6014
      2324.5784
  -5677636.63849  -4408625.78148  20508984.6124   20508983.0854
      -619.6564
 -13823417.64549 -10762748.64547  21538604.2924   21538602.1054
      2265.0164
 04  9 14 16 18 44.9990000  0  6G 1G11G14G23G25G20
  -7221453.44349  -5608833.77448  20367086.2534   20367084.9294
       266.2344
  -2171442.47949  -1677998.81947  21252285.5584   21252282.9484
     -1384.1724
  11185024.13848   8703232.32343  23535982.9094   23535981.3554
     -2963.8754
  -6909427.95247  -5372490.06145  22657138.7454   22657135.0074
      2319.6414
  -5668261.39349  -4401320.38948  20510768.6444   20510766.8824
      -630.2504
 -13857352.81148 -10789191.62747  21532146.9174   21532144.9404
      2259.8914
 04  9 14 16 18 59.9990000  0  6G 1G11G14G23G25G20
  -7225399.48649  -5611908.60748  20366335.3394   20366333.8704
       259.7504
  -2150605.29349  -1661762.04947  21256250.1124   21256248.4014
     -1394.2344
  11229497.34848   8737886.76743  23544445.3704   23544444.2184
     -2966.0164
  -6944187.94347  -5399575.74045  22650524.6364   22650520.4094
      2314.8914
  -5658730.48949  -4393893.69648  20512582.5114   20512580.5114
      -640.7034
 -13891213.60249 -10815576.65947  21525703.1594   21525701.5384
      2254.7034
 04  9 14 16 19 14.9990000  0  6G 1G11G14G23G25G20
  -7229245.38249  -5614905.40648  20365603.7764   20365602.0264
       253.0474
  -2129614.01749  -1645405.22447  21260244.9254   21260242.3234
     -1404.5944
  11274004.32948   8772567.49543  23552915.3234   23552913.5114
     -2968.2814
  -6978873.82447  -5426603.68145  22643923.5344   22643920.4294
      2310.0314
  -5649040.78549  -4386343.28248  20514426.4174   20514424.4524
      -651.2504
 -13924996.44749 -10841900.94446  21519274.5424   21519273.2414
      2249.5944
 04  9 14 16 19 29.9990000  0  6G 1G11G14G23G25G20
  -7232993.28549  -5617825.86248  20364890.2924   20364889.2924
       246.5784
  -2108471.01749  -1628930.16447  21264268.3554   21264266.5424
     -1414.5624
  11318542.87148   8807272.83143  23561389.6984   23561389.1284
     -2970.2814
  -7013487.67547  -5453575.49745  22637337.1284   22637333.8434
      2305.2344
  -5639194.50149  -4378670.85948  20516299.9404   20516298.4524
      -661.5784
 -13958703.30749 -10868166.03347  21512860.1444   21512858.0894
      2244.6094
 04  9 14 16 19 44.9990000  0  6G 1G11G14G23G25G20
  -7236645.09249  -5620671.41848  20364194.9954   20364193.7494
       240.0004
  -2087178.12449  -1612338.30247  21268320.2144   21268318.0264
     -1424.7344
  11363111.14348   8842001.33043  23569870.5894   23569870.3944
     -2972.4694
  -7048031.28247  -5480492.59145  22630763.6444   22630759.9994
      2300.2194
  -5629193.55149  -4370877.90448  20518202.8944   20518201.1514
      -672.1414
 -13992335.78349 -10894373.15147  21506460.4954   21506458.2804
      2239.3594
 04  9 14 16 19 59.9990000  0  6G 1G11G14G23G25G20
  -7240191.36249  -5623434.74048  20363520.5034   20363519.0424
       232.6094
  -2065725.96649  -1595622.33847  21272402.3394   21272400.3824
     -1435.7194
  11407718.50348   8876760.28543  23578359.7614   23578358.5694
     -2975.3914
  -7082495.00847  -5507347.43345  22624205.5814   22624201.9094
      2294.5784
  -5619028.65349  -4362957.19748  20520137.1834   20520135.5424
      -683.4224
 -14025884.06849 -10920514.65447  21500075.9724   21500074.5224
      2233.4224
 04  9 14 16 20 14.9990000  0  6G 1G11G14G23G25G20
  -7243639.99949  -5626121.98947  20362864.0734   20362862.6754
       226.4844
  -2044122.65049  -1578788.59247  21276513.2304   21276511.6514
     -1445.3754
  11452357.14848   8911543.62543  23586854.4644   23586853.1084
     -2977.1564
  -7116886.73748  -5534146.17245  22617661.0654   22617658.1404
      2290.2664
  -5608707.70049  -4354914.89648  20522101.5894   20522099.2844
      -693.4064
 -14059355.69449 -10946596.44047  21493707.1674   21493704.8354
      2228.7344
 04  9 14 16 20 29.9990000  0  6G 1G11G14G23G25G20
  -7246991.37749  -5628733.44848  20362226.5424   20362224.4524
       220.1254
  -2022368.57749  -1561837.38047  21280653.0424   21280650.8584
     -1455.2814
  11497026.67348   8946351.02843  23595354.0424   23595353.6754
     -2979.0314
  -7151206.67447  -5560888.94245  22611129.7454   22611127.2614
      2285.6884
  -5598231.04249  -4346751.26548  20524095.2064   20524093.1014
      -703.6094
 -14092750.92549 -10972618.68947  21487351.7304   21487349.9994
      2223.8914
 04  9 14 16 20 44.9990000  0  6G 1G11G14G23G25G20
  -7250245.05249  -5631268.78848  20361607.3004   20361606.2304
       213.5634
  -2000463.42349  -1544768.43647  21284821.6444   21284819.1594
     -1465.4694
  11541727.57848   8981182.84843  23603860.4484   23603859.8194
     -2981.1564
  -7185454.22448  -5587575.33245  22604613.5894   22604609.5854
      2280.7034
  -5587598.26149  -4338465.98148  20526118.5424   20526116.5224
      -714.1874
 -14126068.77748 -10998580.64647  21481012.2304   21481009.4174
      2218.4694
 04  9 14 16 20 59.9990000  0  6G 1G11G14G23G25G20
  -7253398.88649  -5633726.32348  20361007.1984   20361005.7724
       206.8134
  -1978405.15949  -1527580.18947  21289019.0654   21289016.2064
     -1475.7504
  11586461.94648   9016040.78943  23612374.3394   23612373.1944
     -2983.5004
  -7219627.06448  -5614203.53145  22598110.5734   22598106.3474
      2275.6414
  -5576807.24649  -4330057.39648  20528171.9404   20528169.9174
      -724.7194
 -14159306.84848 -11024480.43246  21474686.6124   21474684.6554
      2213.1724
 04  9 14 16 21 14.9990000  0  6G 1G11G14G23G25G20
  -7256453.33849  -5636106.41148  20360426.0814   20360424.6204
       200.2344
  -1956194.45649  -1510273.14847  21293245.8154   21293243.6674
     -1485.8754
  11631229.25148   9050924.40043  23620891.8624   23620892.0384
     -2985.6564
  -7253725.66447  -5640773.85845  22591621.3704   22591617.1204
      2270.7344
  -5565858.50149  -4321525.90748  20530255.2844   20530253.8434
      -735.2664
 -14192465.24548 -11050318.15146  21468376.7224   21468374.6364
      2207.7664
 04  9 14 16 21 29.9990000  0  6G 1G11G14G23G25G20
  -7259407.45949  -5638408.31748  20359863.8944   20359861.8124
       193.7194
  -1933830.32849  -1492846.56147  21297501.3704   21297498.8354
     -1495.9844
  11676030.52347   9085834.44143  23629417.8784   23629417.0774
     -2987.7814
  -7287748.91648  -5667285.45045  22585147.1124   22585143.4564
      2265.8594
  -5554751.04949  -4312870.73648  20532369.1984   20532367.4834
      -745.6874
 -14225542.76748 -11076092.83047  21462082.5264   21462080.3084
      2202.5314
 04  9 14 16 21 44.9990000  0  6G 1G11G14G23G25G20
  -7262264.59049  -5640634.65248  20359319.7454   20359318.5734
       187.0784
  -1911316.41849  -1475303.25947  21301785.5654   21301783.3864
     -1506.0474
  11720862.38647   9120768.33643  23637949.3154   23637948.7804
     -2989.9374
  -7321700.15947  -5693740.94045  22578686.7534   22578682.3944
      2260.8594
  -5543488.39648  -4304094.64548  20534512.2844   20534510.3974
      -756.1094
 -14258542.57248 -11101806.96147  21455802.6834   21455801.0734
      2197.2664
 04  9 14 16 21 59.9990000  0  6G 1G11G14G23G25G20
  -7265025.88349  -5642786.30548  20358794.8624   20358793.5654
       180.4844
  -1888653.73349  -1457644.03747  21306098.1904   21306095.4804
     -1516.1254
  11765723.80148   9155725.26843  23646485.9174   23646485.3044
     -2992.1564
  -7355580.20647  -5720140.97345  22572239.1834   22572234.9174
      2256.0474
  -5532071.80949  -4295198.59948  20536684.7764   20536682.8474
      -766.5624
 -14291465.32748 -11127461.05247  21449538.1834   21449535.7764
      2191.9384
 04  9 14 16 22 14.9990000  0  6G 1G11G14G23G25G20
  -7267689.36349  -5644861.74248  20358287.7924   20358286.5544
       174.5314
  -1865840.51649  -1439867.50547  21310439.5654   21310437.0304
     -1525.6874
  11810616.59648   9190706.61143  23655028.8554   23655028.4604
     -2993.7194
  -7389387.10547  -5746483.98645  22565805.3394   22565801.2884
      2251.6724
  -5520499.21148  -4286180.97948  20538886.8864   20538885.0584
      -776.4534
 -14324308.74848 -11153053.32547  21443288.1594   21443286.0504
      2187.0784
 04  9 14 16 22 29.9990000  0  6G 1G11G14G23G25G20
  -7270258.47748  -5646863.65048  20357799.1754   20357798.1514
       167.7194
  -1842880.42249  -1421976.53447  21314808.9014   21314806.1324
     -1536.0624
  11855537.37548   9225709.82543  23663576.9014   23663575.9804
     -2996.1254
  -7423124.18448  -5772772.61445  22559385.6754   22559382.0384
      2246.3284
  -5508774.20948  -4277044.61848  20541118.0424   20541116.4334
      -787.2194
 -14357075.96048 -11178586.20447  21437052.4874   21437050.5344
      2181.5164
 04  9 14 16 22 44.9990000  0  6G 1G11G14G23G25G20
  -7272731.90248  -5648790.98848  20357328.2454   20357327.0034
       161.6414
  -1819772.19749  -1403970.12047  21319205.8154   21319203.4874
     -1545.5944
  11900487.32448   9260735.72643  23672131.0974   23672130.0034
     -2997.7344
  -7456789.96747  -5799005.66145  22552979.4644   22552975.4764
      2241.9224
  -5496895.55948  -4267788.52248  20543378.9094   20543376.7304
      -797.1094
 -14389765.31948 -11204058.41947  21430832.0974   21430829.3234
      2176.5784
 04  9 14 16 22 59.9990000  0  6G 1G11G14G23G25G20
  -7275108.44249  -5650642.83248  20356876.0424   20356875.1514
       155.2344
  -1796514.81249  -1385847.49447  21323631.7064   21323629.6874
     -1555.4064
  11945467.76848   9295785.41243  23680690.7534   23680689.5894
     -2999.6724
  -7490383.16947  -5825182.16745  22546586.3154   22546582.6984
      2237.2034
  -5484862.12048  -4258411.82648  20545668.4404   20545666.7304
      -807.2974
 -14422375.42348 -11229468.88347  21424626.0114   21424624.0344
      2171.3594
 04  9 14 16 23 14.9990000  0  6G 1G11G14G23G25G20
  -7277391.11748  -5652421.54248  20356441.2764   20356440.3434
       149.4694
  -1773111.29749  -1367610.99147  21328085.1904   21328083.7494
     -1564.7664
  11990475.74647   9330856.51043  23689254.1984   23689254.4374
     -3001.0164
  -7523906.62847  -5851304.31945  22540207.2224   22540203.4174
      2232.9224
  -5472676.76649  -4248916.73848  20547987.1284   20547985.2534
      -817.0314
 -14454908.80048 -11254819.55546  21418435.7144   21418433.0654
      2166.6884
 04  9 14 16 23 29.9990000  0  6G 1G11G14G23G25G20
  -7279580.14248  -5654127.27448  20356025.1834   20356024.1444
       142.5164
  -1749562.06849  -1349260.95447  21332566.4564   21332564.7144
     -1574.9694
  12035510.95047   9365948.84343  23697824.8704   23697824.4444
     -3003.4224
  -7557360.54847  -5877372.30745  22533841.2224   22533837.2454
      2227.7504
  -5460339.92548  -4239303.60948  20550334.9564   20550332.9564
      -827.6564
 -14487365.45148 -11280110.45847  21412259.4874   21412256.8624
      2161.0474
 04  9 14 16 23 44.9990000  0  6G 1G11G14G23G25G20
  -7281671.08948  -5655756.57748  20355626.8474   20355625.5194
       136.0784
  -1725862.73749  -1330793.95647  21337076.3314   21337074.4094
     -1585.0474
  12080577.76947   9401065.81543  23706400.4254   23706400.2884
     -3005.6414
  -7590740.30947  -5903382.48145  22527489.7924   22527485.2694
      2222.8134
  -5447847.12749  -4229568.95848  20552712.2064   20552710.1084
      -838.1414
 -14519740.63248 -11305337.86747  21406098.6124   21406096.7264
      2155.6094
 04  9 14 16 23 59.9990000  0  6G 1G11G14G23G25G20
  -7283666.49049  -5657311.43348  20355247.4094   20355245.8944
       129.6564
  -1702016.06049  -1312212.13347  21341614.0734   21341612.0344
     -1594.8914
  12125673.73647   9436205.49943  23714981.6204   23714982.1944
     -3007.5164
  -7624048.39947  -5929336.82445  22521151.0814   22521146.9334
      2218.0314
  -5435201.08149  -4219714.89948  20555118.7064   20555116.8084
      -848.3754
 -14552036.63849 -11330503.57847  21399952.4804   21399950.7964
      2150.2504
 04  9 14 16 24 14.9990000  0  6G 1G11G14G23G25G20
  -7285566.73349  -5658792.14448  20354885.8704   20354884.3474
       123.5474
  -1678022.45449  -1293515.82747  21346180.2454   21346178.1014
     -1604.4844
  12170798.61747   9471367.73043  23723568.3154   23723568.9484
     -3009.2504
  -7657285.07648  -5955235.51845  22514826.2614   22514822.3314
      2213.4534
  -5422402.21149  -4209741.75948  20557554.0584   20557552.1084
      -858.2664
 -14584253.44548 -11355607.57947  21393821.9014   21393820.1084
      2145.1254
 04  9 14 16 24 29.9990000  0  6G 1G11G14G23G25G20
  -7287373.38049  -5660199.91348  20354541.8624   20354540.5194
       117.7974
  -1653883.65849  -1274706.37047  21350773.3154   21350771.4644
     -1613.6874
  12215950.72447   9506551.14143  23732161.3394   23732160.6204
     -3010.6254
  -7690451.66348  -5981079.57745  22508514.6594   22508510.8944
      2209.1564
  -5409452.06349  -4199650.72648  20560018.5424   20560016.6754
      -867.9694
 -14616392.34648 -11380650.86446  21387706.0264   21387703.8124
      2140.3754
 04  9 14 16 24 44.9990000  0  6G 1G11G14G23G25G20
  -7289088.53549  -5661536.39648  20354215.6674   20354214.0734
       110.8914
  -1629602.05349  -1255785.65247  21355394.0654   21355392.5544
     -1624.0004
  12261127.93347   9541754.12143  23740757.2764   23740757.9644
     -3013.0624
  -7723550.25448  -6006870.67045  22502216.6284   22502212.3234
      2203.9064
  -5396353.07549  -4189443.72548  20562511.0814   20562509.1904
      -878.6564
 -14648455.15749 -11405634.86147  21381604.8944   21381602.6084
      2134.5634
 04  9 14 16 24 59.9990000  0  6G 1G11G14G23G25G20
  -7290713.23749  -5662802.39348  20353906.2764   20353904.9804
       105.1094
  -1605178.72749  -1236754.49647  21360041.6364   21360040.1204
     -1633.1724
  12306329.07047   9576975.74942  23749360.1984   23749359.3904
     -3014.4064
  -7756581.72448  -6032609.47145  22495930.6834   22495926.6834
      2199.6724
  -5383106.21649  -4179121.49648  20565031.8234   20565030.0894
      -888.2664
 -14680442.59248 -11430560.12647  21375517.7614   21375515.4564
      2129.8444
 04  9 14 16 25 14.9990000  0  6G 1G11G14G23G25G20
  -7292243.26649  -5663994.61548  20353615.3624   20353614.1834
        98.8134
  -1580609.44749  -1217609.61347  21364717.2224   21364715.3864
     -1642.8444
  12351558.48248   9612219.45842  23757968.0584   23757966.0074
     -3016.3444
  -7789541.80348  -6058292.63745  22489658.8624   22489654.6084
      2194.9384
  -5369707.23549  -4168680.73348  20567581.5974   20567579.7804
      -898.3124
 -14712350.11048 -11455423.11947  21369445.9874   21369443.7024
      2124.4694
 04  9 14 16 25 29.9990000  0  6G 1G11G14G23G25G20
  -7293680.54349  -5665114.57848  20353341.6444   20353340.7264
        92.7814
  -1555896.41249  -1198352.70247  21369420.1754   21369417.8354
     -1652.2504
  12396814.25247   9647483.65843  23766578.8314   23766578.0424
     -3017.8124
  -7822432.18348  -6083921.49945  22483399.9404   22483395.8274
      2190.4064
  -5356158.20249  -4158123.04848  20570160.2844   20570157.9254
      -908.2504
 -14744179.27848 -11480225.07247  21363389.1754   21363386.8664
      2119.4534
 04  9 14 16 25 44.9990000  0  6G 1G11G14G23G25G20
  -7295026.26049  -5666163.18648  20353085.7144   20353084.4254
        86.5944
  -1531040.86149  -1178984.75547  21374150.1124   21374148.1514
     -1661.8124
  12442095.18147   9682767.49842  23775194.7454   23775194.9054
     -3019.4694
  -7855254.11648  -6109497.01245  22477153.8004   22477150.0814
      2185.7974
  -5342460.39149  -4147449.43248  20572766.5424   20572764.5224
      -918.1414
 -14775930.96248 -11504966.63447  21357346.8784   21357344.9054
      2114.2344
 04  9 14 16 25 59.9990000  0  6G 1G11G14G23G25G20
  -7296277.09649  -5667137.85548  20352847.6674   20352846.4014
        80.1724
  -1506039.61449  -1159503.27147  21378907.3944   21378905.8004
     -1671.6874
  12487404.69948   9718073.56643  23783817.9804   23783816.5344
     -3021.6414
  -7888004.05047  -6135016.40845  22470922.2064   22470918.3554
      2180.9224
  -5328610.44049  -4136657.25648  20575402.1124   20575400.1474
      -928.4534
 -14807601.51548 -11529644.98347  21351320.5424   21351318.0654
      2108.6254
 04  9 14 16 26 14.9990000  0  6G 1G11G14G23G25G20
  -7297436.30149  -5668041.13848  20352626.9724   20352625.6674
        73.9534
  -1480896.07949  -1139910.91147  21383692.0114   21383690.4014
     -1681.0944
  12532739.37348   9753399.28742  23792445.0974   23792443.2804
     -3023.2814
  -7920685.09947  -6160482.14545  22464702.8554   22464699.3474
      2176.2664
  -5314611.66448  -4125749.11048  20578065.7764   20578064.2334
      -938.3914
 -14839193.88548 -11554262.40447  21345308.3314   21345306.2724
      2103.3444
 04  9 14 16 26 29.9990000  0  6G 1G11G14G23G25G20
  -7298504.27448  -5668873.30848  20352423.7694   20352422.2304
        68.2814
  -1455610.66049  -1120207.99747  21388503.8704   21388501.7614
     -1690.2504
  12578099.09047   9788744.48243  23801077.1124   23801075.6204
     -3024.6874
  -7953297.50847  -6185894.39645  22458497.2144   22458493.3864
      2172.0634
  -5300464.53848  -4114725.37548  20580758.4724   20580756.3154
      -947.9694
 -14870708.03148 -11578818.86847  21339311.3084   21339309.4404
      2098.5314
 04  9 14 16 26 44.9990000  0  6G 1G11G14G23G25G20
  -7299484.58048  -5669637.18748  20352237.3624   20352236.1554
        62.2814
  -1430187.11849  -1100397.45647  21393341.4724   21393339.5814
     -1699.6414
  12623480.08447   9824106.27242  23809712.5264   23809711.3474
     -3026.2664
  -7985844.86048  -6211255.96145  22452303.1984   22452299.4334
      2167.5784
  -5286172.70548  -4103588.88648  20583477.7064   20583475.6754
      -957.7504
 -14902147.22548 -11603316.93147  21333328.8084   21333326.8394
      2093.3284
 04  9 14 16 26 59.9990000  0  6G 1G11G14G23G25G20
  -7300375.46748  -5670331.37948  20352067.6204   20352066.6754
        56.4844
  -1404623.90649  -1080478.06747  21398206.3944   21398204.2884
     -1708.6874
  12668884.10847   9859486.02142  23818351.9094   23818351.4334
     -3027.5784
  -8018325.28648  -6236565.38445  22446122.1834   22446118.4874
      2163.2034
  -5271734.48148  -4092338.31648  20586225.4094   20586223.4874
      -967.3754
 -14933509.54648 -11627755.10147  21327360.7064   21327358.2804
      2088.3594
 04  9 14 16 27 14.9990000  0  6G 1G11G14G23G25G20
  -7301173.73148  -5670953.39948  20351916.0264   20351914.8124
        50.2194
  -1378917.87549  -1060447.40247  21403098.1834   21403096.0304
     -1718.3754
  12714314.46446   9894886.25043  23826996.6204   23826996.5424
     -3029.3594
  -8050735.40148  -6261819.98245  22439954.5424   22439951.0774
      2158.5314
  -5257146.77949  -4080971.26548  20589001.1594   20588999.5074
      -977.3594
 -14964791.40948 -11652130.56647  21321407.9954   21321405.9724
      2082.9384
 04  9 14 16 27 29.9990000  0  6G 1G11G14G23G25G20
  -7301879.58948  -5671503.40948  20351781.6444   20351780.1594
        43.9844
  -1353069.40549  -1040305.74447  21408016.9404   21408014.6594
     -1728.0004
  12759770.92746   9930306.84543  23835646.9954   23835646.8274
     -3031.3444
  -8083075.24148  -6287019.84445  22433800.4254   22433797.2654
      2153.7034
  -5242409.73048  -4069487.84948  20591805.4174   20591803.8474
      -987.4844
 -14995992.70348 -11676443.25647  21315470.3394   21315468.7064
      2077.3594
 04  9 14 16 27 44.9990000  0  6G 1G11G14G23G25G20
  -7302494.50948  -5671982.57048  20351664.6754   20351663.3354
        37.5944
  -1327080.24149  -1020054.46147  21412962.0264   21412959.8194
     -1737.6414
  12805251.98947   9965746.62542  23844303.2844   23844301.3744
     -3033.2504
  -8115346.21648  -6312166.03545  22427660.2844   22427656.5194
      2148.7504
  -5227525.00148  -4057889.36448  20594637.9254   20594636.5304
      -997.5624
 -15027114.59048 -11700694.07647  21309547.9954   21309546.6514
      2071.7504
 04  9 14 16 27 59.9990000  0  6G 1G11G14G23G25G20
  -7303016.89249  -5672389.61548  20351564.7534   20351563.6364
        31.7974
  -1300948.96049   -999692.42947  21417934.7534   21417932.8434
     -1746.7974
  12850759.32746  10001206.86242  23852962.0264   23852961.1904
     -3034.6414
  -8147546.69048  -6337257.30245  22421532.6284   22421528.6404
      2144.4534
  -5212491.17249  -4046174.69248  20597498.8784   20597497.3274
     -1007.1254
 -15058155.09548 -11724881.47447  21303641.4804   21303639.5344
      2066.7034
 04  9 14 16 28 14.9990000  0  6G 1G11G14G23G25G20
  -7303449.33848  -5672726.58348  20351482.9014   20351481.5464
        25.6564
  -1274678.11749   -979221.64047  21422933.8704   21422931.9094
     -1756.2664
  12896290.32246  10036685.53542  23861625.8314   23861625.8944
     -3036.4534
  -8179679.12548  -6362295.55045  22415418.2374   22415413.8004
      2139.6724
  -5197310.88248  -4034345.90248  20600387.2144   20600385.9134
     -1017.1414
 -15089116.55248 -11749007.27547  21297749.3784   21297748.2064
      2061.2194
 04  9 14 16 28 29.9990000  0  6G 1G11G14G23G25G20
  -7303787.48649  -5672990.07148  20351418.2304   20351417.4054
        19.5004
  -1248263.40649   -958638.75447  21427960.7374   21427958.5584
     -1765.7034
  12941849.38145  10072186.03742  23870294.3784   23870295.7694
     -3038.1254
  -8211738.96748  -6387277.22945  22409317.1124   22409312.5654
      2135.0474
  -5181979.80649  -4022399.60248  20603304.9254   20603303.5224
     -1027.0474
 -15119994.26848 -11773067.81947  21291873.8624   21291871.7844
      2055.7664
 04  9 14 16 28 44.9990000  0  6G 1G11G14G23G25G20
  -7304032.31848  -5673180.85048  20351371.6984   20351370.2334
        13.1414
  -1221706.11849   -937944.77647  21433014.0344   21433012.2144
     -1775.3124
  12987435.45346  10107707.60942  23878970.1124   23878970.2884
     -3040.0624
  -8243727.19248  -6412203.09846  22403230.5034   22403226.0854
      2130.1414
  -5166498.93549  -4010336.59348  20606250.9094   20606248.9014
     -1037.1254
 -15150788.84148 -11797063.58847  21286013.8234   21286012.1944
      2050.0944
 04  9 14 16 28 59.9990000  0  6G 1G11G14G23G25G20
  -7304187.94948  -5673302.11248  20351342.3394   20351340.9014
         7.1564
  -1195010.63749   -917143.10847  21438094.1904   21438092.3154
     -1784.5624
  13033044.48146  10143247.10042  23887649.3394   23887649.6474
     -3041.6564
  -8275647.73948  -6437076.22545  22397155.8154   22397151.4334
      2125.5474
  -5150872.54749  -3998160.18448  20609224.5034   20609222.6874
     -1046.8284
 -15181504.08648 -11820997.53647  21280169.1674   21280167.2144
      2044.7504
 04  9 14 16 29 14.9990000  0  6G 1G11G14G23G25G20
  -7304247.92249  -5673348.84948  20351331.1984   20351329.1794
         0.9064
  -1168170.42749   -896228.65946  21443201.7844   21443199.5344
     -1794.1094
  13078683.01645  10178809.56742  23896334.6674   23896333.8314
     -3043.5314
  -8307493.99648  -6461891.47045  22391095.5584   22391091.2494
      2120.7034
  -5135094.07749  -3985865.26748  20612227.0584   20612225.1204
     -1056.9694
 -15212133.18349 -11844864.35447  21274340.5114   21274338.1594
      2039.0944
 04  9 14 16 29 29.9990000  0  6G 1G11G14G23G25G20
  -7304215.45848  -5673323.54248  20351336.6204   20351335.6284
        -5.5624
  -1141188.93249   -875204.13047  21448336.0194   21448333.7454
     -1803.7664
  13124347.72845  10214392.41043  23905024.3864   23905023.4684
     -3045.4694
  -8339269.11548  -6486651.28245  22385048.8474   22385044.2614
      2115.6564
  -5119166.80549  -3973454.40748  20615257.9804   20615256.1204
     -1067.0474
 -15242679.08648 -11868666.34947  21268527.6054   21268525.2924
      2033.3134
 04  9 14 16 29 44.9990000  0  6G 1G11G14G23G25G20
  -7304088.54848  -5673224.65948  20351360.9094   20351359.9174
       -11.5314
  -1114064.31449   -854068.07347  21453497.9564   21453495.8554
     -1813.0004
  13170040.66246  10249997.24642  23913719.3314   23913718.8274
     -3047.1874
  -8370971.00148  -6511354.04045  22379016.2224   22379011.8234
      2111.1254
  -5103088.99349  -3960926.23348  20618317.3394   20618315.6084
     -1076.7814
 -15273139.45648 -11892401.70147  21262731.3554   21262728.9054
      2027.9064
 04  9 14 16 29 59.9990000  0  6G 1G11G14G23G25G20
  -7303865.35248  -5673050.74148  20351403.6054   20351402.4014
       -18.0624
  -1086794.76249   -832819.07847  21458687.0894   21458684.9444
     -1822.7664
  13215763.77246  10285625.60242  23922420.3704   23922419.2454
     -3049.1874
  -8402597.45848  -6535998.01746  22372997.9094   22372994.1754
      2105.9064
  -5086858.83949  -3948279.36248  20621406.1204   20621403.8704
     -1087.0624
 -15303512.16248 -11916068.73547  21256951.1834   21256949.2654
      2021.8754
 04  9 14 16 30 14.9990000  0  6G 1G11G14G23G25G20
  -7303549.25749  -5672804.42048  20351463.8394   20351462.4874
       -24.3594
  -1059383.88149   -811459.94847  21463903.1754   21463901.1554
     -1832.3124
  13261513.68246  10321274.82843  23931126.0114   23931125.5384
     -3051.0944
  -8434152.04948  -6560585.98146  22366993.1124   22366989.4914
      2101.0944
  -5070479.78949  -3935516.46348  20624522.5734   20624520.8354
     -1097.0164
 -15333800.15548 -11939669.76347  21251187.6284   21251185.7224
      2016.1414
 04  9 14 16 30 29.9990000  0  6G 1G11G14G23G25G20
  -7303137.39448  -5672483.48848  20351541.9804   20351540.9874
       -30.4224
  -1031829.01849   -789988.63147  21469146.5974   21469144.8234
     -1841.5784
  13307293.00546  10356946.99043  23939837.3394   23939837.6284
     -3052.7664
  -8465631.80547  -6585115.65045  22361002.4954   22360998.9804
      2096.3284
  -5053949.07449  -3922635.38148  20627668.4334   20627666.2884
     -1106.8914
 -15364000.37648 -11963202.38247  21245441.0654   21245439.1244
      2010.5634
 04  9 14 16 30 44.9990000  0  6G 1G11G14G23G25G20
  -7302628.24948  -5672086.74648  20351638.9484   20351637.9404
       -37.2034
  -1004128.80549   -768404.06047  21474417.6204   21474415.8004
     -1851.5944
  13353103.53746  10392643.49243  23948554.7764   23948554.8394
     -3055.0784
  -8497035.02947  -6609585.69045  22355026.6054   22355022.9334
      2091.0164
  -5037265.32549  -3909635.05648  20630843.0114   20630841.0504
     -1117.3444
 -15394110.93348 -11986665.15247  21239711.0264   21239709.0894
      2004.3444
 04  9 14 16 30 59.9990000  0  6G 1G11G14G23G25G20
  -7302020.51548  -5671613.18048  20351754.6364   20351753.6874
       -43.5784
   -976282.02149   -746705.27947  21479716.6984   21479714.5264
     -1861.1254
  13398946.52246  10428365.28643  23957278.2534   23957277.8154
     -3057.0624
  -8528360.19847  -6633994.89745  22349065.4644   22349062.2334
      2085.9224
  -5020427.30249  -3896514.51348  20634047.1674   20634045.2574
     -1127.4534
 -15424130.29048 -12010056.85847  21233998.5424   21233996.0344
      1998.4224
 04  9 14 16 31 14.9990000  0  6G 1G11G14G23G25G20
  -7301314.60549  -5671063.12248  20351888.8394   20351887.8154
       -50.3754
   -948289.27949   -724892.76447  21485043.7534   21485041.7414
     -1870.9694
  13444821.52246  10464112.00742  23966007.8704   23966008.0584
     -3059.2664
  -8559607.73548  -6658343.61446  22343119.1444   22343115.8864
      2080.5944
  -5003435.53149  -3883274.17148  20637280.8234   20637279.1594
     -1137.9064
 -15454058.38448 -12033377.44447  21228303.5734   21228301.3944
      1992.1414
 04  9 14 16 31 29.9990000  0  6G 1G11G14G23G25G20
  -7300509.00649  -5670435.38048  20352042.1594   20352040.6904
       -56.9844
   -920149.23849   -702965.47246  21490398.5974   21490396.1084
     -1880.8124
  13490730.07846  10499884.84842  23974744.8004   23974744.8744
     -3061.7504
  -8590776.02247  -6682630.58146  22337188.1834   22337184.8124
      2075.2344
  -4986288.49549  -3869912.84548  20640543.8394   20640541.9724
     -1148.2974
 -15483893.38448 -12056625.49847  21222626.0734   21222623.9254
      1985.9224
 04  9 14 16 31 44.9990000  0  6G 1G11G14G23G25G20
  -7299602.64249  -5669729.12248  20352214.5584   20352213.3784
       -64.2504
   -891860.95549   -680922.66046  21495781.7924   21495780.0464
     -1891.3124
  13536673.22346  10535684.72342  23983486.5114   23983486.8044
     -3064.6564
  -8621863.87748  -6706854.87946  22331272.6124   22331268.9914
      2069.3444
  -4968985.20849  -3856429.76048  20643836.5034   20643834.4374
     -1159.2974
 -15513633.91849 -12079799.93447  21216966.9564   21216964.6674
      1979.0474
 04  9 14 16 31 59.9990000  0  6G 1G11G14G23G25G20
  -7298594.94648  -5668943.90648  20352406.2304   20352404.8944
       -70.5164
   -863424.01149   -658764.00347  21501193.0504   21501190.7654
     -1900.7504
  13582651.68645  10571512.09642  23992236.4954   23992236.6944
     -3066.3284
  -8652870.47148  -6731015.84245  22325372.5974   22325368.8004
      2064.4384
  -4951525.18649  -3842824.54348  20647158.9014   20647157.1124
     -1169.2034
 -15543279.12448 -12102900.07847  21211325.4644   21211323.3944
      1973.2194
 04  9 14 16 32 14.9990000  0  6G 1G11G14G23G25G20
  -7297488.02549  -5668081.35748  20352616.7844   20352616.0384
       -76.9694
   -834840.73749   -636491.32646  21506632.6284   21506629.9254
     -1910.2974
  13628663.29645  10607365.26642  24000992.3704   24000992.1164
     -3068.4534
  -8683797.98747  -6755115.18445  22319486.6594   22319482.5264
      2059.3134
  -4933910.82749  -3829099.07148  20650510.6984   20650509.0194
     -1179.3754
 -15572830.75649 -12125927.31947  21205702.3314   21205699.6674
      1967.0634
 04  9 14 16 32 29.9990000  0  6G 1G11G14G23G25G20
  -7296277.38149  -5667138.00648  20352847.5654   20352846.4254
       -84.0004
   -806106.77449   -614101.24447  21512100.5114   21512098.0894
     -1920.4064
  13674712.51345  10643247.75142  24009755.0114   24009755.0384
     -3070.9844
  -8714641.79048  -6779149.30245  22313618.1444   22313613.1904
      2053.5784
  -4916137.64949  -3815249.83748  20653893.0584   20653891.1054
     -1189.9844
 -15602284.00749 -12148877.91247  21200097.2764   21200094.7844
      1960.4224
 04  9 14 16 32 44.9990000  0  6G 1G11G14G23G25G20
  -7294966.25049  -5666116.33348  20353097.3314   20353096.3784
       -90.4224
   -777225.50849   -591596.36047  21517596.2534   21517593.9214
     -1930.0474
  13720796.27945  10679157.11342  24018524.4404   24018523.8864
     -3073.2344
  -8745404.92748  -6803120.54645  22307763.8084   22307759.4644
      2048.4694
  -4898208.87549  -3801279.35948  20657304.9014   20657302.8194
     -1200.1874
 -15631641.80849 -12171754.10547  21194510.5654   21194508.2654
      1954.2194
 04  9 14 16 32 59.9990000  0  6G 1G11G14G23G25G20
  -7293551.85649  -5665014.22048  20353365.7924   20353364.6634
       -97.7814
   -748194.33349   -568974.67347  21523120.5654   21523118.3864
     -1940.4374
  13766917.25944  10715095.52542  24027299.5034   24027300.7334
     -3076.1094
  -8776084.50148  -6827026.69646  22301925.8474   22301920.8744
      2042.4224
  -4880121.89649  -3787185.61648  20660746.7374   20660745.0114
     -1211.1564
 -15660901.05549 -12194553.51147  21188942.7454   21188940.6014
      1947.2504
 04  9 14 16 33 14.9990000  0  6G 1G11G14G23G25G20
  -7292033.86449  -5663831.35448  20353654.8784   20353654.0814
      -104.7974
   -719013.06949   -546236.03447  21528673.6054   21528671.3584
     -1950.5944
  13813075.91444  10751063.29642  24036083.7924   24036084.6244
     -3078.4844
  -8806680.10348  -6850867.39646  22296103.1054   22296098.9834
      2036.8134
  -4861876.41449  -3772968.34748  20664218.4484   20664216.4684
     -1221.7504
 -15690060.92049 -12217275.48447  21183393.9484   21183391.5114
      1940.5784
 04  9 14 16 33 29.9990000  0  6G 1G11G14G23G25G20
  -7290410.89648  -5662566.69948  20353963.8944   20353962.7804
      -111.6564
   -689680.44049   -523379.43847  21534255.2454   21534253.3904
     -1960.4844
  13859273.54344  10787061.39742  24044874.8474   24044875.6084
     -3080.9694
  -8837190.26448  -6874641.51445  22290297.4804   22290293.2224
      2031.2034
  -4843471.11849  -3758626.55448  20667721.0504   20667718.8624
     -1232.2814
 -15719119.77748 -12239918.73847  21177864.0894   21177862.1364
      1933.9844
 04  9 14 16 33 44.9990000  0  6G 1G11G14G23G25G20
  -7288683.13849  -5661220.38948  20354292.7304   20354291.1014
      -118.7664
   -660196.77749   -500405.17447  21539866.0654   21539863.9014
     -1970.6724
  13905509.97445  10823089.72142  24053674.1674   24053674.6594
     -3083.5164
  -8867615.07048  -6898349.14145  22284507.9254   22284503.4524
      2025.5004
  -4824906.36249  -3744160.50148  20671253.6674   20671251.7374
     -1243.0624
 -15748077.55648 -12262483.24247  21172353.4954   21172351.3394
      1927.0784
 04  9 14 16 33 59.9990000  0  5G 1G11G23G25G20
  -7286857.39949  -5659797.73848  20354640.4334   20354638.9914
      -124.7974
   -630569.06049   -477318.65647  21545504.1754   21545502.3084
     -1979.8124
  -8897961.12648  -6921995.40546  22278733.5114   22278728.1674
      2020.6724
  -4806189.00549  -3729575.55548  20674815.6444   20674813.6754
     -1252.7034
 -15776940.75149 -12284974.03447  21166861.1124   21166859.0344
      1921.3134
 04  9 14 16 34 14.9990000  0  5G 1G11G23G25G20
  -7284932.89549  -5658298.12948  20355006.1904   20355004.8944
      -131.7504
   -600796.65749   -454119.38647  21551169.5034   21551167.5114
     -1989.8124
  -8928227.51048  -6945579.59545  22272973.2844   22272969.1364
      2014.9224
  -4787318.29749  -3714871.09548  20678406.3944   20678404.2844
     -1263.2974
 -15805708.08748 -12307390.13147  21161387.1834   21161384.4054
      1914.4694
 04  9 14 16 34 29.9990000  0  5G 1G11G23G25G20
  -7282900.41349  -5656714.36448  20355392.9404   20355392.1204
      -138.6724
   -570870.65849   -430800.42947  21556864.2454   21556862.0074
     -1999.7814
  -8958404.93648  -6969094.44645  22267230.7064   22267226.8004
      2009.2664
  -4768285.15249  -3700040.07648  20682028.3624   20682026.4604
     -1273.8594
 -15834370.17248 -12329724.21547  21155932.5194   21155930.8394
      1907.7034
 04  9 14 16 34 44.9990000  0  5G 1G11G23G25G20
  -7280761.90049  -5655047.99148  20355799.8944   20355798.9724
      -145.8594
   -540793.13149   -407363.39947  21562588.0344   21562585.4914
     -2010.0004
  -8988495.38448  -6992541.53645  22261504.3624   22261501.4644
      2003.2974
  -4749091.71849  -3685084.14348  20685680.7924   20685678.7534
     -1284.6874
 -15862928.62748 -12351977.54247  21150497.9484   21150495.9764
      1900.6414
 04  9 14 16 34 59.9990000  0  5G 1G11G23G25G20
  -7278520.43949  -5653301.39248  20356226.6204   20356225.3194
      -153.0164
   -510567.25149   -383810.77547  21568339.9334   21568337.5304
     -2020.1724
  -9018501.68348  -7015923.07945  22255794.8234   22255790.8394
      1997.4384
  -4729741.07549  -3670005.72948  20689362.8314   20689361.1444
     -1295.4224
 -15891386.13749 -12374152.22247  21145083.0344   21145080.5304
      1893.6414
 04  9 14 16 35 14.9990000  0  5G 1G11G23G25G20
  -7276178.69649  -5651476.66148  20356672.3704   20356671.1514
      -159.6874
   -480196.01249   -360144.88947  21574119.0584   21574116.4444
     -2029.7664
  -9048426.39348  -7039241.02545  22250100.4404   22250096.0974
      1992.0784
  -4710236.05849  -3654807.00948  20693074.5424   20693072.7694
     -1305.7034
 -15919745.10748 -12396250.12547  21139685.8474   21139683.4804
      1887.1414
 04  9 14 16 35 29.9990000  0  5G 1G11G23G25G20
  -7273730.36349  -5649568.86448  20357138.2064   20357137.5224
      -166.7194
   -449673.12249   -336360.82547  21579927.6204   21579925.5194
     -2039.8124
  -9078263.15048  -7062490.44346  22244422.6984   22244418.6904
      1986.2504
  -4690570.45049  -3639483.16348  20696816.8004   20696814.8044
     -1316.3914
 -15947998.78949 -12418265.98347  21134309.8944   21134307.4134
      1880.1564
 04  9 14 16 35 44.9990000  0  5G 1G11G23G25G20
  -7271178.61049  -5647580.48348  20357623.4804   20357622.4174
      -173.5004
   -419001.99648   -312461.26346  21585763.9334   21585761.6984
     -2049.5784
  -9108015.04048  -7085673.72046  22238761.4174   22238757.4444
      1980.7034
  -4670747.47549  -3624036.68948  20700589.3314   20700587.4094
     -1326.7034
 -15976150.10849 -12440202.07347  21128952.9724   21128950.5114
      1873.4384
 04  9 14 16 35 59.9990000  0  5G 1G11G23G25G20
  -7268524.96248  -5645512.68848  20358128.4094   20358127.2104
      -180.2344
   -388184.23648   -288447.42946  21591628.3864   21591626.0974
     -2059.3754
  -9137683.39248  -7108791.89146  22233115.7454   22233111.6904
      1975.1564
  -4650768.80249  -3608468.87648  20704390.9804   20704389.1834
     -1337.0164
 -16004200.22448 -12462059.29747  21123615.0734   21123612.6834
      1866.7034
 04  9 14 16 36 14.9990000  0  5G 1G11G23G25G20
  -7265771.22449  -5643366.92748  20358652.7534   20358651.2184
      -186.6094
   -357221.86048   -264320.90647  21597520.3084   21597517.9174
     -2068.6564
  -9167269.96648  -7131846.34546  22227485.2614   22227480.9804
      1970.0314
  -4630636.37949  -3592781.27848  20708222.1364   20708220.2614
     -1347.0004
 -16032150.67249 -12483838.86047  21118296.3784   21118294.2224
      1860.3594
 04  9 14 16 36 29.9990000  0  5G 1G11G23G25G20
  -7262917.08449  -5641142.90648  20359195.8704   20359194.4214
      -193.7344
   -326114.79849   -240081.64347  21603439.3624   21603437.7454
     -2078.7344
  -9196774.26648  -7154836.69046  22221871.0814   22221866.1084
      1964.0784
  -4610349.96149  -3576973.66848  20712082.3234   20712080.1554
     -1357.7194
 -16060000.65148 -12505540.13447  21112996.5424   21112994.3864
      1853.1564
 04  9 14 16 36 44.9990000  0  5G 1G11G23G25G20
  -7259962.66749  -5638840.76848  20359758.1754   20359756.8824
      -199.8284
   -294863.23448   -215729.78147  21609386.4334   21609384.7724
     -2087.8284
  -9226196.35948  -7177762.98646  22216272.1754   22216267.1554
      1959.1254
  -4589909.84949  -3561046.30848  20715972.1594   20715970.4764
     -1367.4224
 -16087750.14948 -12527163.11747  21107716.0974   21107713.6594
      1847.0314
 04  9 14 16 36 59.9990000  0  5G 1G11G23G25G20
  -7256906.83349  -5636459.59548  20360339.6984   20360338.2304
      -206.7344
   -263466.33748   -191264.67146  21615361.2454   21615359.9134
     -2097.6564
  -9255535.07448  -7200624.30545  22210688.9174   22210684.6554
      1953.5314
  -4569315.05249  -3544998.40448  20719890.9724   20719889.4684
     -1377.8444
 -16115397.68248 -12548706.64647  21102454.9724   21102452.8314
      1840.0784
 04  9 14 16 37 14.9990000  0  5G 1G11G23G25G20
  -7253756.12048  -5634004.49448  20360939.0814   20360937.3554
      -213.2344
   -231930.80548   -166691.54447  21621362.1984   21621360.4724
     -2107.0624
  -9284796.79348  -7223425.64145  22205120.4254   22205115.9564
      1948.1884
  -4548572.25249  -3528835.19248  20723838.1984   20723836.8274
     -1387.8754
 -16142949.36448 -12570175.48947  21097211.9564   21097209.4564
      1833.4694
 04  9 14 16 37 29.9990000  0  5G 1G11G23G25G20
  -7250506.15249  -5631472.04747  20361557.2454   20361556.0654
      -220.0004
   -200252.41348   -142007.07947  21627390.4484   21627388.6554
     -2116.6564
  -9313977.00348  -7246163.43545  22199567.7694   22199562.8394
      1942.5784
  -4527676.99349  -3512553.16548  20727814.5894   20727813.0384
     -1398.1094
 -16170400.52148 -12591565.98047  21091988.0504   21091985.7264
      1826.7034
 04  9 14 16 37 44.9990000  0  5G 1G11G23G25G20
  -7247154.80749  -5628860.60948  20362195.1904   20362193.8744
      -226.6874
   -168429.12148   -117209.72247  21633446.3784   21633444.4374
     -2126.3124
  -9343073.42948  -7268835.98045  22194030.6364   22194025.7494
      1937.0314
  -4506627.18149  -3496150.71048  20731820.0034   20731818.2884
     -1408.3444
 -16197748.60248 -12612876.17747  21086783.7694   21086781.8044
      1819.8284
 04  9 14 16 37 59.9990000  0  5G 1G11G23G25G20
  -7243703.24849  -5626171.07848  20362852.0974   20362850.6944
      -233.2664
   -136462.35548    -92300.56547  21639529.1984   21639527.3234
     -2135.6254
  -9372087.21848  -7291444.11346  22188509.3084   22188505.4334
      1931.7344
  -4485424.14949  -3479628.85348  20735854.8624   20735853.2534
     -1418.4374
 -16224994.56949 -12634106.79247  21081599.2374   21081597.3584
      1813.1564
 04  9 14 16 38 14.9990000  0  5G 1G11G23G25G20
  -7240151.15249  -5623403.22448  20363527.9014   20363526.2264
      -239.9534
   -104351.89148    -67279.44247  21645639.7144   21645638.2414
     -2145.1874
  -9401017.83648  -7313987.44646  22183004.0424   22183000.6474
      1926.1884
  -4464067.81849  -3462987.57548  20739918.9334   20739917.1164
     -1428.5784
 -16252137.67848 -12655257.27047  21076434.1514   21076431.9604
      1806.3594
 04  9 14 16 38 29.9990000  0  5G 1G11G23G25G20
  -7236501.75049  -5620559.52748  20364222.4014   20364221.1984
      -246.4064
    -72101.24048    -42149.06447  21651777.2304   21651775.3124
     -2154.5784
  -9429868.41548  -7336468.39145  22177513.7764   22177510.2184
      1920.8914
  -4442561.51849  -3446229.41348  20744011.7534   20744009.6514
     -1438.6414
 -16279180.84148 -12676329.84947  21071287.7534   21071285.4874
      1799.6414
 04  9 14 16 38 44.9990000  0  5G 1G11G23G25G20
  -7232755.29049  -5617640.19748  20364935.2534   20364934.1084
      -252.8594
    -39710.90448    -16909.85047  21657940.6674   21657939.0624
     -2163.8444
  -9458639.12848  -7358887.11345  22172038.9954   22172034.8664
      1915.4694
  -4420905.53849  -3429354.61148  20748132.3314   20748130.7534
     -1448.5624
 -16306123.95448 -12697324.47347  21066160.7374   21066158.5304
      1793.0164
 04  9 14 16 38 59.9990000  0  5G 1G11G23G25G20
  -7228909.47748  -5614643.46248  20365667.1984   20365665.4804
      -259.8594
     -7178.69348      8439.92147  21664131.1514   21664129.0814
     -2173.7194
  -9487327.54148  -7381241.72546  22166579.9404   22166576.1014
      1909.6254
  -4399097.58949  -3412361.40548  20752282.4174   20752280.9094
     -1459.0784
 -16332964.34848 -12718239.07047  21061053.3474   21061051.0114
      1785.8444
 04  9 14 16 39 14.9990000  0  5G 1G11G23G25G20
  -7224962.74249  -5611568.07948  20366418.1364   20366416.7264
      -266.5164
     25496.86048     33901.37846  21670349.6204   21670347.3784
     -2183.1254
  -9515932.05948  -7403530.93446  22161136.8474   22161132.9334
      1904.1884
  -4377136.47349  -3395248.83948  20756461.3784   20756459.8044
     -1469.0944
 -16359700.27848 -12739072.24447  21055965.3314   21055962.8274
      1778.9064
 04  9 14 16 39 29.9990000  0  5G 1G11G23G25G20
  -7220917.69549  -5608416.08748  20367188.1674   20367186.3274
      -272.8754
     58312.86648     59472.28846  21676594.2534   21676592.4094
     -2192.3444
  -9544455.19348  -7425756.73346  22155708.9874   22155705.0304
      1898.9384
  -4355024.89349  -3378019.04548  20760669.0734   20760667.4134
     -1479.0944
 -16386334.03148 -12759825.81847  21050897.2844   21050895.1364
      1772.1724
 04  9 14 16 39 44.9990000  0  5G 1G11G23G25G20
  -7216770.90149  -5605184.81948  20367977.1674   20367975.8584
      -279.7814
     91272.57648     85155.15746  21682866.0584   21682864.1284
     -2202.0624
  -9572893.29248  -7447916.28446  22150297.8234   22150293.5114
      1893.0784
  -4332759.40949  -3360669.30948  20764906.0424   20764904.1874
     -1489.4374
 -16412861.71849 -12780496.74547  21045848.9874   21045847.2304
      1765.0164
 04  9 14 16 39 59.9990000  0  5G 1G11G23G25G20
  -7212523.55448  -5601875.20248  20368785.5194   20368783.9724
      -286.5784
    124374.56948    110948.91846  21689165.2764   21689163.2964
     -2211.5164
  -9601247.56348  -7470010.50646  22144902.0584   22144898.1714
      1887.3754
  -4310341.41349  -3343200.73048  20769172.1444   20769170.0504
     -1499.6414
 -16439284.27848 -12801085.73347  21040821.1364   21040819.3944
      1757.9694
 04  9 14 16 40 14.9990000  0  5G 1G11G23G25G20
  -7208174.66349  -5598486.45548  20369612.7844   20369611.4644
      -293.0004
    157619.74848    136854.24046  21695491.5034   21695489.8154
     -2220.8284
  -9629516.83649  -7492038.49646  22139522.0584   22139517.9604
      1882.0004
  -4287769.94949  -3325612.58048  20773467.3234   20773465.7654
     -1509.5624
 -16465600.36748 -12821591.77647  21035813.0974   21035811.5694
      1751.0784
 04  9 14 16 40 29.9990000  0  5G 1G11G23G25G20
  -7203724.27949  -5595018.61848  20370459.8944   20370458.3004
      -299.9694
    191007.84048    162870.93846  21701845.2454   21701843.1124
     -2230.5004
  -9657701.04149  -7514000.20446  22134159.0654   22134155.3234
      1876.2814
  -4265045.25849  -3307905.02148  20777791.7374   20777789.7334
     -1520.0004
 -16491809.60048 -12842014.55047  21030825.7064   21030824.0154
      1743.8914
 04  9 14 16 40 44.9990000  0  5G 1G11G23G25G20
  -7199173.75148  -5591472.74648  20371325.8554   20371324.0074
      -306.8444
    224537.25148    188997.73947  21708225.5584   21708223.3474
     -2240.1254
  -9685801.42349  -7535896.59446  22128811.7924   22128808.0114
      1870.4224
  -4242168.66749  -3290079.10848  20782145.0974   20782143.0384
     -1530.3124
 -16517913.04248 -12862354.89047  21025858.5344   21025856.3474
      1736.5314
 04  9 14 16 41  0.0000000  0  5G 1G11G23G25G20
  -7194519.49949  -5587846.05148  20372211.3914   20372209.6604
      -314.0164
    258213.34548    215238.84347  21714634.1644   21714632.0124
     -2250.0314
  -9713816.54448  -7557726.56446  22123480.8444   22123476.8134
      1864.3914
  -4219135.61249  -3272131.27148  20786528.0944   20786525.9064
     -1540.9064
 -16543908.93048 -12882611.42047  21020911.6564   21020909.6134
      1729.0004
 04  9 14 16 41 15.0000000  0  5G 1G11G23G25G20
  -7189759.47349  -5584136.93948  20373117.0784   20373115.7274
      -320.7814
    292034.12148    241592.68347  21721069.9774   21721067.8984
     -2259.4534
  -9741739.82349  -7579484.95445  22118167.0554   22118163.1764
      1858.7034
  -4195946.63449  -3254061.93848  20790940.5634   20790938.5474
     -1551.0164
 -16569790.75248 -12902779.06047  21015986.8054   21015984.5044
      1721.8754
 04  9 14 16 41 30.0000000  0  5G 1G11G23G25G20
  -7184896.10648  -5580347.30748  20374042.6174   20374040.9614
      -327.4064
    325998.87848    268058.71947  21727533.1644   21727530.9694
     -2268.8754
  -9769575.78848  -7601175.29746  22112869.6334   22112865.7974
      1853.0314
  -4172602.97949  -3235872.07948  20795383.0864   20795380.7464
     -1561.1564
 -16595562.57548 -12922861.00347  21011082.5314   21011080.2704
      1714.6254
 04  9 14 16 41 45.0000000  0  5G 1G11G23G25G20
  -7179932.61848  -5576479.65648  20374987.3444   20374985.7034
      -334.1724
    360104.13948    294634.23546  21734022.9144   21734020.9694
     -2278.3124
  -9797327.56449  -7622800.04446  22107588.9534   22107585.0704
      1847.3134
  -4149108.08849  -3217564.36948  20799853.9384   20799851.8634
     -1571.2664
 -16621227.32248 -12942859.49347  21006198.7034   21006196.4924
      1707.4224
 04  9 14 16 42  0.0000000  0  5G 1G11G23G25G20
  -7174860.04049  -5572526.98148  20375952.2974   20375951.0864
      -341.3594
    394358.81548    321326.17646  21740541.6804   21740539.1294
     -2288.1724
  -9824986.03648  -7644352.09746  22102325.3284   22102321.5044
      1841.2814
  -4125453.05049  -3199131.87948  20804355.1884   20804353.6134
     -1581.9374
 -16646775.70449 -12962767.32347  21001336.8204   21001334.6334
      1699.8284
 04  9 14 16 42 15.0000000  0  5G 1G11G23G25G20
  -7169686.32848  -5568495.52347  20376936.8754   20376935.6374
      -348.1724
    428754.62448    348128.09646  21747087.2114   21747084.8324
     -2297.7504
  -9852559.04948  -7665837.55145  22097079.0084   22097074.8874
      1835.4384
  -4101645.94049  -3180580.88248  20808885.4614   20808883.3244
     -1592.1414
 -16672215.35149 -12982590.41747  20996495.9064   20996494.0634
      1692.4064
 04  9 14 16 42 30.0000000  0  5G 1G11G23G25G20
  -7164411.45748  -5564385.23148  20377940.5004   20377939.2384
      -355.0784
    463291.47148    375039.92446  21753659.5704   21753656.6094
     -2307.1874
  -9880046.52448  -7687256.34345  22091847.8444   22091843.8874
      1829.5474
  -4077686.93949  -3161911.53048  20813444.9774   20813442.8834
     -1602.4224
 -16697545.82648 -13002328.44647  20991675.6644   20991673.8554
      1685.0004
 04  9 14 16 42 45.0000000  0  5G 1G11G23G25G20
  -7159033.74149  -5560194.81048  20378964.3594   20378962.5864
      -362.0624
    497970.68848    402062.66546  21760258.3594   21760256.2344
     -2316.8914
  -9907446.61448  -7708607.04945  22086633.2664   22086629.4964
      1823.6094
  -4053574.56649  -3143122.67548  20818033.4694   20818031.3714
     -1612.7664
 -16722765.16649 -13021979.88447  20986876.6484   20986874.3444
      1677.4384
 04  9 14 16 43  0.0000000  0  5G 1G11G23G25G20
  -7153552.50448  -5555923.71848  20380007.1804   20380005.6564
      -368.7194
    532792.87748    429196.82646  21766884.5474   21766882.3094
     -2326.1254
  -9934758.50649  -7729889.02645  22081436.2974   22081432.0004
      1818.0474
  -4029308.08549  -3124213.72048  20822650.9694   20822648.7504
     -1622.7664
 -16747872.43748 -13041543.98247  20982098.5784   20982096.9344
      1670.2194
 04  9 14 16 43 15.0000000  0  5G 1G11G23G25G20
  -7147973.19649  -5551576.18748  20381069.0784   20381067.4964
      -375.0164
    567752.54748    456438.12746  21773537.1724   21773535.2544
     -2334.9694
  -9961987.58549  -7751106.48446  22076255.1334   22076250.6374
      1812.7344
  -4004893.10949  -3105189.06348  20827296.8914   20827295.5864
     -1632.4374
 -16772872.69549 -13061024.68147  20977341.2974   20977339.0784
      1663.2194
 04  9 14 16 43 30.0000000  0  5G 1G11G23G25G20
  -7142293.20948  -5547150.22648  20382150.0634   20382148.6644
      -381.8284
    602852.09048    483788.39946  21780216.8524   21780214.8484
     -2344.4534
  -9989131.20549  -7772257.34545  22071089.8834   22071085.5744
      1806.9224
  -3980327.14649  -3086046.75548  20831971.8834   20831970.2194
     -1642.5474
 -16797762.83948 -13080419.60047  20972604.5554   20972602.7274
      1655.8914
 04  9 14 16 43 45.0000000  0  5G 1G11G23G25G20
  -7136515.89449  -5542648.42348  20383249.1254   20383247.7384
      -388.3284
    638087.77048    511244.76646  21786921.8134   21786919.8754
     -2353.4694
 -10016192.59749  -7793344.14046  22065940.2664   22065936.3014
      1801.5314
  -3955613.71149  -3066789.53448  20836674.4144   20836673.0004
     -1652.3594
 -16822546.00148 -13099731.16247  20967888.7274   20967886.6684
      1648.7664
 04  9 14 16 44  0.0000000  0  5G 1G11G23G25G20
  -7130640.22449  -5538069.97648  20384367.3834   20384366.1134
      -395.4224
    673460.41948    538807.85947  21793652.9844   21793650.3754
     -2363.1724
 -10043170.53548  -7814365.88846  22060806.3444   22060802.6844
      1795.3594
  -3930751.87249  -3047416.67248  20841405.5394   20841403.8554
     -1662.8284
 -16847220.86248 -13118958.32347  20963193.4144   20963191.2734
      1640.9844
 04  9 14 16 44 15.0000000  0  5G 1G11G23G25G20
  -7124662.88849  -5533412.30848  20385504.6954   20385503.1054
      -401.7504
    708973.14448    566480.09946  21800411.0314   21800409.0944
     -2371.9694
 -10070061.69849  -7835320.03546  22055689.2504   22055685.2034
      1790.0004
  -3905738.42149  -3027925.66648  20846165.6094   20846163.9574
     -1672.4064
 -16871783.78348 -13138098.25147  20958519.4844   20958517.0204
      1633.9064
 04  9 14 16 44 30.0000000  0  5G 1G11G23G25G20
  -7118584.21148  -5528675.67948  20386661.7734   20386659.9884
      -408.7974
    744625.55848    594261.20246  21807195.0004   21807193.0984
     -2381.6564
 -10096866.14549  -7856206.60546  22050588.7424   22050584.6844
      1783.9534
  -3880573.90949  -3008316.96248  20850954.5164   20850952.5314
     -1682.8124
 -16896234.73148 -13157150.93147  20953866.6094   20953864.4224
      1626.1414
 04  9 14 16 44 45.0000000  0  5G 1G11G23G25G20
  -7112402.40449  -5523858.68048  20387837.8134   20387836.3444
      -415.5624
    780419.05948    622152.22746  21814006.6484   21814004.3204
     -2390.9844
 -10123582.19549  -7877024.30246  22045504.7114   22045501.1644
      1778.0944
  -3855256.74649  -2988589.30448  20855771.6414   20855770.5514
     -1692.9064
 -16920571.55648 -13176114.69147  20949235.1414   20949233.5664
      1618.5474
 04  9 14 16 45  0.0000000  0  5G 1G11G23G25G20
  -7106117.04649  -5518961.00248  20389033.9534   20389032.4264
      -422.2974
    816353.97748    650153.46246  21820844.8834   21820842.3954
     -2400.2664
 -10150209.24249  -7897772.63846  22040437.5164   22040434.0354
      1772.3594
  -3829786.59749  -2968742.43048  20860618.5474   20860616.6174
     -1702.9374
 -16944793.58948 -13194988.99547  20944625.7734   20944623.5784
      1611.2194
 04  9 14 16 45 15.0000000  0  5G 1G11G23G25G20
  -7099730.72648  -5513984.64948  20390249.1564   20390247.5204
      -428.7664
    852427.52848    678262.70346  21827709.2424   21827707.0514
     -2409.1564
 -10176749.81748  -7918453.60446  22035386.8204   22035383.7234
      1766.8134
  -3804166.10649  -2948778.42948  20865494.0474   20865492.1804
     -1712.7034
 -16968903.02248 -13213775.56747  20940037.8914   20940035.8204
      1603.8444
 04  9 14 16 45 30.0000000  0  5G 1G11G23G25G20
  -7093245.96249  -5508931.59048  20391483.0784   20391481.3984
      -435.8124
    888636.94548    706477.83346  21834599.7274   21834597.7774
     -2418.7194
 -10203206.20848  -7939068.96146  22030352.5554   22030348.5784
      1760.7194
  -3778398.03949  -2928699.41348  20870397.6174   20870395.9304
     -1723.0164
 -16992902.08949 -13232476.12647  20935471.3204   20935468.8324
      1596.0314
 04  9 14 16 45 45.0000000  0  5G 1G11G23G25G20
  -7086658.46949  -5503798.47848  20392736.6024   20392735.3794
      -442.8444
    924986.25448    734801.95546  21841516.5234   21841514.5004
     -2428.2504
 -10229574.15949  -7959615.42446  22025335.0784   22025331.0314
      1754.6414
  -3752478.24349  -2908502.17048  20875329.8204   20875328.3794
     -1733.3124
 -17016786.13849 -13251087.07847  20930926.0554   20930924.3054
      1588.0944
 04  9 14 16 46  0.0000000  0  5G 1G11G23G25G20
  -7079970.85649  -5498587.34548  20394009.2664   20394007.6724
      -449.1094
    961472.69948    763232.93546  21848459.7424   21848458.1294
     -2437.0624
 -10255856.26748  -7980094.96346  22020333.1334   22020329.9884
      1749.3134
  -3726409.53649  -2888188.89648  20880290.3364   20880288.8874
     -1742.8914
 -17040557.41848 -13269610.14047  20926402.8134   20926400.7274
      1581.0004
 04  9 14 16 46 15.0000000  0  5G 1G11G23G25G20
  -7073183.14549  -5493298.21948  20395301.1254   20395299.4924
      -456.0784
    998096.00248    791770.56846  21855428.8674   21855426.7304
     -2446.2344
 -10282052.31348  -8000507.46646  22015348.3674   22015344.4774
      1743.3594
  -3700191.92749  -2867759.58348  20885279.5784   20885277.3954
     -1752.9534
 -17064215.62548 -13288045.10647  20921900.6954   20921898.3404
      1573.2504
 04  9 14 16 46 30.0000000  0  5G 1G11G23G25G20
  -7066294.97449  -5487930.81848  20396612.2194   20396610.2894
      -462.6094
   1034856.41248    820415.02946  21862424.4534   21862422.1644
     -2455.3284
 -10308161.80249  -8020852.52546  22010380.5084   22010375.8054
      1737.7034
  -3673825.07749  -2847213.99548  20890296.9844   20890295.6764
     -1762.7974
 -17087760.08848 -13306391.43847  20917420.3914   20917418.0354
      1565.7504
 04  9 14 16 46 45.0000000  0  5G 1G11G23G25G20
  -7059306.90249  -5482485.57048  20397941.7114   20397940.0164
      -469.4064
   1071753.01348    849165.61046  21869445.6094   21869443.4694
     -2464.4844
 -10334185.06849  -8041130.39346  22005428.6414   22005424.5824
      1731.7814
  -3647309.73749  -2826552.69548  20895343.0864   20895341.0434
     -1772.8444
 -17111191.02848 -13324649.31547  20912961.4064   20912958.9614
      1558.1254
 04  9 14 16 47  0.0000000  0  5G 1G11G23G25G20
  -7052217.10649  -5476961.05248  20399290.8594   20399289.0634
      -475.9694
   1108787.52848    878023.66946  21876492.6954   21876490.7894
     -2473.4374
 -10360120.30849  -8061339.63846  22000492.6174   22000488.2584
      1726.1724
  -3620644.31349  -2805774.43748  20900417.1644   20900414.9384
     -1782.5784
 -17134506.27349 -13342817.03947  20908524.4144   20908522.7384
      1550.5944
 04  9 14 16 47 15.0000000  0  5G 1G11G23G25G20
  -7045028.40249  -5471359.45848  20400658.8524   20400656.8834
      -482.9534
   1145956.88548    906986.80346  21883565.8364   21883563.8244
     -2482.7344
 -10385970.31649  -8081482.48346  21995573.5314   21995569.5864
      1720.1414
  -3593831.79349  -2784881.55948  20905519.7584   20905517.8324
     -1792.7974
 -17157708.27748 -13360896.51247  20904109.4454   20904107.1024
      1542.6414
 04  9 14 16 47 30.0000000  0  5G 1G11G23G25G20
  -7037736.63849  -5465677.56848  20402046.2734   20402044.7154
      -489.3914
   1183265.03948    936058.07246  21890665.3594   21890663.7704
     -2491.6414
 -10411730.80149  -8101555.58146  21990672.2194   21990667.3324
      1714.5474
  -3566868.15449  -2763870.94148  20910650.6954   20910648.4964
     -1802.4534
 -17180792.65748 -13378884.33747  20899716.7974   20899714.2664
      1535.2034
 04  9 14 16 47 45.0000000  0  5G 1G11G23G25G20
  -7030345.78949  -5459918.46548  20403452.7274   20403450.8364
      -496.0314
   1220707.74348    965234.18946  21897790.6954   21897789.3874
     -2500.7194
 -10437405.63049  -8121561.94346  21985786.0084   21985781.0514
      1708.8134
  -3539757.55949  -2742745.81248  20915809.6254   20915807.5474
     -1812.2664
 -17203762.88748 -13396783.22247  20895345.5474   20895343.2154
      1527.5164
 04  9 14 16 48  0.0000000  0  5G 1G11G23G25G20
  -7022853.36749  -5454080.21948  20404878.6254   20404876.8554
      -502.6414
   1258287.37148    994517.01146  21904942.0864   21904940.2274
     -2509.5944
 -10462992.19649  -8141499.52646  21980917.1174   21980912.8134
      1703.0164
  -3512497.65149  -2721504.32748  20920996.6804   20920995.0784
     -1822.0784
 -17226616.18948 -13414590.99647  20890996.7664   20890994.6914
      1519.9224
 04  9 14 16 48 15.0000000  0  5G 1G11G23G25G20
  -7015262.40349  -5448165.18048  20406322.8204   20406321.7734
      -509.0474
   1296000.66748   1023903.98446  21912118.5474   21912116.4454
     -2518.3914
 -10488493.43149  -8161370.59646  21976064.4454   21976060.3164
      1697.4844
  -3485091.50649  -2700148.89648  20926211.9774   20926210.1174
     -1831.6724
 -17249355.34548 -13432309.80947  20886669.4774   20886667.4184
      1512.4534
 04  9 14 16 48 30.0000000  0  5G 1G11G23G25G20
  -7007569.06049  -5442170.36348  20407787.0474   20407785.5204
      -516.2504
   1333851.22648   1053397.91946  21919321.4304   21919319.5124
     -2527.8594
 -10513905.32049  -8181172.04946  21971228.6804   21971224.7774
      1691.2664
  -3457535.55149  -2678676.71248  20931455.4694   20931453.6954
     -1841.9374
 -17271976.11348 -13449936.38347  20882365.0704   20882362.9534
      1504.2344
 04  9 14 16 48 45.0000000  0  5G 1G11G23G25G20
  -6999773.21349  -5436095.67248  20409270.4454   20409268.5704
      -523.2974
   1371839.00748   1082998.78346  21926550.0474   21926548.4494
     -2537.2664
 -10539227.72349  -8200903.78146  21966409.7894   21966405.7304
      1685.0314
  -3429829.80649  -2657087.82548  20936727.8754   20936725.8554
     -1852.1874
 -17294478.07848 -13467470.36847  20878083.0634   20878080.9574
      1496.0474
 04  9 14 16 49  0.0000000  0  5G 1G11G23G25G20
  -6991874.66149  -5429940.97048  20410773.5394   20410772.0864
      -529.6874
   1409963.86348   1112706.44846  21933805.1484   21933803.1484
     -2545.8444
 -10564460.32149  -8220565.55046  21961608.5084   21961604.0864
      1679.5314
  -3401974.20049  -2635382.15848  20942028.7274   20942026.7734
     -1861.6874
 -17316860.70349 -13484911.38147  20873823.6564   20873821.1724
      1488.4844
 04  9 14 16 49 15.0000000  0  5G 1G11G23G25G20
  -6983874.51849  -5423707.08248  20412295.9614   20412294.6174
      -536.7974
   1448224.41748   1142519.86846  21941086.0554   21941083.6214
     -2555.2504
 -10589604.19549  -8240158.17246  21956823.3204   21956819.6334
      1673.2814
  -3373969.98549  -2613560.69248  20947357.5784   20947355.6844
     -1871.8914
 -17339124.80248 -13502260.03047  20869587.0944   20869584.5274
      1480.2974
 04  9 14 16 49 30.0000000  0  5G 1G11G23G25G20
  -6975771.06949  -5417392.70948  20413838.0864   20413836.1844
      -543.3124
   1486622.24848   1172440.23446  21948393.0314   21948390.4344
     -2564.0004
 -10614657.46949  -8259680.19846  21952055.7584   21952051.6564
      1667.5474
  -3345815.52749  -2591622.16148  20952715.3364   20952713.1644
     -1881.5944
 -17361268.26248 -13519514.66847  20865373.0784   20865371.3014
      1472.5474
 04  9 14 16 49 45.0000000  0  5G 1G11G23G25G20
  -6967569.78448  -5411002.09148  20415398.6564   20415396.6484
      -550.3284
   1525151.63148   1202463.11946  21955724.5084   21955722.6564
     -2573.3284
 -10639625.55449  -8279135.84146  21947304.6724   21947300.4534
      1661.4534
  -3317516.43649  -2569570.92848  20958100.4224   20958098.8954
     -1891.6564
 -17383296.24748 -13536679.34147  20861181.5474   20861179.4494
      1464.4064
 04  9 14 16 50  0.0000000  0  6G 1G11G16G23G25G20
  -6959270.18649  -5404534.88048  20416977.8914   20416976.2504
      -556.6094
   1563812.82348   1232588.69446  21963081.7034   21963079.5434
     -2581.8284
    -82513.08657    -55113.18252  24001912.4534   24001912.6994
      2530.4694
 -10664507.84349  -8298524.63846  21942569.9844   21942566.0004
      1655.9844
  -3289072.50449  -2547406.82448  20963513.3524   20963511.6214
     -1901.1414
 -17405207.89848 -13553753.34947  20857011.9534   20857009.8984
      1456.8914
 04  9 14 16 50 15.0000000  0  6G 1G11G16G23G25G20
  -6950871.76349  -5397990.65548  20418576.2274   20418574.3594
      -563.0314
   1602606.24448   1262817.31546  21970463.5634   21970461.9104
     -2590.5164
   -120442.26247    -84668.34742  23994694.0004   23994695.0634
      2526.8444
 -10689303.68049  -8317846.06246  21937851.0474   21937846.9654
      1650.3594
  -3260483.41549  -2525129.61648  20968953.2814   20968951.6214
     -1910.6414
 -17427002.42149 -13570736.09547  20852864.4064   20852862.1414
      1449.2194
 04  9 14 16 50 30.0000000  0  6G 1G11G16G23G25G20
  -6942376.94549  -5391371.31048  20420192.8054   20420191.3404
      -569.5164
   1641529.39348   1293147.04046  21977870.3754   21977869.0354
     -2599.1254
   -158317.00347   -114181.05442  23987487.8364   23987487.6644
      2523.2034
 -10714015.36649  -8337101.91146  21933148.7974   21933144.6724
      1644.6724
  -3231751.58249  -2502741.17148  20974421.1334   20974419.6374
     -1920.2034
 -17448681.96449 -13587629.24147  20848739.0864   20848736.9184
      1441.5164
 04  9 14 16 50 45.0000000  0  6G 1G11G16G23G25G20
  -6933785.81348  -5384676.92148  20421827.5784   20421826.2154
      -575.5784
   1680581.66348   1323577.37746  21985301.7814   21985300.1294
     -2607.4694
   -196137.15347   -143651.25742  23980289.7114   23980290.1764
      2519.7504
 -10738642.98849  -8356292.25346  21928462.2894   21928458.2704
      1639.3594
  -3202877.25549  -2480241.69948  20979915.8204   20979914.0004
     -1929.3284
 -17470246.13549 -13604432.49247  20844635.6724   20844633.3874
      1434.1564
 04  9 14 16 51  0.0000000  0  6G 1G11G16G23G25G20
  -6925098.62649  -5377907.68548  20423480.5784   20423479.1454
      -582.7034
   1719762.58948   1354107.95346  21992757.7664   21992756.1884
     -2616.7344
   -233902.46447   -173078.72743  23973104.1484   23973104.5784
      2515.4844
 -10763186.70449  -8375417.21046  21923792.1174   21923787.6484
      1633.0474
  -3173860.89749  -2457631.56148  20985437.3364   20985435.4344
     -1939.5164
 -17491694.92749 -13621145.83747  20840553.9144   20840551.7234
      1425.7504
 04  9 14 16 51 15.0000000  0  6G 1G11G16G23G25G20
  -6916309.93449  -5371059.36348  20425152.7664   20425151.0354
      -589.0164
   1759077.34048   1384742.80846  22000238.9454   22000237.7074
     -2625.0624
   -271606.90647   -202458.76643  23965929.0084   23965928.3244
      2511.8444
 -10787640.89749  -8394472.40646  21919138.4534   21919134.0944
      1627.6414
  -3144697.21849  -2434906.61748  20990986.5634   20990985.2344
     -1948.8124
 -17513022.59148 -13637764.78547  20836495.7114   20836493.6884
      1418.0944
 04  9 14 16 51 30.0000000  0  6G 1G11G16G23G25G20
  -6907426.37249  -5364137.10548  20426843.5704   20426842.2544
      -595.3124
   1798519.15548   1415476.67046  22007744.8364   22007743.1454
     -2633.6724
   -309256.66547   -231796.21542  23958763.7344   23958763.1954
      2508.1564
 -10812012.18349  -8413463.01646  21914500.7734   21914496.1334
      1622.0474
  -3115392.99749  -2412072.16248  20996563.6024   20996561.7814
     -1958.2814
 -17534235.43849 -13654294.28147  20832458.7344   20832456.4614
      1410.3914
 04  9 14 16 51 45.0000000  0  6G 1G11G16G23G25G20
  -6898450.22249  -5357142.70348  20428551.5474   20428549.7544
      -601.2344
   1838085.58248   1446307.64146  22015274.0784   22015271.9344
     -2641.6874
   -346853.65947   -261092.54942  23951609.2424   23951608.6604
      2504.9534
 -10836302.74449  -8432390.71846  21909878.2974   21909873.7424
      1616.9384
  -3085950.66149  -2389130.07948  21002166.1094   21002164.0904
     -1967.1724
 -17555335.49449 -13670735.87247  20828443.5784   20828441.1054
      1403.1254
 04  9 14 16 52  0.0000000  0  6G 1G11G16G23G25G20
  -6889375.47649  -5350071.48748  20430278.3984   20430276.8164
      -608.8444
   1877782.27448   1477240.11146  22022828.2734   22022826.0234
     -2651.3124
   -384391.35747   -290342.66042  23944466.2344   23944465.4964
      2499.9844
 -10860506.30549  -8451250.62846  21905271.9844   21905268.0394
      1610.0944
  -3056364.51749  -2366075.95148  21007796.1724   21007794.2384
     -1977.8594
 -17576316.32649 -13687084.57748  20824451.1884   20824448.5554
      1394.0784
 04  9 14 16 52 15.0000000  0  6G 1G11G16G23G25G20
  -6880202.32549  -5342923.57148  20432023.8754   20432022.3204
      -614.5784
   1917608.87148   1508273.81746  22030406.7114   22030404.5784
     -2659.2974
   -421869.44447   -319546.31142  23937334.8914   23937333.8834
      2496.7974
 -10884623.03049  -8470042.86846  21900682.8284   21900679.0274
      1605.0314
  -3026634.69649  -2342909.85948  21013453.4064   21013451.7544
     -1986.5784
 -17597177.68249 -13703340.16848  20820481.5474   20820478.5904
      1386.9694
 04  9 14 16 52 30.0000000  0  6G 1G11G16G23G25G20
  -6870938.73149  -5335705.18448  20433786.7344   20433785.3914
      -620.9694
   1957557.06848   1539402.26646  22038008.4384   22038006.5944
     -2667.6414
   -459295.43647   -348709.37342  23930212.8134   23930211.5634
      2492.8444
 -10908660.87649  -8488773.64746  21896108.9924   21896104.8204
      1599.4694
  -2996769.35749  -2319638.16948  21019136.6484   21019134.7074
     -1995.9534
 -17617927.33949 -13719508.74148  20816532.7814   20816530.2934
      1379.1414
 04  9 14 16 52 45.0000000  0  6G 1G11G16G23G25G20
  -6861576.86449  -5328410.22848  20435568.4694   20435566.8324
      -627.5004
   1997634.65448   1570631.54546  22045635.3284   22045633.5274
     -2676.2344
   -496660.99647   -377825.34142  23923102.0394   23923101.5594
      2488.8754
 -10932611.81349  -8507436.68846  21891551.0164   21891546.8554
      1593.7034
  -2966760.68449  -2296254.79548  21024847.3914   21024845.5394
     -2005.4374
 -17638557.00349 -13735583.80847  20812607.4224   20812605.0084
      1371.1724
 04  9 14 16 53  0.0000000  0  6G 1G11G16G23G25G20
  -6852118.90349  -5321040.39548  20437368.1414   20437366.3554
      -634.1724
   2037839.26248   1601959.78846  22053286.2894   22053284.0394
     -2684.8754
   -533967.95247   -406895.69742  23916002.2274   23916002.2774
      2484.7664
 -10956478.00449  -8526033.72846  21887009.5474   21887005.6684
      1587.8134
  -2936611.30249  -2272761.76548  21030584.2584   21030582.4964
     -2015.0474
 -17659068.65549 -13751566.91048  20808703.6094   20808701.9184
      1363.1094
 04  9 14 16 53 15.0000000  0  6G 1G11G16G23G25G20
  -6842563.99549  -5313595.01148  20439186.0944   20439184.8914
      -639.8284
   2078171.39448   1633387.42446  22060961.2584   22060958.9384
     -2692.6724
   -571214.94847   -435919.26842  23908915.0394   23908914.1644
      2481.5164
 -10980258.44349  -8544563.93446  21882484.1174   21882480.5944
      1582.9064
  -2906320.47349  -2249158.52248  21036348.5004   21036346.7384
     -2023.6724
 -17679460.99049 -13767457.03247  20804823.2274   20804821.0744
      1355.8594
 04  9 14 16 53 30.0000000  0  6G 1G11G16G23G25G20
  -6832916.56449  -5306077.53048  20441022.1254   20441020.6914
      -646.2814
   2118626.31348   1664910.71946  22068659.6954   22068657.2344
     -2701.1724
   -608405.97147   -464899.22642  23901837.8914   23901836.2974
      2477.5634
 -11003957.54749  -8563030.75346  21877974.4694   21877971.0234
      1577.2034
  -2875892.81949  -2225448.66548  21042138.4614   21042137.3554
     -2033.0784
 -17699738.30049 -13783257.53747  20800964.5634   20800962.3554
      1347.9384
 04  9 14 16 53 45.0000000  0  6G 1G11G16G23G25G20
  -6823173.66149  -5298485.66748  20442876.3524   20442874.6414
      -652.7974
   2159206.76948   1696531.84046  22076381.6804   22076380.0044
     -2709.6254
   -645537.50647   -493832.88742  23894772.5864   23894770.5704
      2473.3914
 -11027572.16949  -8581431.74746  21873480.7274   21873477.2384
      1571.4694
  -2845325.38749  -2201629.90548  21047955.4774   21047953.5744
     -2042.5624
 -17719897.23849 -13798965.79447  20797128.7344   20797126.6764
      1339.9064
 04  9 14 16 54  0.0000000  0  6G 1G11G16G23G25G20
  -6813335.20649  -5290819.34048  20444748.6414   20444747.4494
      -659.2344
   2199912.68748   1728250.72046  22084127.7894   22084125.6804
     -2718.0944
   -682609.10248   -522719.84542  23887717.5084   23887716.5704
      2469.3284
 -11051102.17049  -8599766.80946  21869003.6254   21868999.3554
      1565.7344
  -2814618.33749  -2177702.34048  21053798.8364   21053797.0664
     -2051.9224
 -17739937.38348 -13814581.49348  20793315.0164   20793312.8014
      1331.9534
 04  9 14 16 54 15.0000000  0  6G 1G11G16G23G25G20
  -6803400.09149  -5283077.67948  20446639.1484   20446637.4774
      -665.1564
   2240744.86048   1760067.99046  22091897.7274   22091895.9104
     -2725.9534
   -719619.11947   -551558.75542  23880674.5634   23880674.0554
      2465.6414
 -11074546.31649  -8618034.96046  21864542.2814   21864538.0634
      1560.4694
  -2783770.66249  -2153665.18348  21059668.8984   21059667.6524
     -2060.9064
 -17759857.19749 -13830103.41248  20789524.3984   20789521.9144
      1324.3444
 04  9 14 16 54 30.0000000  0  6G 1G11G16G23G25G20
  -6793371.48749  -5275263.19448  20448547.6644   20448546.2814
      -671.9374
   2281699.87348   1791980.96446  22099691.5554   22099689.5434
     -2734.6414
   -756570.31747   -580351.85942  23873642.7274   23873641.8914
      2461.1724
 -11097907.77849  -8636238.69846  21860096.7584   21860092.4804
      1554.4844
  -2752785.79549  -2129521.14948  21065565.1884   21065563.4064
     -2070.4534
 -17779659.57648 -13845533.85248  20785756.1414   20785754.0274
      1315.9534
 04  9 14 16 54 45.0000000  0  6G 1G11G16G23G25G20
  -6783247.34449  -5267374.24748  20450473.8594   20450472.6094
      -678.2974
   2322779.51848   1823991.06746  22107508.4534   22107506.5434
     -2742.9694
   -793460.22647   -609097.20642  23866622.8524   23866622.1024
      2457.0784
 -11121184.36349  -8654376.29146  21855667.1564   21855663.1094
      1548.6724
  -2721661.84249  -2105268.72348  21071487.8444   21071486.2774
     -2079.7664
 -17799342.11748 -13860870.87648  20782010.7274   20782008.2734
      1308.0004
 04  9 14 16 55  0.0000000  0  6G 1G11G16G23G25G20
  -6773023.57749  -5259407.67748  20452419.6484   20452418.1454
      -684.5944
   2363987.79448   1856101.38846  22115350.4224   22115348.3054
     -2751.1724
   -830284.18747   -637791.16343  23859615.8594   23859614.7074
      2453.0784
 -11144371.86649  -8672444.45546  21851254.3364   21851250.4414
      1543.1884
  -2690394.89449  -2080904.86248  21077437.7344   21077436.0864
     -2088.7974
 -17818900.43049 -13876111.11347  20778288.7194   20778287.1764
      1300.0944
 04  9 14 16 55 15.0000000  0  6G 1G11G16G23G25G20
  -6762703.00049  -5251365.67648  20454383.4064   20454381.6804
      -691.1414
   2405321.80048   1888309.69946  22123215.8364   22123213.7234
     -2759.6724
   -867044.64547   -666435.66543  23852620.2664   23852619.3554
      2448.6884
 -11167472.97349  -8690445.30846  21846858.6724   21846854.3794
      1537.3914
  -2658987.84949  -2056431.85648  21083414.2734   21083412.5474
     -2098.2974
 -17838336.94949 -13891256.45747  20774590.3834   20774588.3134
      1291.8594
 04  9 14 16 55 30.0000000  0  6G 1G11G16G23G25G20
  -6752282.47349  -5243245.77548  20456366.3364   20456364.7034
      -698.1414
   2446784.04148   1920617.92546  22131105.7034   22131104.0594
     -2768.5164
   -903737.96847   -695027.78842  23845637.7194   23845636.7074
      2443.8754
 -11190484.45249  -8708376.31546  21842479.3054   21842475.1484
      1531.0784
  -2627437.73649  -2031847.35048  21089418.0784   21089416.1804
     -2108.1724
 -17857648.24949 -13906304.21448  20770915.4064   20770913.0744
      1283.1884
 04  9 14 16 55 45.0000000  0  6G 1G11G16G23G25G20
  -6741765.42349  -5235050.67548  20458367.4694   20458366.4264
      -704.0164
   2488370.94848   1953023.28246  22139019.7194   22139017.7384
     -2776.2814
   -940367.06447   -723569.95143  23838667.7664   23838667.1134
      2439.9844
 -11213409.54649  -8726240.00746  21838116.7894   21838113.1454
      1525.7504
  -2595748.07949  -2007154.11648  21095448.7274   21095446.8754
     -2117.0004
 -17876837.44049 -13921256.83347  20767264.0234   20767261.9534
      1275.4844
 04  9 14 16 56  0.0000000  0  6G 1G11G16G23G25G20
  -6731154.22048  -5226782.21448  20460387.0164   20460385.6484
      -710.7814
   2530079.94648   1985523.79146  22146956.5164   22146954.7504
     -2784.8754
   -976933.92347   -752063.55943  23831709.4844   23831708.4264
      2435.5004
 -11236250.75849  -8744038.35246  21833770.6484   21833766.2664
      1519.6724
  -2563921.56049  -1982354.24148  21101504.9224   21101503.2384
     -2126.4844
 -17895906.55548 -13936115.88647  20763634.8674   20763632.6374
      1267.1094
 04  9 14 16 56 15.0000000  0  6G 1G11G16G23G25G20
  -6720445.29849  -5218437.59548  20462424.8054   20462423.6804
      -717.2034
   2571914.42248   2018122.06546  22154917.7814   22154915.1804
     -2793.1874
  -1013434.56646   -780505.55843  23824762.7424   23824762.5664
      2431.0314
 -11259004.33349  -8761768.39646  21829440.7274   21829436.2704
      1513.8754
  -2531954.72949  -1957445.02348  21107588.2424   21107586.7114
     -2135.8754
 -17914851.66548 -13950878.30747  20760029.8364   20760027.7854
      1258.7344
 04  9 14 16 56 30.0000000  0  6G 1G11G16G23G25G20
  -6709640.33648  -5210018.13747  20464481.0314   20464479.4414
      -723.6254
   2613872.45048   2050816.61446  22162901.6644   22162899.5704
     -2801.3284
  -1049869.97047   -808896.75242  23817829.8754   23817828.5784
      2426.7034
 -11281671.83649  -8779431.37646  21825127.0944   21825123.1954
      1508.2504
  -2499849.60149  -1932428.03748  21113697.3524   21113695.3714
     -2144.9844
 -17933674.20348 -13965545.20647  20756448.0634   20756445.9804
      1250.6564
 04  9 14 16 56 45.0000000  0  6G 1G11G16G23G25G20
  -6698736.90348  -5201521.96748  20466555.7504   20466554.4534
      -730.3124
   2655956.08148   2083609.04246  22170910.1884   22170907.8444
     -2809.9374
  -1086237.37347   -837234.95942  23810908.5864   23810908.1994
      2422.0314
 -11304250.68549  -8797025.27446  21820830.1644   21820826.2304
      1502.1724
  -2467603.69749  -1907301.37148  21119833.6254   21119831.6884
     -2154.5004
 -17952371.37648 -13980114.43147  20752889.8834   20752888.1094
      1242.1094
 04  9 14 16 57  0.0000000  0  6G 1G11G16G23G25G20
  -6687735.55149  -5192949.48948  20468649.2734   20468648.1024
      -736.7504
   2698164.66148   2116498.82446  22178942.3524   22178939.7774
     -2818.0784
  -1122536.96147   -865520.32542  23804001.5554   23804001.0554
      2417.7194
 -11326741.49849  -8814550.57046  21816550.9774   21816546.7234
      1496.4384
  -2435217.72749  -1882065.55548  21125996.5084   21125994.4264
     -2163.7344
 -17970943.44348 -13994586.16848  20749356.3134   20749353.8984
      1233.9224
 04  9 14 16 57 15.0000000  0  6G 1G11G16G23G25G20
  -6676637.80949  -5184301.88948  20470760.9614   20470759.7034
      -743.1564
   2740496.47248   2149484.63946  22186997.5474   22186995.5124
     -2826.2504
  -1158769.63447   -893753.53043  23797107.2114   23797106.1134
      2413.2344
 -11349145.51649  -8832008.23446  21812287.5554   21812282.9144
      1490.7194
  -2402693.40249  -1856721.93348  21132185.5394   21132184.0744
     -2172.9064
 -17989391.61748 -14008961.36048  20745845.4454   20745842.9494
      1225.7344
 04  9 14 16 57 30.0000000  0  6G 1G11G16G23G25G20
  -6665443.15649  -5175578.78847  20472891.2504   20472890.1564
      -749.5784
   2782951.69348   2182566.61746  22195076.3364   22195074.5044
     -2834.4844
  -1194934.47347   -921933.88543  23790225.2034   23790223.8404
      2408.7034
 -11371462.15949  -8849397.81246  21808040.9064   21808036.4024
      1484.7974
  -2370030.51749  -1831270.34548  21138401.0394   21138399.4964
     -2182.2504
 -18007714.83648 -14023239.18247  20742358.5704   20742356.6884
      1217.3914
 04  9 14 16 57 45.0000000  0  6G 1G11G16G23G25G20
  -6654151.51349  -5166780.10848  20475040.2194   20475039.0434
      -756.1724
   2825530.11548   2215744.58746  22203178.5784   22203176.8094
     -2842.7974
  -1231030.89347   -950060.93643  23783355.7814   23783354.6174
      2403.9224
 -11393691.37849  -8866719.27646  21803810.7424   21803806.4414
      1478.8594
  -2337228.99649  -1805710.73048  21144642.8524   21144641.4304
     -2191.5624
 -18025912.85748 -14037419.46447  20738896.0084   20738893.5944
      1208.8444
 04  9 14 16 58  0.0000000  0  6G 1G11G16G23G25G20
  -6642757.06548  -5157901.31448  20477208.3914   20477207.2114
      -763.0164
   2868237.37548   2249022.95746  22211305.4534   22211303.6174
     -2851.3444
  -1267052.66247   -978129.79742  23776500.9304   23776499.6524
      2398.9844
 -11415827.09949  -8883967.87146  21799598.2504   21799594.3054
      1472.6414
  -2304283.27349  -1780038.73848  21150912.7814   21150910.4304
     -2201.1564
 -18043979.46848 -14051497.33847  20735457.7114   20735455.3054
      1200.1254
 04  9 14 16 58 15.0000000  0  6G 1G11G16G23G25G20
  -6631266.09449  -5148947.31448  20479394.9924   20479394.0124
      -769.3594
   2911066.96548   2282396.64246  22219456.1954   22219454.0704
     -2859.4224
  -1303005.56247  -1006145.01443  23769658.8204   23769658.1524
      2394.4534
 -11437875.57649  -8901148.48746  21795402.4224   21795398.3444
      1466.9384
  -2271199.71949  -1754259.34948  21157208.0704   21157206.3134
     -2210.2194
 -18061920.64748 -14065477.47547  20732043.7974   20732041.2704
      1191.8594
 04  9 14 16 58 30.0000000  0  6G 1G11G16G23G25G20
  -6619671.79748  -5139912.79548  20481601.3754   20481599.9104
      -776.2664
   2954025.33148   2315870.68346  22227630.5314   22227628.8284
     -2868.0314
  -1338882.38347  -1034100.91843  23762832.1254   23762831.4224
      2389.4064
 -11459829.92449  -8918255.76546  21791224.6884   21791220.9844
      1460.6724
  -2237971.89849  -1728367.54848  21163530.7814   21163529.2894
     -2219.8444
 -18079729.37448 -14079354.39248  20728654.6174   20728652.2154
      1182.9224
 04  9 14 16 58 45.0000000  0  6G 1G11G16G23G25G20
  -6607976.28849  -5130799.41748  20483826.9304   20483825.5204
      -783.1094
   2997110.18948   2349443.27346  22235829.4454   22235827.5984
     -2876.5784
  -1374684.71347  -1061998.85243  23756019.0004   23756018.1954
      2384.2664
 -11481692.25749  -8935291.34246  21787064.6954   21787060.3634
      1454.4224
  -2204602.15349  -1702365.14748  21169881.0474   21169879.6764
     -2229.3444
 -18097407.45748 -14093129.52348  20725290.6094   20725288.2584
      1174.1724
 04  9 14 16 59  0.0000000  0  6G 1G11G16G23G25G20
  -6596181.75249  -5121608.88048  20486071.3914   20486069.8754
      -789.2034
   3040319.13348   2383112.56145  22244051.5314   22244049.9454
     -2884.3284
  -1410414.40447  -1089840.13942  23749220.2424   23749218.7894
      2379.9384
 -11503464.43649  -8952256.67146  21782921.5944   21782917.4694
      1448.7974
  -2171092.55149  -1676253.78848  21176257.7894   21176255.8054
     -2238.2664
 -18114956.63748 -14106804.20648  20721950.9614   20721948.7664
      1165.9694
 04  9 14 16 59 15.0000000  0  6G 1G11G16G23G25G20
  -6584285.25049  -5112338.87048  20488335.1644   20488333.3914
      -796.5314
   3083654.78248   2416880.58345  22252298.2814   22252296.0554
     -2893.3914
  -1446067.94347  -1117622.07843  23742435.1174   23742434.3834
      2374.3754
 -11525143.63049  -8969149.53646  21778796.0944   21778792.1804
      1442.1414
  -2137440.45149  -1650031.36948  21182661.8914   21182660.0394
     -2248.2664
 -18132373.65348 -14120375.89948  20718636.7034   20718634.8014
      1156.6254
 04  9 14 16 59 30.0000000  0  6G 1G11G16G23G25G20
  -6572289.68849  -5102991.68048  20490618.0394   20490616.5514
      -803.1724
   3127113.97448   2450744.86545  22260568.3914   22260565.9804
     -2901.5624
  -1481647.87447  -1145346.66443  23735663.7424   23735663.9454
      2369.4384
 -11546732.66049  -8985972.14946  21774687.6254   21774683.4384
      1436.1254
  -2103648.93549  -1623700.33148  21189091.8594   21189090.5474
     -2257.5474
 -18149661.07848 -14133846.62148  20715347.1334   20715345.2154
      1148.0474
 04  9 14 16 59 45.0000000  0  6G 1G11G16G23G25G20
  -6560195.41549  -5093567.57048  20492919.3284   20492917.6484
      -809.9064
   3170696.15848   2484705.00545  22268861.7584   22268859.6604
     -2909.9064
  -1517154.00747  -1173013.75343  23728908.0634   23728908.2934
      2364.3284
 -11568231.71249  -9002724.64046  21770596.5474   21770592.6804
      1429.9384
  -2069718.48649  -1597261.02648  21195548.6174   21195547.0124
     -2266.9844
 -18166818.98949 -14147216.40847  20712082.0864   20712080.1804
      1139.2504
 04  9 14 17  0  0.0000000  0  6G 1G11G16G23G25G20
  -6547999.18049  -5084064.01448  20495240.4384   20495238.4144
      -816.5314
   3214404.31248   2518763.27945  22277178.7584   22277176.6134
     -2918.1414
  -1552582.71747  -1200620.50743  23722165.7734   23722165.0704
      2359.2504
 -11589637.42649  -9019404.40846  21766523.0474   21766518.7074
      1423.9064
  -2035646.15849  -1570711.16548  21202032.4304   21202030.6454
     -2276.2814
 -18183843.85948 -14160482.53548  20708842.6334   20708840.3634
      1130.5314
 04  9 14 17  0 15.0000000  0  6G 1G11G16G23G25G20
  -6535701.81549  -5074481.64948  20497580.3134   20497579.3164
      -823.5164
   3258237.31048   2552918.85845  22285520.2504   22285518.2074
     -2926.6564
  -1587934.18347  -1228167.08343  23715439.4144   23715438.4774
      2353.8914
 -11610950.54149  -9036012.02246  21762467.6564   21762463.2774
      1417.4844
  -2001433.04449  -1544051.60148  21208542.9064   21208541.4734
     -2285.8594
 -18200736.13149 -14173645.34647  20705627.8364   20705625.8554
      1121.3914
 04  9 14 17  0 30.0000000  0  6G 1G11G16G23G25G20
  -6523299.70049  -5064817.67048  20499940.5864   20499939.1804
      -830.2974
   3302198.50948   2587174.32245  22293885.8594   22293883.7704
     -2935.0624
  -1623204.45647  -1255650.35542  23708727.5864   23708726.6914
      2348.6414
 -11632167.37849  -9052544.61646  21758429.9144   21758425.5864
      1411.2194
  -1967075.48449  -1517279.49348  21215081.0554   21215079.0594
     -2295.2974
 -18217491.85248 -14186701.75247  20702439.7034   20702437.4264
      1112.4694
 04  9 14 17  0 45.0000000  0  6G 1G11G16G23G25G20
  -6510794.82749  -5055073.61148  20502320.0394   20502318.2194
      -837.1564
   3346285.79248   2621528.02745  22302275.0314   22302273.4654
     -2943.4534
  -1658395.01347  -1283071.53643  23702031.1724   23702030.1134
      2343.2664
 -11653289.88749  -9069003.69646  21754410.6024   21754406.4844
      1404.9534
  -1932575.70049  -1490396.54848  21221646.2734   21221644.3754
     -2304.7664
 -18234112.68948 -14199653.04147  20699276.4694   20699274.4454
      1103.5314
 04  9 14 17  1  0.0000000  0  6G 1G11G16G23G25G20
  -6498193.03949  -5045254.03347  20504718.0084   20504716.5904
      -843.1414
   3390492.91548   2655975.12245  22310687.2424   22310685.7274
     -2950.9224
  -1693511.19946  -1310434.79143  23695348.0004   23695347.6054
      2338.8284
 -11674323.78449  -9085393.73646  21750407.8444   21750403.9844
      1399.5164
  -1897939.65649  -1463407.42648  21228237.1024   21228235.4384
     -2313.4064
 -18250604.19249 -14212503.55848  20696138.2424   20696135.8244
      1095.2974
 04  9 14 17  1 15.0000000  0  6G 1G11G16G23G25G20
  -6485494.09249  -5035358.76148  20507134.6334   20507133.0004
      -850.1414
   3434819.92048   2690515.62446  22319123.0314   22319121.3674
     -2959.4844
  -1728552.35047  -1337739.53343  23688680.0164   23688679.9614
      2333.2344
 -11695268.70249  -9101714.43846  21746422.1954   21746417.8754
      1393.0634
  -1863167.35249  -1436312.13348  21234853.8914   21234852.3134
     -2322.9534
 -18266965.74848 -14225252.81848  20693024.7344   20693022.1844
      1086.1254
 04  9 14 17  1 30.0000000  0  6G 1G11G16G23G25G20
  -6472698.42349  -5025388.10148  20509569.5554   20509567.9384
      -856.1874
   3479266.16448   2725149.04846  22327580.8204   22327579.1484
     -2966.9844
  -1763518.46547  -1364985.82343  23682026.1174   23682025.4654
      2328.6724
 -11716124.91249  -9117966.01946  21742453.5864   21742449.3594
      1387.4694
  -1828259.43849  -1409111.17148  21241496.7424   21241495.0164
     -2331.7194
 -18283197.50049 -14237900.93948  20689936.0234   20689933.5314
      1077.8914
 04  9 14 17  1 45.0000000  0  6G 1G11G16G23G25G20
  -6459806.91649  -5015342.77948  20512022.7034   20512021.4964
      -862.4844
   3523830.51748   2759874.50546  22336061.2344   22336059.3914
     -2974.7194
  -1798410.01347  -1392173.99043  23675386.3134   23675386.3364
      2323.8444
 -11736893.31649  -9134149.18146  21738501.0234   21738496.9024
      1381.7664
  -1793216.96749  -1381805.35548  21248165.0784   21248163.7234
     -2340.3754
 -18299299.99448 -14250448.33048  20686871.6174   20686869.0664
      1069.3444
 04  9 14 17  2  0.0000000  0  6G 1G11G16G23G25G20
  -6446821.96949  -5005224.63548  20514493.3674   20514491.8984
      -868.6094
   3568510.28048   2794689.88246  22344562.9694   22344561.5314
     -2982.2814
  -1833228.82347  -1419305.51943  23668761.0474   23668760.0744
      2319.0164
 -11757576.25649  -9150265.74946  21734565.6024   21734561.3094
      1376.2344
  -1758042.57349  -1354396.73848  21254858.4924   21254857.3794
     -2349.1254
 -18315275.30849 -14262896.62248  20683831.8054   20683829.5084
      1060.9844
 04  9 14 17  2 15.0000000  0  6G 1G11G16G23G25G20
  -6433743.62549  -4995033.72248  20516982.1414   20516980.3794
      -875.1094
   3613305.16748   2829594.98046  22353087.3984   22353085.8594
     -2990.3444
  -1867974.50147  -1446380.04143  23662149.1804   23662147.8094
      2313.7034
 -11778173.55549  -9166315.57846  21730645.6414   21730641.1564
      1370.1884
  -1722736.36049  -1326885.41148  21261577.1024   21261575.6994
     -2358.2504
 -18331123.09949 -14275245.54848  20680816.0634   20680813.8984
      1052.1884
 04  9 14 17  2 30.0000000  0  6G 1G11G16G23G25G20
  -6420569.62749  -4984768.28147  20519489.4144   20519487.6454
      -881.2194
   3658217.01848   2864591.19846  22361634.2734   22361632.4384
     -2997.7814
  -1902644.42147  -1473395.53943  23655551.5944   23655549.9924
      2309.0164
 -11798682.96249  -9182296.93247  21726743.4774   21726738.9654
      1364.5944
  -1687296.49249  -1299269.94948  21268321.3754   21268319.1804
     -2366.8754
 -18346840.89149 -14287493.18548  20677825.0314   20677822.7074
      1043.7344
 04  9 14 17  2 45.0000000  0  6G 1G11G16G23G25G20
  -6407300.08049  -4974428.37248  20522014.5554   20522012.3954
      -887.7664
   3703245.55348   2899678.35246  22370202.8054   22370201.5864
     -3005.7814
  -1937238.16447  -1500351.67043  23648967.9384   23648966.6604
      2303.7034
 -11819104.36749  -9198209.70247  21722857.2424   21722852.8594
      1358.5164
  -1651723.09149  -1271550.40848  21275090.8134   21275089.1804
     -2376.0004
 -18362428.50449 -14299639.35347  20674858.6644   20674856.4064
      1034.8754
 04  9 14 17  3  0.0000000  0  6G 1G11G16G23G25G20
  -6393938.65249  -4964016.86947  20524557.0784   20524555.1454
      -893.8914
   3748386.95548   2934853.45046  22378792.7814   22378791.3554
     -3013.1724
  -1971758.84347  -1527250.87343  23642399.6254   23642398.2034
      2298.8754
 -11839441.54049  -9214056.83447  21718987.0084   21718982.6524
      1352.9844
  -1616019.97249  -1243729.81048  21281884.7424   21281882.8674
     -2384.5474
 -18377889.33349 -14311686.76048  20671916.7344   20671914.1644
      1026.4844
 04  9 14 17  3 15.0000000  0  6G 1G11G16G23G25G20
  -6380481.96649  -4953531.14648  20527117.6564   20527115.9844
      -900.0784
   3793644.30248   2970118.90846  22387404.8914   22387403.5084
     -3020.8284
  -2006202.68847  -1554090.19143  23635844.8984   23635843.8204
      2294.0314
 -11859690.91849  -9229835.56647  21715133.6804   21715129.3984
      1347.2814
  -1580183.95049  -1215805.65647  21288703.5944   21288702.1914
     -2393.2344
 -18393219.49849 -14323632.34548  20668999.5004   20668997.0234
      1017.8754
 04  9 14 17  3 30.0000000  0  6G 1G11G16G23G25G20
  -6366930.85549  -4942971.82948  20529696.5004   20529694.7704
      -906.5784
   3839016.59348   3005473.92646  22396039.1254   22396037.7424
     -3028.5624
  -2040570.04847  -1580869.92943  23629305.1484   23629304.4064
      2288.6414
 -11879853.18449  -9245546.40547  21711297.0784   21711292.3914
      1341.2814
  -1544216.14449  -1187778.79448  21295548.3834   21295546.9224
     -2402.2194
 -18408419.58049 -14335476.54147  20666106.9064   20666104.3524
      1009.0784
 04  9 14 17  3 45.0000000  0  6G 1G11G16G23G25G20
  -6353286.02649  -4932339.49548  20532292.9774   20532291.5904
      -912.9374
   3884502.98948   3040917.84045  22404694.8754   22404693.0164
     -3036.4064
  -2074861.22447  -1607590.26743  23622779.0634   23622778.4184
      2283.1724
 -11899929.01149  -9261189.89947  21707476.8444   21707472.8244
      1335.2974
  -1508117.20149  -1159649.76247  21302417.9384   21302416.3284
     -2411.1564
 -18423489.90349 -14347219.66847  20663239.2194   20663237.0084
      1000.2034
 04  9 14 17  4  0.0000000  0  6G 1G11G16G23G25G20
  -6339547.19349  -4921633.91247  20534907.4454   20534905.7194
      -919.1254
   3930103.08048   3076450.35445  22413372.5704   22413370.6804
     -3043.9694
  -2109075.48147  -1634250.71443  23616268.8364   23616267.8984
      2278.2664
 -11919917.98749  -9276765.70747  21703672.8444   21703668.9844
      1329.5944
  -1471887.18149  -1131418.57747  21309312.0944   21309310.5514
     -2419.7814
 -18438430.02749 -14358861.31348  20660396.1254   20660393.9384
       991.5314
 04  9 14 17  4 15.0000000  0  6G 1G11G16G23G25G20
  -6325712.76249  -4910853.83948  20537539.9924   20537538.3634
      -925.2664
   3975818.23648   3112072.53945  22422071.6414   22422069.7974
     -3051.2814
  -2143210.72747  -1660849.60143  23609772.7894   23609771.6214
      2273.2194
 -11939818.38849  -9292272.50847  21699885.7664   21699881.9964
      1323.8914
  -1435524.67449  -1103084.16947  21316231.8674   21316230.3364
     -2428.3754
 -18453237.91649 -14370399.92448  20657578.3444   20657576.2504
       983.0164
 04  9 14 17  4 30.0000000  0  6G 1G11G16G23G25G20
  -6311786.09449  -4900001.88447  20540190.1884   20540188.8444
      -931.3754
   4021645.02348   3147781.71046  22430792.9224   22430790.7114
     -3058.5944
  -2177269.89247  -1687389.14243  23603292.3984   23603290.7304
      2268.2504
 -11959633.57049  -9307712.88547  21696115.1254   21696110.9264
      1318.3284
  -1399033.30349  -1074649.33247  21323175.9304   21323174.7234
     -2436.8444
 -18467916.62949 -14381837.86247  20654785.1804   20654783.2814
       974.4534
 04  9 14 17  4 45.0000000  0  6G 1G11G16G23G25G20
  -6297765.18149  -4889076.51647  20542858.4384   20542856.6914
      -938.2034
   4067585.18648   3183579.22046  22439534.8984   22439532.8284
     -3066.7344
  -2211250.52347  -1713867.53343  23596824.9534   23596823.7624
      2262.4224
 -11979361.45449  -9323085.27347  21692361.1174   21692356.8054
      1311.9534
  -1362411.12749  -1046112.58948  21330144.7814   21330143.5824
     -2446.2034
 -18482463.89949 -14393173.40547  20652016.6334   20652014.9804
       965.1094
 04  9 14 17  5  0.0000000  0  6G 1G11G16G23G25G20
  -6283651.66949  -4878078.96748  20545543.8364   20545542.0124
      -944.0944
   4113636.73848   3219463.52646  22448297.9384   22448296.4884
     -3073.8444
  -2245153.69947  -1740285.57043  23590373.7034   23590372.8094
      2257.6414
 -11999003.54149  -9338390.78147  21688622.9454   21688619.2894
      1306.5634
  -1325660.00049  -1017475.35248  21337138.3834   21337136.4264
     -2454.4534
 -18496880.86749 -14404407.39847  20649273.3364   20649270.6454
       956.7194
 04  9 14 17  5 15.0000000  0  6G 1G11G16G23G25G20
  -6269439.83649  -4867004.81848  20548248.4694   20548247.2464
      -950.2504
   4159805.31748   3255439.02546  22457083.4454   22457081.5124
     -3081.3444
  -2278973.16547  -1766638.34943  23583937.8674   23583937.2974
      2252.2974
 -12018553.99749  -9353624.89047  21684903.0704   21684898.5664
      1300.7504
  -1288774.43949   -988733.36248  21344157.2194   21344156.1174
     -2463.0314
 -18511161.61949 -14415535.25147  20646555.8834   20646553.4574
       947.9844
 04  9 14 17  5 30.0000000  0  6G 1G11G16G23G25G20
  -6255138.29249  -4855860.75348  20550969.9694   20550968.2584
      -956.2814
   4206081.96048   3291498.74346  22465889.6174   22465888.4264
     -3088.5784
  -2312717.19746  -1792932.36443  23577516.6954   23577516.0554
      2247.1564
 -12038021.34949  -9368794.24947  21681198.2664   21681194.3364
      1295.1884
  -1251763.18249   -959893.43048  21351200.5314   21351198.9184
     -2471.5164
 -18525314.42749 -14426563.41048  20643862.5944   20643860.1954
       939.4064
 04  9 14 17  5 45.0000000  0  6G 1G11G16G23G25G20
  -6240746.47349  -4844646.34948  20553708.4384   20553707.2854
      -962.5624
   4252466.81048   3327642.76746  22474716.3984   22474714.9494
     -3096.0624
  -2346384.77247  -1819166.79943  23571109.6254   23571108.9844
      2241.7504
 -12057404.99249  -9383898.37447  21677509.8284   21677505.4264
      1289.3284
  -1214625.97749   -930955.35648  21358267.3594   21358265.9614
     -2480.1564
 -18539338.45549 -14437491.22547  20641193.8984   20641191.8794
       930.4534
 04  9 14 17  6  0.0000000  0  6G 1G11G16G23G25G20
  -6226259.26849  -4833357.61448  20556465.1884   20556463.5044
      -969.1414
   4298964.84948   3363874.98846  22483564.7814   22483563.0514
     -3103.7974
  -2379970.28347  -1845337.28343  23564718.4454   23564718.4964
      2236.1254
 -12076699.68349  -9398933.18447  21673838.3134   21673834.1604
      1283.2034
  -1177357.90549   -901915.30248  21365359.2344   21365357.4734
     -2489.0314
 -18553228.27849 -14448314.45448  20638550.6884   20638548.8054
       921.4064
 04  9 14 17  6 15.0000000  0  6G 1G11G16G23G25G20
  -6211676.53249  -4821994.45548  20559240.4694   20559238.7774
      -975.5314
   4345575.90848   3400195.26946  22492434.5234   22492433.0984
     -3111.3914
  -2413473.18447  -1871443.41043  23558344.3364   23558342.0904
      2230.5634
 -12095905.18949  -9413898.50847  21670183.3674   21670179.6604
      1277.2664
  -1139958.94349   -872773.26347  21372476.1644   21372474.5824
     -2497.7504
 -18566983.44649 -14459032.76447  20635933.2664   20635931.0664
       912.3284
 04  9 14 17  6 30.0000000  0  6G 1G11G16G23G25G20
  -6196997.44149  -4810556.19848  20562033.5394   20562031.9774
      -981.4534
   4392300.56748   3436604.06645  22501325.7734   22501324.2974
     -3118.3284
  -2446892.17947  -1897484.16143  23551984.3054   23551983.4494
      2225.5314
 -12115020.56149  -9428793.58347  21666545.8914   21666542.3554
      1271.6884
  -1102428.42049   -843528.70248  21379618.1024   21379616.4924
     -2506.0474
 -18580602.82949 -14469645.26547  20633341.8444   20633339.0354
       903.8444
 04  9 14 17  6 45.0000000  0  6G 1G11G16G23G25G20
  -6182229.44749  -4799048.67247  20564843.8524   20564842.4024
      -987.3444
   4439131.06648   3473095.35045  22510237.8984   22510235.4964
     -3125.3914
  -2480234.24647  -1923464.97943  23545639.0084   23545638.5164
      2220.4384
 -12134053.36249  -9443624.32847  21662924.1484   21662919.6564
      1266.2814
  -1064773.90749   -814187.54347  21386783.2664   21386782.0314
     -2514.2504
 -18594093.62749 -14480157.56548  20630774.0314   20630772.0434
       895.2034
 04  9 14 17  7  0.0000000  0  6G 1G11G16G23G25G20
  -6167371.04149  -4787470.69548  20567671.2584   20567670.0124
      -993.8594
   4486068.61648   3509670.03645  22519169.6564   22519168.3014
     -3132.9844
  -2513497.39648  -1949384.28543  23539309.8594   23539308.0204
      2214.5784
 -12153001.86049  -9458389.38047  21659318.4844   21659314.1294
      1260.0944
  -1026994.26549   -784748.86748  21393972.5784   21393970.9494
     -2523.1094
 -18607453.90849 -14490568.18148  20628232.0944   20628229.7074
       886.0634
 04  9 14 17  7 15.0000000  0  6G 1G11G16G23G25G20
  -6152416.47849  -4775817.79148  20570517.2424   20570515.6844
      -999.9694
   4533118.76848   3546332.47346  22528122.9614   22528121.3954
     -3140.1724
  -2546675.50247  -1975237.31043  23532996.4534   23532994.8984
      2209.2974
 -12171860.24249  -9473084.21447  21655729.5634   21655725.5314
      1254.4384
   -989083.86349   -755208.29348  21401186.7344   21401185.0124
     -2531.5314
 -18620677.72949 -14500872.45048  20625715.5394   20625713.2624
       877.2664
 04  9 14 17  7 30.0000000  0  6G 1G11G16G23G25G20
  -6137376.08349  -4764098.00647  20573379.3364   20573377.5704
     -1006.1564
   4580270.83348   3583074.31246  22537095.9774   22537094.0394
     -3147.4534
  -2579778.45347  -2001031.79543  23526696.5474   23526695.2424
      2203.6884
 -12190638.79449  -9487716.83747  21652156.3594   21652151.9734
      1248.5944
   -951053.33149   -725574.12047  21408423.9144   21408422.0824
     -2539.9534
 -18633775.08449 -14511078.17947  20623223.2114   20623220.9144
       868.3444
 04  9 14 17  7 45.0000000  0  6G 1G11G16G23G25G20
  -6122241.25849  -4752304.63347  20576259.1804   20576257.5784
     -1011.8284
   4627533.22148   3619902.13845  22546089.4384   22546087.7504
     -3154.1254
  -2612797.10247  -2026760.58843  23520413.4614   23520412.2234
      2198.7814
 -12209328.75449  -9502280.43347  21648599.4844   21648595.2664
      1243.3754
   -912894.11249   -695839.66448  21415685.4614   21415683.3874
     -2547.8914
 -18646736.92349 -14521178.30447  20620756.3204   20620754.3364
       859.9384
 04  9 14 17  8  0.0000000  0  6G 1G11G16G23G25G20
  -6107017.98049  -4740442.33947  20579156.0474   20579154.8054
     -1017.8594
   4674899.73848   3656811.08845  22555102.9614   22555101.3674
     -3161.3284
  -2645736.94047  -2052427.95543  23514144.7664   23514144.3094
      2193.3754
 -12227936.07549  -9516779.63747  21645058.7114   21645054.1764
      1237.6564
   -874612.37149   -666009.74447  21422970.1174   21422968.0984
     -2556.2034
 -18659568.88649 -14531177.23447  20618314.7974   20618312.6174
       851.1414
 04  9 14 17  8 15.0000000  0  6G 1G11G16G23G25G20
  -6091699.68849  -4728506.01447  20582071.2584   20582069.3754
     -1024.5164
   4722376.52848   3693805.98345  22564137.3674   22564136.4804
     -3168.8754
  -2678591.00546  -2078028.49643  23507892.7424   23507891.8014
      2187.2814
 -12246454.04649  -9531209.21847  21641534.8204   21641530.6844
      1231.4224
   -836201.80649   -636079.43647  21430279.4534   21430277.7274
     -2565.1094
 -18672264.23649 -14541069.70447  20615898.9694   20615896.9224
       841.6414
 04  9 14 17  8 30.0000000  0  6G 1G11G16G23G25G20
  -6076285.91649  -4716495.28947  20585004.2734   20585002.6604
     -1030.6414
   4769963.82448   3730886.95945  22573193.1564   22573191.5274
     -3176.0944
  -2711358.39247  -2103561.49643  23501657.0634   23501656.7974
      2181.6724
 -12264882.12449  -9545568.75447  21638028.4144   21638023.9574
      1225.6884
   -797662.29549   -606048.66547  21437613.4144   21437611.2504
     -2573.4844
 -18684822.22349 -14550855.14947  20613509.2504   20613506.8244
       832.7344
 04  9 14 17  8 45.0000000  0  6G 1G11G16G23G25G20
  -6060778.00949  -4704411.20647  20587955.2974   20587953.8284
     -1036.7504
   4817660.03548   3768052.81746  22582269.3444   22582267.7074
     -3183.2504
  -2744039.93647  -2129027.59643  23495437.9924   23495437.5664
      2176.2034
 -12283221.57449  -9559859.22047  21634538.0234   21634534.2274
      1219.8284
   -758995.16749   -575918.44048  21444971.1024   21444969.2584
     -2581.8284
 -18697243.83249 -14560534.31247  20611145.4454   20611143.3524
       823.8594
 04  9 14 17  9  0.0000000  0  6G 1G11G16G23G25G20
  -6045177.91149  -4692255.28047  20590923.9844   20590922.2704
     -1042.7504
   4865462.89148   3805301.78545  22591366.0784   22591364.0274
     -3190.1094
  -2776637.17647  -2154427.99343  23489234.9924   23489234.4104
      2170.6094
 -12301474.25349  -9574082.06747  21631065.1724   21631060.7424
      1214.2344
   -720202.71449   -545690.55347  21452353.2734   21452351.5474
     -2590.0784
 -18709530.68149 -14570108.48247  20608807.4844   20608805.1294
       814.9224
 04  9 14 17  9 15.0000000  0  6G 1G11G16G23G25G20
  -6029487.51249  -4680029.00947  20593909.7034   20593908.3714
     -1048.8284
   4913370.26948   3842632.17745  22600482.1564   22600480.6884
     -3197.0784
  -2809151.52047  -2179763.80243  23483048.0474   23483047.4734
      2165.0784
 -12319641.97149  -9588238.73547  21627607.8524   21627603.5514
      1208.5944
   -681286.98349   -515366.62747  21459758.4774   21459756.8364
     -2598.2974
 -18721684.40849 -14579578.92248  20606494.6644   20606492.6334
       806.0004
 04  9 14 17  9 30.0000000  0  6G 1G11G16G23G25G20
  -6013702.32249  -4667728.86747  20596913.6174   20596911.8914
     -1055.6414
   4961386.40748   3880047.31945  22609618.9144   22609617.2114
     -3204.8124
  -2841578.05747  -2205031.20843  23476877.3134   23476876.7074
      2158.6724
 -12337720.10049  -9602325.57547  21624167.4924   21624163.6294
      1202.1564
   -642243.55349   -484943.17747  21467187.9694   21467186.1884
     -2607.2344
 -18733700.16149 -14588941.84947  20604208.0944   20604205.7304
       796.3284
 04  9 14 17  9 45.0000000  0  6G 1G11G16G23G25G20
  -5997820.76249  -4655353.62647  20599935.8444   20599934.2424
     -1062.0004
   5009512.55848   3917548.20645  22618778.0004   22618776.1884
     -3212.0624
  -2873914.67247  -2230228.55143  23470723.7344   23470722.8754
      2152.8134
 -12355707.08749  -9616341.39147  21620744.8594   21620740.7074
      1196.1094
   -603071.11249   -454419.20447  21474642.5084   21474640.9264
     -2615.7814
 -18745576.02049 -14598195.75847  20601947.9534   20601945.5004
       787.0634
 04  9 14 17 10  0.0000000  0  6G 1G11G16G23G25G20
  -5981843.50949  -4642903.82048  20602976.1024   20602974.5354
     -1068.4534
   5057747.95348   3955134.20245  22627956.8204   22627954.6524
     -3219.4694
  -2906161.69647  -2255356.07343  23464587.9224   23464587.0744
      2146.6564
 -12373603.44149  -9630286.60247  21617339.1254   21617334.9414
      1189.9694
   -563770.58949   -423795.43147  21482121.2734   21482119.5704
     -2624.4534
 -18757312.43049 -14607341.01747  20599715.0004   20599713.3324
       777.6564
 04  9 14 17 10 15.0000000  0  6G 1G11G16G23G25G20
  -5965770.54049  -4630379.42848  20606034.6724   20606033.2114
     -1074.7034
   5106092.14548   3992804.98345  22637156.4844   22637154.6844
     -3226.5314
  -2938318.56247  -2280413.30443  23458467.1174   23458467.4574
      2140.7344
 -12391409.04249  -9644161.08647  21613950.7034   21613946.7704
      1184.0634
   -524342.03349   -393071.88247  21489624.3984   21489622.4494
     -2632.8594
 -18768909.00249 -14616377.30047  20597508.1564   20597505.9804
       768.4064
 04  9 14 17 10 30.0000000  0  6G 1G11G16G23G25G20
  -5949598.06149  -4617777.49447  20609112.0944   20609110.5704
     -1081.3594
   5154548.68648   4030563.30445  22646377.4304   22646375.6684
     -3234.0164
  -2970380.97447  -2305396.98743  23452366.6954   23452366.1334
      2134.4694
 -12409120.05049  -9657961.86147  21610580.9774   21610576.2974
      1177.7814
   -484781.89649   -362245.80147  21497152.4924   21497150.6524
     -2641.5784
 -18780361.79049 -14625301.54047  20595328.3444   20595326.1954
       758.8594
 04  9 14 17 10 45.0000000  0  6G 1G11G16G23G25G20
  -5933326.89649  -4605098.66848  20612208.7424   20612207.1254
     -1088.0474
   5203116.57448   4068408.38345  22655619.6884   22655617.7034
     -3241.5314
  -3002349.36747  -2330307.39743  23446284.2424   23446282.6254
      2128.0004
 -12426737.22149  -9671689.52047  21607227.9534   21607223.5124
      1171.3594
   -445091.16549   -331317.96247  21504705.3834   21504703.5904
     -2650.4064
 -18791671.12849 -14634114.01547  20593176.5634   20593174.3014
       749.1724
 04  9 14 17 11  0.0000000  0  6G 1G11G16G23G25G20
  -5916958.01649  -4592343.70447  20615323.5864   20615321.8094
     -1094.4844
   5251794.35548   4106339.10745  22664882.6254   22664880.5474
     -3248.7664
  -3034224.32248  -2355145.02243  23440218.6644   23440216.7704
      2121.9534
 -12444261.42949  -9685344.74347  21603893.3284   21603888.8984
      1165.2194
   -405271.19749   -300289.43647  21512282.8754   21512281.1094
     -2658.9694
 -18802837.75649 -14642815.28247  20591051.6094   20591049.0594
       739.7814
 04  9 14 17 11 15.0000000  0  6G 1G11G16G23G25G20
  -5900493.49149  -4579514.20848  20618456.4774   20618454.7854
     -1101.0164
   5300579.70948   4144353.64245  22674165.6724   22674163.9184
     -3256.1094
  -3066007.40948  -2379911.01143  23434170.4534   23434168.4414
      2115.5474
 -12461694.72349  -9698929.11647  21600576.1644   21600571.9344
      1159.0004
   -365324.10949   -269161.84147  21519884.5004   21519882.4694
     -2667.6094
 -18813863.46949 -14651406.74947  20588953.8524   20588951.1954
       730.1884
 04  9 14 17 11 30.0000000  0  6G 1G11G16G23G25G20
  -5883930.53649  -4566607.99748  20621608.3134   20621606.3484
     -1107.5164
   5349475.22248   4182454.02145  22683471.2114   22683469.2234
     -3263.3284
  -3097695.43147  -2404602.95244  23428140.0084   23428138.5354
      2109.3444
 -12479034.13049  -9712440.32347  21597276.3834   21597272.1524
      1152.7814
   -325247.35649   -237933.19547  21527511.0084   21527509.5314
     -2676.0944
 -18824745.14949 -14659885.96447  20586882.9384   20586880.0274
       720.6414
 04  9 14 17 11 45.0000000  0  6G 1G11G16G23G25G20
  -5867266.57049  -4553623.10648  20624779.6094   20624778.0514
     -1114.2344
   5398483.21448   4220642.03645  22692796.6884   22692794.7034
     -3270.8284
  -3129285.25048  -2429218.38244  23422129.8914   23422126.7664
      2102.8284
 -12496276.96249  -9725876.30147  21593994.9924   21593990.8554
      1146.4224
   -285038.64349   -206601.74847  21535161.8594   21535160.9184
     -2684.8754
 -18835479.88949 -14668250.70848  20584840.0784   20584837.4414
       710.8754
 04  9 14 17 12  0.0000000  0  6G 1G11G16G23G25G20
  -5850501.72449  -4540559.59248  20627969.7034   20627968.1054
     -1121.2664
   5447603.35548   4258917.45745  22702143.7114   22702142.3714
     -3278.6094
  -3160776.49448  -2453756.98044  23416136.5234   23416134.5354
      2095.9064
 -12513423.36749  -9739237.12147  21590732.3134   21590727.9064
      1139.6564
   -244698.26549   -175167.69447  21542838.9224   21542837.4454
     -2693.9374
 -18846067.49149 -14676500.78247  20582825.7194   20582822.8954
       700.6414
 04  9 14 17 12 15.0000000  0  6G 1G11G16G23G25G20
  -5833635.21449  -4527416.85248  20631179.3594   20631177.5164
     -1127.8754
   5496836.02448   4297280.54945  22711512.7814   22711510.7114
     -3285.9694
  -3192168.15347  -2478217.97044  23410163.3054   23410161.7504
      2089.3134
 -12530472.37749  -9752522.06447  21587488.1564   21587483.4414
      1133.2974
   -204225.63849   -143630.57647  21550540.3834   21550538.6564
     -2702.7034
 -18856506.88149 -14684635.37147  20580838.9224   20580836.0554
       690.9064
 04  9 14 17 12 30.0000000  0  6G 1G11G16G23G25G20
  -5816670.45049  -4514197.54948  20634407.4384   20634406.1884
     -1134.2664
   5546177.48248   4335728.42245  22720901.8284   22720899.8284
     -3293.0474
  -3223463.04047  -2502603.56543  23404206.9844   23404205.6174
      2083.2344
 -12547427.36249  -9765733.72447  21584261.4694   21584257.1334
      1127.2194
   -163624.28749   -111993.17247  21558266.6094   21558265.0004
     -2711.0474
 -18866801.23849 -14692656.94147  20578880.0084   20578877.6334
       681.4694
 04  9 14 17 12 45.0000000  0  6G 1G11G16G23G25G20
  -5799604.62349  -4500899.51848  20637655.1094   20637653.3984
     -1140.9844
   5595630.24548   4374263.00345  22730312.7034   22730310.3754
     -3300.4374
  -3254657.85247  -2526911.18743  23398270.7424   23398269.5744
      2076.4384
 -12564285.46849  -9778869.91547  21581053.4454   21581049.1914
      1120.8134
   -122891.80649    -80253.58547  21566018.0864   21566016.3164
     -2719.7814
 -18876947.44849 -14700563.07948  20576949.2894   20576946.6414
       671.6094
 04  9 14 17 13  0.0000000  0  6G 1G11G16G23G25G20
  -5782434.99449  -4487520.58648  20640922.5634   20640920.6564
     -1148.0944
   5645196.87948   4412886.33345  22739744.3134   22739742.1334
     -3308.1724
  -3285749.46248  -2551138.37543  23392354.4844   23392353.4654
      2069.4224
 -12581043.82449  -9791928.37347  21577864.5004   21577859.8954
      1113.9384
    -82025.54349    -48409.75447  21573794.3524   21573792.4224
     -2728.9224
 -18886942.35549 -14708351.32648  20575047.1174   20575045.0394
       661.2504
 04  9 14 17 13 15.0000000  0  6G 1G11G16G23G25G20
  -5765161.92749  -4474061.05548  20644209.3524   20644207.7854
     -1154.8754
   5694876.64248   4451597.80045  22749198.4064   22749196.1884
     -3315.6254
  -3316737.79947  -2575285.12443  23386457.3284   23386456.3874
      2062.6094
 -12597702.80349  -9804909.38147  21574694.0004   21574689.9614
      1107.4534
    -41026.02349    -16462.07747  21581596.0704   21581594.4774
     -2737.5314
 -18896786.14449 -14716021.80048  20573173.8134   20573171.6804
       651.3284
 04  9 14 17 13 30.0000000  0  6G 1G11G16G23G25G20
  -5747788.40049  -4460523.25147  20647515.3594   20647513.7194
     -1161.5944
   5744666.51148   4490395.08345  22758673.0474   22758671.0434
     -3323.0314
  -3347625.27748  -2599353.27244  23380579.7974   23380578.1764
      2055.7664
 -12614265.13849  -9817815.09647  21571542.6174   21571538.6724
      1100.8594
       103.57249     15586.94547  21589423.2114   21589421.3364
     -2746.3444
 -18906481.41649 -14723576.56748  20571329.0394   20571326.6804
       641.3444
 04  9 14 17 13 45.0000000  0  6G 1G11G16G23G25G20
  -5730310.89949  -4446904.42248  20650841.1724   20650839.7814
     -1168.4844
   5794569.53748   4529280.53645  22768169.0234   22768167.1844
     -3330.5004
  -3378408.06848  -2623339.83243  23374722.2664   23374720.7274
      2048.7814
 -12630727.28949  -9830642.73047  21568410.2194   21568405.5594
      1094.2974
     41366.56549     47739.93547  21597274.9844   21597273.3364
     -2755.1564
 -18916024.50149 -14731012.73448  20569512.8444   20569510.3914
       631.1724
 04  9 14 17 14  0.0000000  0  6G 1G11G16G23G25G20
  -5712733.50249  -4433207.74548  20654186.1644   20654184.7274
     -1175.3124
   5844581.21748   4568250.65845  22777686.4304   22777684.0124
     -3337.9224
  -3409089.82147  -2647247.65344  23368883.1254   23368882.4844
      2041.8754
 -12647093.34649  -9843395.49747  21565295.3674   21565291.1604
      1087.7034
     82758.58849     79993.45047  21605152.0554   21605150.1914
     -2763.8914
 -18925419.11149 -14738333.20447  20567725.2194   20567722.6684
       621.2034
 04  9 14 17 14 15.0000000  0  6G 1G11G16G23G25G20
  -5695052.69749  -4419430.49547  20657550.7274   20657549.0274
     -1182.0004
   5894704.89348   4607308.04645  22787224.4304   22787222.3164
     -3345.0624
  -3439666.52247  -2671073.63144  23363063.6094   23363063.8914
      2035.1724
 -12663359.63349  -9856070.51647  21562200.4774   21562196.1414
      1081.3594
    124283.02049    112350.14947  21613053.4694   21613051.9104
     -2772.4224
 -18934661.40749 -14745534.99648  20565966.5474   20565964.5864
       611.3284
 04  9 14 17 14 30.0000000  0  6G 1G11G16G23G25G20
  -5677270.87749  -4405574.53847  20660934.8204   20660932.6724
     -1188.7974
   5944937.97148   4646450.66645  22796783.8054   22796781.5864
     -3352.5004
  -3470140.01547  -2694819.18844  23357266.0554   23357264.9104
      2028.1884
 -12679528.50049  -9868669.62847  21559123.4774   21559119.3874
      1074.6414
    165937.35349    144808.05747  21620980.3674   21620978.5204
     -2781.2504
 -18943753.43249 -14752619.69047  20564236.4694   20564234.2304
       601.1094
 04  9 14 17 14 45.0000000  0  6G 1G11G16G23G25G20
  -5659387.92649  -4391639.77548  20664337.2424   20664335.8834
     -1195.5164
   5995280.26948   4685678.41945  22806363.3204   22806361.4734
     -3359.7664
  -3500509.77847  -2718483.88044  23351486.8204   23351485.2114
      2021.2504
 -12695599.66949  -9881192.60147  21556065.1644   21556061.0634
      1068.2664
    207721.37749    177367.04047  21628931.5004   21628929.4804
     -2789.8444
 -18952694.86549 -14759587.04247  20562534.8284   20562532.0864
       591.1094
 04  9 14 17 15  0.0000000  0  6G 1G11G16G23G25G20
  -5641402.78149  -4377625.38547  20667759.8674   20667758.4024
     -1202.3124
   6045732.49248   4724991.80345  22815964.0944   22815962.2894
     -3367.0944
  -3530774.30248  -2742066.63244  23345727.6024   23345726.5004
      2014.1884
 -12711572.06949  -9893638.61847  21553025.6334   21553021.4734
      1061.6414
    249635.81749    210027.62247  21636907.4144   21636906.0354
     -2798.5784
 -18961484.28649 -14766435.94147  20560862.3134   20560860.1684
       580.9534
 04  9 14 17 15 15.0000000  0  6G 1G11G16G23G25G20
  -5623319.38749  -4363534.42647  20671200.9844   20671199.5514
     -1208.9374
   6096290.37848   4764387.52644  22825585.4304   22825582.6764
     -3374.1414
  -3560937.21448  -2765570.16144  23339987.7504   23339986.4344
      2007.3284
 -12727449.54149  -9906010.67247  21550004.5784   21549999.3954
      1055.1884
    291676.68149    242786.74147  21644907.7974   21644906.2304
     -2807.0784
 -18970125.36349 -14773169.24347  20559217.8594   20559215.4344
       570.9534
 04  9 14 17 15 30.0000000  0  6G 1G11G16G23G25G20
  -5605131.57749  -4349362.11047  20674662.1174   20674660.8054
     -1216.0314
   6146959.80248   4803870.17145  22835227.1024   22835224.9024
     -3381.7344
  -3590991.75648  -2788989.24244  23334268.2194   23334267.3754
      2000.0004
 -12743225.84749  -9918303.88647  21547002.6884   21546997.8594
      1048.3444
    333849.93649    275649.00447  21652933.1804   21652931.7974
     -2816.0314
 -18978611.76149 -14779782.01547  20557603.1024   20557600.8594
       560.5634
 04  9 14 17 15 45.0000000  0  6G 1G11G16G23G25G20
  -5586840.73049  -4335109.51748  20678142.6644   20678141.1414
     -1222.7974
   6197739.18348   4843438.49944  22844889.8204   22844888.1294
     -3388.9534
  -3620938.86148  -2812324.63644  23328569.3134   23328568.5434
      1992.8754
 -12758902.42149  -9930519.39047  21544019.3364   21544014.8094
      1041.8134
    376154.00749    308613.21047  21660982.9844   21660981.6054
     -2824.5944
 -18986944.41349 -14786274.99047  20556017.2584   20556014.9304
       550.3754
 04  9 14 17 16  0.0000000  0  6G 1G11G16G23G25G20
  -5568452.38849  -4320780.93348  20681641.5554   20681640.3244
     -1229.3594
   6248622.62748   4883087.90145  22854572.7734   22854570.8524
     -3395.9844
  -3650783.63047  -2835580.28244  23322890.1334   23322889.4534
      1986.0944
 -12774484.43849  -9942661.20747  21541054.0634   21541049.6054
      1035.4064
    418583.14549    341674.86447  21669056.8914   21669055.4104
     -2833.0314
 -18995128.59949 -14792652.27347  20554459.9454   20554457.7544
       540.4064
 04  9 14 17 16 15.0000000  0  6G 1G11G16G23G25G20
  -5549957.89049  -4306369.64647  20685161.0554   20685159.7274
     -1236.6094
   6299618.62448   4922825.01345  22864276.7894   22864274.8674
     -3403.5474
  -3680517.01047  -2858749.13044  23317232.2344   23317231.0904
      1978.4384
 -12789963.31449  -9954722.66747  21538108.3134   21538104.0164
      1028.4224
    461145.74049    374840.51747  21677156.3524   21677154.9804
     -2842.0004
 -19003155.47449 -14798906.97747  20552932.6484   20552930.4774
       529.8594
 04  9 14 17 16 30.0000000  0  6G 1G11G16G23G25G20
  -5531360.85249  -4291878.44047  20688700.0474   20688698.9064
     -1243.5784
   6350723.22348   4962646.77944  22874001.4144   22873999.9264
     -3411.0004
  -3710142.04747  -2881833.54044  23311594.6414   23311593.7704
      1971.0314
 -12805342.64249  -9966706.55147  21535181.5784   21535177.0514
      1021.5474
    503838.03949    408107.24547  21685280.6094   21685278.6684
     -2850.8124
 -19011028.19749 -14805041.56748  20551434.5004   20551432.2894
       519.3284
 04  9 14 17 16 45.0000000  0  6G 1G11G16G23G25G20
  -5512656.47849  -4277303.60948  20692259.6954   20692257.6374
     -1250.6874
   6401940.87848   5002556.62444  22883748.3054   22883746.4224
     -3418.4534
  -3739653.74347  -2904829.63844  23305978.5314   23305977.8954
      1963.4844
 -12820617.40449  -9978608.94747  21532275.0704   21532271.2584
      1014.6414
    546664.59249    441478.57747  21693430.4844   21693428.7304
     -2859.7664
 -19018741.78349 -14811052.15548  20549966.5634   20549964.1644
       508.7034
 04  9 14 17 17  0.0000000  0  6G 1G11G16G23G25G20
  -5493850.52149  -4262649.61748  20695838.0004   20695836.4924
     -1257.3914
   6453265.48348   5042549.79944  22893515.1564   22893513.6644
     -3425.4224
  -3769057.34047  -2927741.50544  23300384.0634   23300382.5514
      1956.3594
 -12835793.35349  -9990434.35447  21529386.9384   21529382.4454
      1008.2344
    589619.32549    474949.79947  21701604.0314   21701602.5004
     -2868.1564
 -19026301.70049 -14816942.99848  20548527.8594   20548525.3094
       498.6254
 04  9 14 17 17 15.0000000  0  6G 1G11G16G23G25G20
  -5474941.74249  -4247915.51348  20699436.3984   20699435.2544
     -1264.2974
   6504698.10948   5082627.14344  22903302.8054   22903300.7854
     -3432.7664
  -3798351.04747  -2950567.74744  23294809.2504   23294807.7854
      1948.9534
 -12850869.28349 -10002181.83247  21526518.2894   21526513.9964
      1001.3914
    632703.35749    508521.75647  21709802.7504   21709801.4964
     -2876.8594
 -19033706.43349 -14822712.91347  20547118.9304   20547116.4144
       488.1884
 04  9 14 17 17 30.0000000  0  6G 1G11G16G23G25G20
  -5455929.02249  -4233100.41047  20703054.5084   20703052.9694
     -1271.0784
   6556239.57248   5122789.28145  22913110.8834   22913109.1294
     -3439.8124
  -3827533.42147  -2973307.24044  23289254.6644   23289254.3954
      1941.7034
 -12865843.87249 -10013850.34747  21523668.8594   21523664.3794
       994.8134
    675917.44049    542195.05747  21718026.2114   21718024.6524
     -2885.4374
 -19040954.52349 -14828360.78747  20545739.5634   20545737.1214
       477.7664
 04  9 14 17 17 45.0000000  0  6G 1G11G16G23G25G20
  -5436814.21649  -4218205.76148  20706691.4774   20706690.5004
     -1277.3594
   6607887.56548   5163034.44244  22922938.6174   22922936.8954
     -3446.4064
  -3856605.82547  -2995961.01944  23283723.8754   23283722.2384
      1934.8914
 -12880718.98749 -10025441.33447  21520838.2974   21520833.8244
       988.6884
    719259.56049    575968.12947  21726273.8834   21726272.1564
     -2893.3594
 -19048047.53649 -14833887.79747  20544389.6254   20544387.3634
       468.0944
 04  9 14 17 18  0.0000000  0  6G 1G11G16G23G25G20
  -5417596.54449  -4203230.94948  20710348.9064   20710347.7194
     -1285.0314
   6659642.71948   5203363.12845  22932787.1564   22932785.5274
     -3454.2504
  -3885566.90048  -3018528.07044  23278212.1094   23278211.5234
      1926.6094
 -12895493.51649 -10036953.94647  21518026.8054   21518022.3754
       981.2664
    762730.45149    609841.55947  21734546.1254   21734544.7034
     -2902.7504
 -19054984.40549 -14839293.14647  20543069.8914   20543067.7544
       456.8754
 04  9 14 17 18 15.0000000  0  6G 1G11G16G23G25G20
  -5398274.44749  -4188174.77847  20714025.4924   20714024.4184
     -1291.4224
   6711506.23048   5243776.20345  22942656.7424   22942654.6454
     -3461.0944
  -3914414.72448  -3041006.87144  23272723.2344   23272721.8364
      1919.4694
 -12910165.91049 -10048386.97747  21515234.4694   21515230.4884
       974.8914
    806331.43349    643816.33047  21742843.2584   21742841.5314
     -2910.8594
 -19061763.30949 -14844575.41047  20541779.9454   20541777.4064
       446.7974
 04  9 14 17 18 30.0000000  0  6G 1G11G16G23G25G20
  -5378852.43349  -4173040.74248  20717721.5944   20717720.5274
     -1298.3284
   6763473.44548   5284270.11644  22952545.8674   22952543.5124
     -3468.0944
  -3943153.30348  -3063400.54644  23267253.4144   23267252.9454
      1912.1254
 -12924740.60749 -10059743.87447  21512461.1884   21512456.2774
       968.2814
    850057.71549    677888.75847  21751164.1334   21751162.0314
     -2919.4224
 -19068388.41149 -14849737.81747  20540519.1724   20540517.1764
       436.3284
 04  9 14 17 18 45.0000000  0  6G 1G11G16G23G25G20
  -5359330.50249  -4157828.85247  20721436.7194   20721435.5864
     -1304.8124
   6815544.00948   5324844.54644  22962454.5084   22962452.0704
     -3474.8284
  -3971782.25347  -3085708.79144  23261805.8984   23261804.7154
      1904.8754
 -12939217.65849 -10071024.68747  21509706.5554   21509701.7034
       961.8284
    893909.07749    712058.64347  21759508.8284   21759506.8244
     -2927.6094
 -19074859.57049 -14854780.27747  20539287.2734   20539285.3284
       426.2974
 04  9 14 17 19  0.0000000  0  6G 1G11G16G23G25G20
  -5339710.27649  -4142540.36847  20725170.0314   20725168.6684
     -1311.3914
   6867716.01848   5365498.02144  22972382.1954   22972380.6914
     -3481.5944
  -4000302.83647  -3107932.59144  23256378.8284   23256377.8094
      1897.6564
 -12953598.53149 -10082230.56347  21506969.9224   21506965.0004
       955.4224
    937883.79249    746324.63947  21767876.6884   21767874.9964
     -2935.8284
 -19081178.08049 -14859703.79947  20538085.4694   20538083.1094
       416.0314
 04  9 14 17 19 15.0000000  0  6G 1G11G16G23G25G20
  -5319992.37849  -4127175.77448  20728922.2424   20728920.7464
     -1317.8284
   6919988.62148   5406229.89344  22982329.9534   22982327.9144
     -3488.2194
  -4028715.19047  -3130072.07144  23250972.2344   23250970.7624
      1890.5164
 -12967883.88849 -10093361.99847  21504251.3364   21504246.6884
       949.0784
    981980.91049    780686.02547  21776268.3284   21776266.6724
     -2943.9844
 -19087344.24949 -14864508.60347  20536911.8674   20536909.8014
       405.9694
 04  9 14 17 19 30.0000000  0  6G 1G11G16G23G25G20
  -5300177.77749  -4111735.82247  20732692.6254   20732691.3324
     -1324.1094
   6972360.34648   5447039.02044  22992295.3754   22992293.3284
     -3494.5944
  -4057019.84648  -3152127.61044  23245586.3984   23245584.4844
      1883.5634
 -12982074.41849 -10104419.54447  21501551.1174   21501546.3244
       942.9384
   1026199.34149    815141.94247  21784682.9304   21784680.9184
     -2951.8124
 -19093358.64049 -14869195.12347  20535767.3444   20535764.8054
       396.0314
 04  9 14 17 19 45.0000000  0  6G 1G11G16G23G25G20
  -5280270.02649  -4096223.28647  20736480.8834   20736479.6564
     -1330.2664
   7024827.38548   5487922.39944  23002279.3674   23002278.1884
     -3500.9224
  -4085219.77948  -3174101.56844  23240219.5704   23240218.5784
      1876.5314
 -12996173.72049 -10115406.01147  21498867.9224   21498863.6214
       936.9694
   1070535.29449    849689.43847  21793119.6564   21793117.7894
     -2959.6254
 -19099224.65949 -14873766.06048  20534651.4534   20534648.8204
       386.1564
 04  9 14 17 20  0.0000000  0  6G 1G11G16G23G25G20
  -5260270.92449  -4080639.58147  20740286.9844   20740285.8794
     -1336.5164
   7077387.72548   5528878.47844  23012281.4534   23012280.2734
     -3507.3124
  -4113316.41748  -3195995.03244  23234872.4144   23234872.2074
      1869.3594
 -13010183.50449 -10126322.72347  21496201.6954   21496197.6804
       930.7974
   1114986.80949    884326.97547  21801578.5314   21801577.0434
     -2967.4844
 -19104943.82149 -14878222.53848  20533563.0784   20533560.4144
       376.1724
 04  9 14 17 20 15.0000000  0  6G 1G11G16G23G25G20
  -5240175.79049  -4064981.03947  20744110.5234   20744109.3094
     -1342.6874
   7130045.81948   5569910.73644  23022301.7974   23022300.0554
     -3513.6564
  -4141304.71448  -3217804.06744  23229547.5864   23229546.3484
      1862.4534
 -13024098.86349 -10137165.85547  21493553.8284   21493549.0634
       924.7504
   1159558.28849    919057.98747  21810059.8984   21810058.3364
     -2975.2664
 -19110511.16049 -14882560.73247  20532503.5634   20532501.0594
       366.1884
